[[{"header":{"parameterUnit":"m.s-1","parameterCategory":1,"la1":30.6,"la2":29.2853,"lo1":-89.7004,"lo2":-87.6739,"dy":0.0162,"dx":0.0183,"nx":112,"ny":82,"refTime":"2023-05-02T00:00:00:Z","depth":0,"parameterNumber":2,"parameterNumberName":"U-component_of_WINDS"},"data":[0.0,0.0,0.0,0.0,0.0,0.0,0.0,0.0,0.0,0.0,0.0,0.0,0.0,0.0,0.0,0.0,0.0,0.0,0.0,0.0,0.0,0.0,0.0,0.0,0.0,0.0,0.0,0.0,0.0,0.0,0.0,0.0,0.0,0.0,0.0,0.0,0.0,0.0,0.0,0.0,0.0,0.0,0.0,0.0,0.0,0.0,0.0,0.0,0.0,0.0,0.0,0.0,0.0,0.0,0.0,0.0,0.0,0.0,0.0,0.0,0.0,0.0,0.0,0.0,0.0,0.0,0.0,0.0,0.0,0.0,0.0,0.0,0.0,0.0,0.0,0.0,0.0,0.0,0.0,0.0,0.0,0.0,0.0,0.0,0.0,0.0,0.0,0.0,0.0,0.0,-1.9271,-2.0347,-2.2337,-2.4082,-2.5173,-2.5575,-2.4963,-2.3208,0.0,0.0,0.0,0.0,0.0,0.0,0.0,0.0,0.0,0.0,0.0,0.0,0.0,0.0,0.0,0.0,0.0,0.0,0.0,0.0,0.0,0.0,0.0,0.0,0.0,0.0,0.0,0.0,0.0,0.0,0.0,0.0,0.0,0.0,0.0,0.0,0.0,0.0,0.0,0.0,0.0,0.0,0.0,0.0,0.0,0.0,0.0,0.0,0.0,0.0,0.0,0.0,0.0,0.0,0.0,0.0,0.0,0.0,0.0,0.0,0.0,0.0,0.0,0.0,0.0,0.0,0.0,0.0,0.0,0.0,0.0,0.0,0.0,0.0,0.0,0.0,0.0,0.0,0.0,0.0,0.0,0.0,0.0,0.0,0.0,0.0,0.0,0.0,0.0,0.0,0.0,0.0,0.0,0.0,0.0,0.0,0.0,0.0,0.0,0.0,0.0,0.0,0.0,0.0,-2.0174,-2.35,-2.4606,-2.5781,-2.7232,-2.7531,-2.6822,-2.4884,0.0,0.0,0.0,0.0,0.0,0.0,0.0,0.0,0.0,0.0,0.0,0.0,0.0,0.0,0.0,0.0,0.0,0.0,0.0,0.0,0.0,0.0,0.0,0.0,0.0,0.0,0.0,0.0,0.0,0.0,0.0,0.0,0.0,0.0,0.0,0.0,0.0,0.0,0.0,0.0,0.0,0.0,0.0,0.0,0.0,0.0,0.0,0.0,0.0,0.0,0.0,0.0,0.0,0.0,0.0,0.0,0.0,0.0,0.0,0.0,0.0,0.0,0.0,0.0,0.0,0.0,0.0,0.0,0.0,0.0,0.0,0.0,0.0,0.0,0.0,0.0,0.0,0.0,0.0,0.0,0.0,0.0,0.0,0.0,0.0,0.0,0.0,0.0,0.0,0.0,0.0,0.0,0.0,0.0,0.0,0.0,0.0,0.0,0.0,0.0,0.0,0.0,0.0,-2.04,-2.2016,-2.4915,-2.5905,-2.6987,-2.8407,-2.8607,-2.7837,-2.5993,-2.4082,0.0,0.0,0.0,0.0,0.0,0.0,0.0,0.0,0.0,0.0,0.0,0.0,0.0,0.0,0.0,0.0,0.0,0.0,0.0,0.0,0.0,0.0,0.0,0.0,0.0,0.0,0.0,0.0,0.0,0.0,0.0,0.0,0.0,0.0,0.0,0.0,0.0,0.0,0.0,0.0,0.0,0.0,0.0,0.0,0.0,0.0,0.0,0.0,0.0,0.0,0.0,0.0,0.0,0.0,0.0,0.0,0.0,0.0,0.0,0.0,0.0,0.0,0.0,0.0,0.0,0.0,0.0,0.0,0.0,0.0,0.0,0.0,0.0,0.0,0.0,0.0,0.0,0.0,0.0,0.0,0.0,0.0,0.0,0.0,0.0,0.0,0.0,0.0,0.0,0.0,0.0,0.0,0.0,0.0,0.0,0.0,0.0,0.0,0.0,0.0,0.0,0.0,-2.2062,-2.3951,-2.5932,-2.7139,-2.8305,-2.9483,-2.9483,-2.8678,-2.7013,-2.5387,0.0,0.0,0.0,0.0,0.0,0.0,0.0,0.0,0.0,0.0,0.0,0.0,0.0,0.0,0.0,0.0,0.0,0.0,0.0,0.0,0.0,0.0,0.0,0.0,0.0,0.0,0.0,0.0,0.0,0.0,0.0,0.0,0.0,0.0,0.0,0.0,0.0,0.0,0.0,0.0,0.0,0.0,0.0,0.0,0.0,0.0,0.0,0.0,0.0,0.0,0.0,0.0,0.0,0.0,0.0,0.0,0.0,0.0,0.0,0.0,0.0,0.0,0.0,0.0,0.0,0.0,0.0,0.0,0.0,0.0,0.0,0.0,0.0,0.0,0.0,0.0,0.0,0.0,0.0,0.0,0.0,0.0,0.0,0.0,0.0,0.0,0.0,0.0,0.0,0.0,0.0,0.0,0.0,0.0,0.0,0.0,0.0,0.0,0.0,0.0,0.0,0.0,-2.3496,-2.5678,-2.7133,-2.8708,-2.9954,-3.0715,-3.0129,-2.9263,-2.8091,-2.5928,0.0,0.0,0.0,0.0,0.0,0.0,0.0,0.0,0.0,0.0,0.0,0.0,0.0,0.0,0.0,0.0,0.0,0.0,0.0,0.0,0.0,0.0,0.0,0.0,0.0,0.0,0.0,0.0,0.0,0.0,0.0,0.0,0.0,0.0,0.0,0.0,0.0,0.0,0.0,0.0,0.0,0.0,0.0,0.0,0.0,0.0,0.0,0.0,0.0,0.0,0.0,0.0,0.0,0.0,0.0,0.0,0.0,0.0,0.0,0.0,0.0,0.0,0.0,0.0,0.0,0.0,0.0,0.0,0.0,0.0,0.0,0.0,0.0,0.0,0.0,0.0,0.0,0.0,0.0,0.0,0.0,0.0,0.0,0.0,0.0,0.0,0.0,0.0,0.0,0.0,0.0,0.0,0.0,0.0,0.0,0.0,0.0,0.0,0.0,0.0,0.0,0.0,-2.3484,-2.5394,0.0,-2.8763,-2.9939,-3.0865,-3.062,-2.964,-2.76,0.0,0.0,0.0,0.0,0.0,0.0,0.0,0.0,0.0,0.0,0.0,0.0,0.0,0.0,0.0,0.0,0.0,0.0,0.0,0.0,0.0,0.0,0.0,0.0,0.0,0.0,0.0,0.0,0.0,0.0,0.0,0.0,0.0,0.0,0.0,0.0,0.0,0.0,0.0,0.0,0.0,0.0,0.0,0.0,0.0,0.0,0.0,0.0,0.0,0.0,0.0,0.0,0.0,0.0,0.0,0.0,0.0,0.0,0.0,0.0,0.0,0.0,0.0,0.0,0.0,0.0,0.0,0.0,0.0,0.0,0.0,0.0,0.0,0.0,0.0,0.0,0.0,0.0,0.0,0.0,0.0,0.0,0.0,0.0,0.0,0.0,0.0,0.0,0.0,0.0,0.0,0.0,0.0,0.0,0.0,0.0,0.0,0.0,0.0,0.0,0.0,0.0,-2.2087,-2.3951,-2.5683,0.0,-2.9064,-3.0229,-3.0691,-3.0513,-2.9387,-2.7114,0.0,0.0,0.0,0.0,0.0,0.0,0.0,0.0,0.0,0.0,0.0,0.0,0.0,0.0,0.0,0.0,0.0,0.0,0.0,0.0,0.0,0.0,0.0,0.0,0.0,0.0,0.0,0.0,0.0,0.0,0.0,0.0,0.0,0.0,0.0,0.0,0.0,0.0,0.0,0.0,0.0,0.0,0.0,0.0,0.0,0.0,0.0,0.0,0.0,0.0,0.0,0.0,0.0,0.0,0.0,0.0,0.0,0.0,0.0,0.0,0.0,0.0,0.0,0.0,0.0,0.0,0.0,0.0,0.0,0.0,0.0,0.0,0.0,0.0,0.0,0.0,0.0,0.0,0.0,0.0,0.0,0.0,0.0,0.0,0.0,0.0,0.0,0.0,0.0,0.0,0.0,0.0,0.0,0.0,0.0,0.0,0.0,0.0,0.0,0.0,0.0,0.0,-2.2957,-2.5089,-2.6797,-2.7593,-2.9891,-3.1082,-3.0364,-2.9686,-2.8492,0.0,0.0,0.0,0.0,0.0,0.0,0.0,0.0,0.0,0.0,0.0,0.0,0.0,0.0,0.0,0.0,0.0,0.0,0.0,0.0,0.0,0.0,0.0,0.0,0.0,0.0,0.0,0.0,0.0,0.0,0.0,0.0,0.0,0.0,0.0,0.0,0.0,0.0,0.0,0.0,0.0,0.0,0.0,0.0,0.0,0.0,0.0,0.0,0.0,0.0,0.0,0.0,0.0,0.0,0.0,0.0,0.0,0.0,0.0,0.0,0.0,0.0,0.0,0.0,0.0,0.0,0.0,0.0,0.0,0.0,0.0,0.0,0.0,0.0,0.0,0.0,0.0,0.0,0.0,0.0,0.0,0.0,0.0,0.0,0.0,0.0,0.0,0.0,0.0,0.0,0.0,0.0,0.0,0.0,0.0,0.0,0.0,0.0,0.0,0.0,0.0,0.0,0.0,-2.365,-2.5191,-2.6602,-2.788,-2.9114,-2.974,-2.9375,-2.8571,-2.7171,-2.4975,0.0,0.0,0.0,0.0,0.0,0.0,0.0,0.0,0.0,0.0,0.0,0.0,0.0,0.0,0.0,0.0,0.0,0.0,0.0,0.0,0.0,0.0,0.0,0.0,0.0,0.0,0.0,0.0,0.0,0.0,0.0,0.0,0.0,0.0,0.0,0.0,0.0,0.0,0.0,0.0,0.0,0.0,0.0,0.0,0.0,0.0,0.0,0.0,0.0,0.0,0.0,0.0,0.0,0.0,0.0,0.0,0.0,0.0,0.0,0.0,0.0,0.0,0.0,0.0,0.0,0.0,0.0,0.0,0.0,0.0,0.0,0.0,0.0,0.0,0.0,0.0,0.0,0.0,0.0,0.0,0.0,0.0,0.0,0.0,0.0,0.0,0.0,0.0,0.0,0.0,0.0,0.0,0.0,0.0,0.0,0.0,0.0,0.0,0.0,0.0,0.0,0.0,-2.3417,-2.4784,-2.6001,-2.7128,-2.8145,-2.8633,-2.8428,-2.7841,-2.6509,-2.4126,0.0,0.0,0.0,0.0,0.0,0.0,0.0,0.0,0.0,0.0,0.0,0.0,0.0,0.0,0.0,0.0,0.0,0.0,0.0,0.0,0.0,0.0,0.0,0.0,0.0,0.0,0.0,0.0,0.0,0.0,0.0,0.0,0.0,0.0,0.0,0.0,0.0,0.0,0.0,0.0,0.0,0.0,0.0,0.0,0.0,0.0,0.0,0.0,0.0,0.0,0.0,0.0,0.0,0.0,0.0,0.0,0.0,0.0,0.0,0.0,0.0,0.0,0.0,0.0,0.0,0.0,0.0,0.0,0.0,0.0,0.0,0.0,0.0,0.0,0.0,0.0,0.0,0.0,0.0,0.0,0.0,0.0,0.0,0.0,0.0,0.0,0.0,0.0,0.0,0.0,0.0,0.0,0.0,0.0,0.0,0.0,0.0,0.0,0.0,0.0,0.0,0.0,-2.2643,-2.4131,-2.5345,-2.5975,-2.7141,-2.7773,-2.7399,-2.7112,-2.597,-2.3664,0.0,0.0,0.0,0.0,0.0,0.0,0.0,0.0,0.0,0.0,0.0,0.0,0.0,0.0,0.0,0.0,0.0,0.0,0.0,0.0,0.0,0.0,0.0,0.0,0.0,0.0,0.0,0.0,0.0,0.0,0.0,0.0,0.0,0.0,0.0,0.0,0.0,0.0,0.0,0.0,0.0,0.0,0.0,0.0,0.0,0.0,0.0,0.0,0.0,0.0,0.0,0.0,0.0,0.0,0.0,0.0,0.0,0.0,0.0,0.0,-1.7513,0.0,0.0,0.0,0.0,0.0,0.0,0.0,0.0,0.0,0.0,0.0,0.0,0.0,0.0,0.0,0.0,0.0,0.0,0.0,0.0,0.0,0.0,0.0,0.0,0.0,0.0,0.0,0.0,0.0,0.0,0.0,0.0,0.0,0.0,0.0,0.0,0.0,0.0,0.0,0.0,0.0,-2.3145,-2.4243,-2.5307,-2.6458,-2.6364,-2.6045,-2.5512,-2.4619,-2.3404,-2.1859,-1.9989,0.0,0.0,0.0,0.0,0.0,0.0,0.0,0.0,0.0,0.0,0.0,0.0,0.0,0.0,0.0,0.0,0.0,0.0,0.0,0.0,0.0,0.0,0.0,0.0,0.0,0.0,0.0,0.0,0.0,0.0,0.0,0.0,0.0,0.0,0.0,0.0,0.0,0.0,0.0,0.0,0.0,0.0,0.0,0.0,0.0,0.0,0.0,0.0,0.0,0.0,0.0,0.0,0.0,0.0,0.0,0.0,0.0,0.0,0.0,0.0,-1.9357,0.0,0.0,0.0,0.0,0.0,0.0,0.0,0.0,0.0,0.0,0.0,0.0,0.0,0.0,0.0,0.0,0.0,0.0,0.0,0.0,0.0,0.0,0.0,0.0,0.0,0.0,0.0,0.0,0.0,0.0,0.0,0.0,0.0,0.0,0.0,0.0,0.0,0.0,0.0,0.0,-2.2728,-2.3761,-2.4627,-2.5394,-2.503,-2.4587,-2.4141,-2.3212,-2.2159,-2.0767,-1.9326,0.0,0.0,0.0,0.0,0.0,0.0,0.0,0.0,0.0,0.0,0.0,0.0,0.0,0.0,0.0,0.0,0.0,0.0,0.0,0.0,0.0,0.0,0.0,0.0,0.0,0.0,0.0,0.0,0.0,0.0,0.0,0.0,0.0,0.0,0.0,0.0,0.0,0.0,0.0,0.0,0.0,0.0,0.0,0.0,0.0,0.0,0.0,0.0,0.0,0.0,0.0,0.0,0.0,-0.9758,-1.4334,-1.6067,-1.4972,-1.6546,-2.0137,-2.1074,-2.1368,-2.0986,-1.9111,0.0,0.0,0.0,0.0,0.0,0.0,0.0,0.0,0.0,0.0,0.0,0.0,0.0,0.0,0.0,0.0,0.0,0.0,0.0,0.0,0.0,0.0,0.0,0.0,-1.8702,-1.9258,0.0,0.0,0.0,0.0,0.0,0.0,0.0,0.0,0.0,0.0,0.0,0.0,-2.209,-2.312,-2.3863,-2.4003,-2.3653,-2.3303,-2.2931,-2.2181,-2.1263,-2.0052,-1.8905,-1.8019,0.0,0.0,0.0,0.0,0.0,0.0,0.0,0.0,0.0,0.0,0.0,0.0,0.0,0.0,0.0,0.0,0.0,0.0,0.0,0.0,0.0,0.0,0.0,0.0,0.0,0.0,0.0,0.0,0.0,0.0,0.0,0.0,-1.1041,-1.1195,0.0,0.0,0.0,0.0,0.0,0.0,0.0,0.0,0.0,0.0,0.0,0.0,0.0,-0.8677,-0.7908,-0.7584,-0.6578,-0.4861,-1.2908,-1.7434,-1.8803,-1.8683,-2.0141,-2.261,-2.2733,0.0,-2.1185,-2.1915,0.0,0.0,0.0,0.0,0.0,0.0,0.0,0.0,0.0,0.0,0.0,0.0,0.0,0.0,0.0,0.0,0.0,0.0,0.0,0.0,0.0,0.0,-1.9272,-2.0074,-2.033,-2.0686,0.0,-2.0919,-2.0377,-1.9918,-2.0689,0.0,0.0,0.0,0.0,0.0,0.0,0.0,-2.1999,-2.295,-2.3604,-2.3627,-2.2956,-2.232,-2.1809,-2.0682,-1.9683,-1.9084,-1.8044,-1.7472,-1.752,-1.674,0.0,0.0,0.0,0.0,0.0,0.0,0.0,0.0,0.0,0.0,0.0,0.0,0.0,0.0,0.0,0.0,0.0,0.0,0.0,0.0,0.0,0.0,0.0,0.0,0.0,0.0,0.0,0.0,0.0,-1.1661,-1.1741,-1.1516,-1.1377,-1.1307,0.0,0.0,0.0,0.0,0.0,0.0,0.0,0.0,0.0,-1.1778,-1.2244,-1.2674,-1.2957,-1.2991,-1.3097,-1.3239,-1.7485,-2.0614,-2.249,-2.177,-2.2477,-2.4203,-2.4203,-2.3881,-2.334,-2.3133,-2.2453,-2.1457,0.0,0.0,0.0,0.0,-2.5861,-2.9479,-3.1819,-3.4861,0.0,-3.8466,0.0,0.0,0.0,0.0,0.0,0.0,0.0,0.0,0.0,0.0,-2.0943,-2.157,-2.1866,-2.2228,-2.3029,-2.3032,-2.256,0.0,-2.2198,-2.246,-2.1313,0.0,0.0,0.0,0.0,-2.2372,-2.2408,-2.2667,-2.2917,-2.3091,-2.2112,-2.1353,-2.1139,-1.9959,-1.8829,-1.8025,-1.737,-1.6757,-1.6229,-1.5935,-1.5536,0.0,0.0,0.0,0.0,0.0,0.0,0.0,0.0,0.0,0.0,0.0,0.0,0.0,0.0,0.0,0.0,0.0,0.0,0.0,0.0,0.0,0.0,0.0,0.0,0.0,0.0,0.0,0.0,-1.2122,-1.2218,-1.1818,-1.2003,-1.212,0.0,0.0,0.0,0.0,0.0,0.0,-1.3632,-1.4324,-1.4751,-1.4787,-1.5549,-1.6491,-1.7844,-1.8262,-1.9549,-2.1658,-2.2315,-2.3794,-2.5659,-2.5355,-2.554,-2.6238,-2.6238,-2.6613,-2.7094,-2.4686,-2.3577,-2.3503,-2.2944,-2.3052,-2.3794,-2.5512,-2.7921,-3.0788,-3.3956,-3.7114,-3.9754,-4.0,0.0,-3.8491,-3.4808,0.0,0.0,0.0,0.0,-2.3607,-2.3066,-2.293,-2.293,-2.3472,-2.3806,-2.4066,-2.48,-2.5184,-2.4953,0.0,-2.3739,-2.4064,-2.2771,0.0,0.0,0.0,0.0,-2.3153,-2.3024,-2.2835,-2.2734,-2.2666,-2.1603,-2.0823,-2.0573,-1.9502,-1.8427,-1.7363,-1.6905,-1.6263,-1.5405,-1.5415,-1.5241,-1.4821,0.0,0.0,0.0,0.0,0.0,0.0,0.0,0.0,0.0,0.0,0.0,0.0,0.0,0.0,0.0,0.0,0.0,0.0,0.0,0.0,0.0,0.0,0.0,0.0,0.0,0.0,0.0,0.0,0.0,-1.2792,-1.2995,0.0,0.0,0.0,0.0,-1.3539,-1.4191,-1.4838,-1.5447,-1.6451,-1.7302,-1.782,-1.8436,-1.9533,-2.1141,-2.2045,-2.4295,-2.7802,-2.7226,-2.7026,-2.7137,-2.9998,-3.0385,-2.9043,-2.9043,-3.0561,-3.2696,-2.7214,-2.4935,-2.4996,-2.4975,-2.4187,-2.3628,-2.7174,-2.9648,-3.1458,-3.4399,-3.7391,-3.983,-4.0662,-3.9702,-3.755,-3.4385,-3.1706,0.0,0.0,-2.5819,-2.5368,-2.566,-2.5528,-2.5382,-2.6082,-2.6301,-2.6565,-2.6937,-2.7305,-2.711,0.0,-2.5185,-2.5294,-2.5034,0.0,-2.4772,-2.4387,-2.4449,-2.4275,-2.3757,-2.3692,-2.3418,-2.2573,-2.1903,-2.1084,-2.0226,-1.9168,-1.8322,-1.7719,-1.6722,-1.6051,-1.59,-1.569,-1.5241,-1.4524,-1.4941,0.0,0.0,0.0,0.0,0.0,0.0,0.0,0.0,0.0,0.0,0.0,0.0,0.0,0.0,0.0,0.0,0.0,0.0,0.0,0.0,0.0,0.0,0.0,0.0,0.0,0.0,0.0,0.0,-1.2821,-1.3076,0.0,-1.3506,-1.3515,-1.3885,-1.4797,-1.5154,-1.5854,-1.7037,-1.7981,-1.8935,-1.9747,-2.0629,-2.1876,-2.3529,-2.4082,-2.5704,-2.8607,-2.9215,-2.9788,-3.0115,-3.204,-3.3262,-3.3559,-3.2452,-3.2414,-3.2835,-3.0913,-2.9165,-2.7678,-2.6638,-2.7176,-2.8486,-2.9565,-3.143,-3.3483,-3.57,-3.8141,-4.0375,-4.0903,-3.9511,-3.7276,-3.5248,-3.2986,-3.0709,-2.938,-2.8532,-2.7862,-2.7495,-2.7297,-2.7396,-2.7951,-2.7964,-2.8089,-2.9081,-2.917,-2.9055,-2.889,-2.781,-2.6722,-2.6196,-2.6136,-2.6042,-2.5491,-2.547,-2.5519,-2.5237,-2.459,-2.4088,-2.3774,-2.2493,-2.1476,-2.0948,-1.9624,-1.8469,-1.7747,-1.6644,-1.569,-1.4864,-1.4419,-1.3968,-1.3271,-1.3747,-1.3784,0.0,0.0,0.0,0.0,0.0,0.0,0.0,0.0,0.0,0.0,0.0,0.0,0.0,0.0,0.0,0.0,0.0,0.0,0.0,0.0,0.0,0.0,0.0,0.0,0.0,0.0,-1.3067,-1.2947,-1.3254,-1.3543,-1.3839,-1.4062,-1.4737,-1.5888,-1.6427,-1.7218,-1.8447,-1.9513,-2.0514,-2.1317,-2.2476,-2.3762,-2.5333,-2.5988,-2.7343,-2.9444,-3.0739,-3.1733,-3.2381,-3.3905,-3.4903,-3.5557,-3.4377,-3.3505,-3.2968,-3.2837,-3.184,-3.0376,-2.8847,-2.9375,-3.1103,-3.2158,-3.3875,-3.6027,-3.7521,-3.913,-4.0553,-4.0418,-3.9093,-3.7159,-3.5541,-3.3777,-3.2145,-3.1037,-3.0527,-2.995,-2.9292,-2.9137,-2.9468,-2.9952,-2.9784,-2.991,-3.1109,-3.1211,-3.1153,-3.1817,-3.0224,-2.8486,-2.7973,-2.7966,-2.7803,-2.7289,-2.7182,-2.7151,-2.6782,-2.5977,-2.5238,-2.4917,-2.3584,-2.2431,-2.1824,-2.0546,-1.9297,-1.8162,-1.7103,-1.5961,-1.4704,-1.4082,-1.3475,-1.2807,-1.3299,-1.365,-1.3851,0.0,0.0,0.0,0.0,0.0,0.0,0.0,0.0,0.0,0.0,0.0,0.0,0.0,0.0,0.0,0.0,0.0,0.0,0.0,0.0,0.0,0.0,0.0,-1.174,-1.2547,-1.3119,-1.3122,-1.3534,-1.4059,-1.4657,-1.515,-1.5752,-1.6662,-1.783,-1.8856,-1.9766,-2.1018,-2.2035,-2.2606,-2.405,-2.5408,-2.668,-2.7772,-2.9201,-3.1005,-3.1853,-3.2823,-3.3822,-3.5322,-3.5548,-3.468,-3.4695,-3.4212,-3.3198,-3.2983,-3.2895,-3.291,-3.1337,-3.0832,-3.1253,-3.459,-3.7027,-3.8754,-3.9977,-4.0455,-4.0177,-3.9208,-3.8323,-3.7241,-3.5004,-3.3929,-3.3073,-3.1886,-3.145,-3.1379,-3.1051,-3.1266,-3.1454,-3.2145,-3.1961,-3.195,-3.3016,-3.3133,-3.3392,-3.3939,-3.2216,-3.0715,-3.0835,-3.0538,-3.0063,-2.9562,-2.9582,0.0,-2.8457,-2.7739,-2.6899,-2.6108,-2.5153,-2.4053,-2.2745,-2.1923,-2.0787,-1.9105,-1.8145,-1.7026,-1.5674,-1.4871,-1.4039,-1.316,-1.3646,-1.4557,-1.5808,0.0,0.0,0.0,0.0,0.0,0.0,0.0,0.0,0.0,0.0,0.0,0.0,0.0,0.0,0.0,0.0,0.0,0.0,0.0,0.0,0.0,0.0,-1.2117,-1.2819,-1.2948,-1.3071,-1.3323,-1.362,-1.4062,-1.4494,-1.5099,-1.6046,-1.7264,-1.8067,-1.9069,-2.043,-2.1536,-2.2566,-2.365,-2.507,-2.6403,-2.7635,-2.8804,-3.0253,-3.1996,-3.2775,-3.3467,-3.4099,-3.5168,-3.5335,-3.4938,-3.3916,-3.3443,-3.3128,-3.245,-3.2527,-3.2646,-3.1285,-3.1446,-3.2722,-3.5103,-3.7027,-3.8736,-3.9645,-3.979,-3.9342,-3.8357,-3.7285,-3.6243,-3.4948,-3.3918,-3.2894,-3.2627,-3.2251,-3.2,-3.2048,-3.2083,-3.2397,-3.3037,-3.3166,-3.3276,-3.4522,-3.4747,-3.4861,-3.5435,-3.5078,-3.4432,-3.3484,-3.2661,-3.1893,-3.1918,-3.1346,0.0,-3.0478,-2.9327,-2.8472,-2.7955,-2.6733,-2.5581,-2.4519,-2.3286,-2.2046,-2.0798,-1.9366,-1.7956,-1.6699,-1.5845,-1.5023,-1.4222,-1.4205,-1.4848,0.0,0.0,0.0,0.0,0.0,0.0,0.0,0.0,0.0,0.0,0.0,0.0,0.0,0.0,0.0,0.0,0.0,0.0,0.0,0.0,0.0,0.0,-1.1303,-1.2074,-1.3108,-1.324,-1.3323,-1.3594,-1.4073,-1.4614,-1.5171,-1.5779,-1.6765,-1.8088,-1.8836,-1.9765,-2.1156,-2.2213,-2.3286,-2.4247,-2.5888,-2.7221,-2.8193,-2.9778,-3.1213,-3.2445,-3.34,-3.395,-3.4267,-3.4813,-3.4952,0.0,-3.3844,-3.3295,-3.3182,-3.2729,-3.2648,0.0,0.0,0.0,0.0,0.0,-3.8177,-3.905,-3.9431,-3.9289,-3.8785,-3.7458,-3.6355,-3.5382,-3.4517,-3.3576,-3.2617,-3.2477,-3.2459,-3.2371,-3.2295,-3.2549,-3.298,-3.3531,-3.3731,-3.4108,-3.5427,-3.5775,-3.6113,-3.6707,-3.7054,0.0,-3.681,-3.5341,-3.428,-3.3917,-3.3649,-3.3115,-3.2194,-3.1367,-3.0535,-2.98,-2.8528,-2.7393,-2.6381,-2.4869,0.0,0.0,0.0,-1.9103,-1.7292,-1.6268,0.0,0.0,0.0,-1.6056,-1.7455,0.0,0.0,0.0,-2.2264,-2.3851,0.0,0.0,0.0,0.0,0.0,0.0,0.0,0.0,0.0,0.0,0.0,0.0,0.0,0.0,0.0,0.0,-1.1134,-1.1747,-1.2781,-1.3404,-1.3844,-1.4015,-1.4712,-1.5476,-1.6232,-1.6884,-1.7695,-1.8926,-1.9935,-2.085,-2.1779,0.0,0.0,0.0,0.0,-2.8058,-2.8728,-3.0604,-3.2006,-3.2586,-3.3633,-3.4342,-3.4756,-3.4487,-3.478,-3.509,-3.4173,-3.3605,-3.3597,-3.3628,-3.3357,-3.2928,-3.319,-3.3567,-3.4736,-3.8299,-3.9689,-3.9689,-3.916,0.0,0.0,-3.6435,-3.5444,-3.4653,-3.3773,-3.2929,-3.2219,-3.1759,-3.211,-3.2613,-3.2069,-3.2654,-3.35,-3.3736,-3.4053,-3.4617,-3.5986,-3.6434,-3.6826,-3.7819,-3.8489,-3.9003,-3.9874,-3.8205,-3.672,-3.5918,-3.6017,-3.5645,-3.4025,-3.3443,-3.2855,-3.1711,0.0,0.0,-2.821,-2.667,-2.4983,-2.3073,-2.2105,-2.0531,-1.8007,-1.6871,-1.6417,-1.6699,-1.7105,-1.8035,-1.9438,-2.1118,-2.2155,-2.2611,-2.2926,-2.4193,0.0,0.0,0.0,0.0,0.0,0.0,0.0,0.0,0.0,0.0,0.0,0.0,0.0,0.0,0.0,-1.0418,-1.093,-1.1611,-1.2525,-1.3586,-1.4379,-1.4775,-1.5262,-1.5861,-1.6784,-1.7521,-1.854,-1.9889,-2.0716,-2.1637,-2.2711,-2.3881,0.0,-2.5727,-2.753,-2.8867,-2.9634,-3.1045,-3.2263,-3.3072,0.0,0.0,-3.5438,-3.5054,-3.4784,-3.446,-3.3656,-3.3422,-3.3611,-3.3499,-3.3543,-3.3656,-3.5109,-3.6895,-3.874,-3.9706,-3.9876,-3.9519,-3.8666,-3.8045,-3.7299,-3.5551,-3.4337,-3.3528,-3.206,-3.1543,0.0,-3.0998,-3.1412,-3.2036,-3.2305,-3.3065,-3.3752,-3.4735,-3.4908,-3.5265,-3.6915,-3.733,-3.7789,-3.8742,-3.9355,-3.9883,-4.0238,-3.9154,-3.8275,-3.8667,-3.7945,-3.6954,-3.6102,-3.5423,-3.4631,-3.3421,-3.2834,-3.1915,-3.0513,-2.9155,-2.7789,-2.627,-2.412,-2.2249,-2.071,-2.044,-1.9984,-1.9215,-1.964,-2.0352,-2.1212,-2.1854,-2.2975,-2.4454,-2.4961,-2.5592,0.0,0.0,0.0,0.0,0.0,0.0,0.0,0.0,0.0,0.0,0.0,-0.8443,0.0,0.0,-0.973,-1.043,-1.0947,-1.1566,-1.2289,-1.32,-1.4115,-1.5021,-1.5665,-1.6397,-1.7414,-1.8144,-1.9111,-2.043,-2.1256,-2.2262,-2.3545,-2.4525,-2.5511,-2.6483,-2.7896,-2.9197,-2.9851,-3.1437,-3.2474,-3.2907,-3.4052,-3.4676,-3.5324,-3.5102,-3.4938,-3.4646,-3.3863,-3.3858,-3.4479,-3.4432,-3.5318,-3.6656,-3.7447,-3.899,-4.0547,-4.0503,-4.0026,-3.9195,-3.8201,-3.7458,-3.6692,-3.4742,-3.3722,-3.3126,-3.1826,-3.129,-3.114,-3.0611,-3.1359,-3.2116,-3.2025,-3.3116,-3.4154,-3.4449,-3.5093,-3.5943,-3.7029,-3.7791,-3.8597,-3.944,-4.0417,-4.1254,-4.1658,-4.147,-4.0975,-4.0289,-3.9716,-3.9024,-3.8125,-3.774,-3.6978,-3.5736,-3.508,-3.4096,-3.2499,-3.0425,-2.8597,-2.7316,-2.5421,-2.3886,-2.2795,-2.2242,-2.1771,-2.132,-2.1461,-2.1987,-2.2737,-2.3448,-2.435,-2.5344,-2.6382,-2.7035,0.0,0.0,0.0,0.0,0.0,0.0,0.0,0.0,-0.6387,-0.6855,-0.7684,-0.8526,-0.9121,-0.9495,-0.9832,-1.0429,-1.0912,-1.1464,-1.2131,-1.2713,-1.3521,-1.4608,-1.567,-1.6731,-1.7736,-1.8442,-1.933,-2.0628,-2.1666,-2.2737,-2.3884,-2.4824,-2.5794,-2.6939,-2.8118,-2.905,-2.9873,-3.1282,-3.2368,-3.2786,-3.348,-3.4204,-3.4729,-3.4757,-3.4895,-3.5097,-3.4474,-3.4856,-3.579,-3.595,-3.7401,-3.9755,-3.9498,-3.9983,-4.089,-4.0682,-3.9966,-3.8977,-3.765,-3.6918,-3.6161,-3.4167,-3.3272,-3.2611,-3.1664,-3.1114,-3.0745,-3.0323,-3.1209,-3.2106,-3.1853,-3.3036,-3.4199,-3.3849,-3.4944,-3.6252,-3.7012,-3.8052,-3.9236,-4.0314,-4.1565,-4.2596,-4.3218,-4.3528,-4.3304,-4.1794,-4.1735,-4.1409,-4.0171,-4.0201,-3.9781,-3.8248,-3.7471,-3.6363,-3.4316,-3.1783,-2.9634,-2.8317,-2.7139,-2.6019,-2.4964,-2.403,-2.36,-2.3514,-2.3356,-2.3689,-2.4513,-2.5289,-2.5932,-2.6461,-2.758,-2.829,-0.3169,-0.3572,0.0,-0.3891,-0.3956,-0.4042,0.0,0.0,-0.5645,-0.6407,-0.7155,-0.7799,-0.8243,-0.8875,-0.9455,-1.0137,-1.0398,-1.0877,-1.2011,-1.2322,-1.262,-1.3222,-1.4851,-1.6343,-1.7528,-1.8381,-1.9362,-2.0561,-2.1603,-2.2531,-2.3539,-2.4454,-2.5583,-2.6766,-2.734,-2.8473,-2.9866,-3.092,-3.1855,-3.2939,-3.3253,-3.3661,-3.4129,-3.4701,-3.5161,-3.5866,-3.6179,-3.6913,-3.8022,-3.8186,-3.9154,-4.0566,-4.0464,-4.0559,-4.0618,-4.019,-3.9892,-3.9447,-3.7193,-3.613,-3.541,-3.3386,-3.2322,-3.1664,-3.014,-2.9966,-3.0206,-2.9763,-3.0366,-3.1201,-3.1743,-3.2351,-3.3273,-3.4502,-3.5105,-3.5866,-3.7376,-3.8608,-3.972,-4.1257,-4.201,-4.2806,-4.3883,-4.428,-4.4153,-4.3903,-4.3671,-4.3175,-4.2223,-4.2882,-4.2578,-4.0663,-4.027,-3.9062,-3.6081,-3.445,-3.2931,-3.1472,-3.0614,-2.9499,-2.7926,-2.7602,-2.7148,-2.6349,-2.6083,-2.6333,-2.7136,-2.7146,-2.7574,-2.8576,-2.889,-2.8776,-0.2228,0.0,0.0,0.0,-0.2904,-0.3136,-0.3526,-0.4218,-0.4949,-0.568,-0.6587,-0.7428,-0.8006,-0.8529,-0.9015,0.0,-0.9668,-0.9887,-1.0357,-1.0767,-1.1169,-1.1405,-1.2658,-1.4345,-1.6551,-1.7456,-1.8571,-1.9824,-2.0821,-2.1846,-2.2807,-2.3956,-2.4891,-2.5691,-2.6543,-2.7588,-2.9047,-2.9866,-3.1063,-3.2281,-3.2774,-3.3514,-3.3959,-3.458,-3.5578,-3.6901,-3.794,-3.888,-3.9767,-3.9478,-4.0298,-4.1728,-4.052,-3.9933,-3.9933,-3.9514,-3.9447,-3.892,-3.7025,-3.5684,-3.4566,-3.3072,-3.1987,-3.1093,-3.014,-2.9954,-2.9997,-2.9602,-3.0578,-3.1819,-3.1819,-3.2788,-3.4073,-3.4739,-3.5661,-3.673,-3.7863,-3.9138,-4.0666,-4.2075,-4.2969,-4.3915,-4.4912,-4.5492,-4.5859,-4.6081,-4.5577,-4.4958,-4.4264,-4.4483,-4.4071,-4.221,-4.1401,-4.0186,-3.8313,-3.6899,-3.568,-3.457,-3.3469,-3.2375,-3.1141,-3.0384,-2.9721,-2.9118,-2.8449,-2.8431,-2.9081,-2.8848,-2.9046,-2.9621,-3.0129,-3.023,-0.1491,0.0,0.0,-0.1784,-0.1795,-0.2366,-0.2939,-0.3749,-0.4546,-0.5148,-0.6061,-0.6919,-0.743,-0.7844,-0.8251,-0.847,-0.846,-0.8538,-0.8649,-0.9114,-0.9382,-0.9559,-1.0544,-1.2131,-1.4489,-1.5832,-1.7035,-1.8362,-1.9365,-2.0472,-2.1854,-2.2823,-2.3824,-2.4723,-2.5698,-2.6702,-2.7892,-2.9043,-3.0115,-3.1444,-3.247,-3.3445,-3.4394,-3.5816,-3.7256,-3.8524,-3.96,-4.0517,-4.0988,-4.0746,-4.1305,-4.2024,-4.0263,-3.932,-3.9214,-3.8645,-3.8318,-3.768,-3.6443,-3.5089,-3.3842,-3.2999,-3.1867,-3.0726,-3.0319,-3.0278,-3.0265,-2.9886,-3.0863,-3.2281,-3.1803,-3.2868,-3.4241,-3.4625,-3.5896,-3.7507,-3.8456,-3.9802,-4.1408,-4.2828,-4.3822,-4.4856,-4.6072,-4.6904,-4.7422,-4.7934,-4.7466,-4.7032,-4.6592,-4.6381,-4.5826,-4.426,-4.3241,-4.2208,-4.1016,-3.968,-3.8491,-3.7613,-3.6238,-3.5019,-3.407,-3.2818,-3.1995,-3.1669,-3.0649,-3.0319,-3.0678,-3.0517,-3.0469,-3.0665,-3.1294,-3.172,0.0,0.0,-0.1205,-0.0263,-0.0716,-0.1698,-0.2683,-0.3664,-0.4427,-0.4903,-0.5469,-0.6033,-0.6191,-0.6579,-0.6957,-0.7197,-0.68,-0.6767,-0.7534,-0.7471,-0.74,-0.7694,-0.8808,-0.9875,0.0,-1.3067,-1.4932,-1.6247,-1.6997,-1.8233,-2.0207,-2.0658,-2.1852,-2.382,-2.4609,-2.5623,-2.6777,-2.8203,-2.9322,-3.0433,-3.2032,-3.3641,-3.5351,-3.8885,-4.0726,-4.0754,-4.1269,-4.156,-4.177,-4.2462,-4.2048,-4.1115,-4.0082,-3.9213,-3.8254,-3.7524,-3.6466,-3.528,-3.5137,-3.425,-3.3301,-3.2675,-3.165,-3.0726,-3.0319,-3.0344,-3.0586,-3.0392,-3.098,-3.1547,-3.1659,-3.2366,-3.3206,-3.4163,-3.5528,-3.7133,-3.864,-4.0186,-4.1814,-4.3782,-4.4485,-4.5394,-4.7297,-4.8108,-4.8656,-4.9333,-4.9786,-4.9692,-4.9102,-4.9015,-4.8546,-4.7167,-4.6658,-4.5842,-4.4202,-4.2874,-4.1555,-4.045,-3.8818,-3.7467,-3.6333,-3.499,-3.4198,-3.4044,-3.2673,-3.2007,-3.218,-3.1944,-3.1842,-3.1968,-3.2256,-3.2673,0.2116,0.0,0.1212,0.0268,-0.0281,-0.0389,-0.0,-0.1263,-0.2603,-0.2904,-0.3487,-0.4152,-0.4736,-0.4937,-0.5078,-0.52,-0.5092,-0.497,-0.5099,-0.566,-0.6026,-0.6018,-0.7137,0.0,0.0,0.0,0.0,-1.458,-1.5792,-1.6968,-1.8136,-1.9539,-2.0802,-2.1571,-2.3091,-2.4482,-2.5753,-2.7459,-2.9471,-3.1643,-3.4557,-3.6621,-3.781,-4.0305,-4.1769,-4.2218,-4.3055,-4.3651,-4.3807,-4.2705,-4.2275,-4.2048,-4.0153,-3.9007,-3.8186,-3.7301,-3.6321,-3.5539,-3.5254,-3.4542,-3.3857,-3.3228,-3.2271,-3.1474,-3.1284,-3.1099,-3.0986,-3.0789,-3.1568,-3.2326,-3.2406,-3.3184,-3.4069,-3.5207,-3.6681,-3.8152,-3.9308,-4.0912,-4.2551,-4.3978,-4.5278,-4.667,-4.7569,-4.8588,-4.9768,-5.1218,-5.0785,-5.025,-4.9986,-5.0413,-5.0186,-4.8999,-4.8854,-4.8128,-4.6488,-4.5529,-4.4443,-4.3313,-4.1464,-4.0078,-3.9426,-3.7643,-3.6645,-3.6318,-3.5106,-3.4374,-3.425,-3.3633,-3.3173,-3.2863,-3.3119,-3.3237,0.4991,0.4305,0.3187,0.1593,0.1169,0.1423,0.2713,0.1573,0.0104,-0.0595,-0.1259,-0.1998,-0.2712,-0.2856,-0.2921,-0.3015,-0.3032,-0.3052,-0.3263,-0.3908,-0.4469,-0.4797,-0.5832,0.0,0.0,0.0,0.0,-1.2931,-1.4251,-1.5463,-1.6476,-1.8206,-1.9574,-2.0479,-2.2535,-2.4369,-2.5882,-2.824,-3.1101,-3.4196,-3.7153,-3.8994,-3.9978,-4.1556,-4.2664,-4.3476,-4.4152,-4.439,-4.4454,-4.3145,-4.2423,-4.2199,-4.0493,-3.9348,-3.8666,-3.7808,-3.6946,-3.6176,-3.5529,-3.4864,-3.4235,-3.3813,-3.3126,-3.2421,-3.2232,-3.2178,-3.1984,-3.1785,-3.2385,-3.3143,-3.3406,-3.4196,-3.5104,-3.6125,-3.7616,-3.9123,-4.0407,-4.215,-4.3704,-4.4961,-4.6385,-4.7714,-4.8798,-5.0146,-5.1608,-5.3102,-5.2756,-5.2248,-5.1977,-5.2596,-5.2549,-5.1387,-5.1445,-5.088,-4.9032,-4.8184,-4.7205,-4.5874,-4.4095,-4.2836,-4.1979,-4.0207,-3.899,-3.8469,-3.7173,-3.6317,-3.5976,-3.4981,-3.4247,-3.3759,-3.3974,-3.3872,0.7599,0.6267,0.4834,0.3732,0.343,0.3805,0.5174,0.4578,0.3397,0.1842,0.1109,0.0398,0.0,0.0,-0.0476,-0.0668,-0.0752,-0.1028,-0.1998,-0.2288,-0.2879,0.0,0.0,0.0,0.0,0.0,0.0,-1.1362,0.0,-1.3573,-1.5539,-1.6583,-1.8109,-2.0315,-2.2766,-2.5043,-2.6952,-3.0518,-3.4208,-3.8006,-3.9287,-4.0683,-4.1896,-4.2665,-4.362,-4.4362,-4.4523,-4.4096,-4.3633,-4.3633,-4.2972,-4.1639,-4.1155,-4.05,-3.9671,-3.8666,-3.798,-3.7514,-3.5971,-3.5055,-3.4456,-3.4264,-3.403,-3.3887,-3.3351,-3.3163,-3.3177,-3.3191,-3.3611,-3.4196,-3.4488,-3.5015,-3.5927,-3.7303,-3.874,-4.0226,-4.1717,-4.3484,-4.5222,-4.6676,-4.7758,-4.9009,-5.0952,-5.2668,-5.4243,-5.522,-5.5626,-5.5588,-5.4977,-5.5521,-5.5509,-5.434,-5.4595,-5.3833,-5.1649,-5.0946,-4.9891,-4.8184,-4.6736,-4.5399,-4.388,-4.2399,-4.1283,-4.0364,-3.8566,-3.7621,-3.7461,-3.6097,-3.5179,-3.4673,-3.4814,-3.4537,1.0561,0.9931,0.9205,0.772,0.703,0.6799,0.7148,0.6685,0.5822,0.4295,0.373,0.3275,0.0,0.0,0.0,0.1289,0.0791,0.0,-0.039,-0.1265,0.0,0.0,0.0,-0.516,-0.6142,-0.719,0.0,0.0,-1.1859,-1.3268,-1.4508,-1.6648,-1.8752,-2.0746,-2.381,-2.6594,-2.8907,-3.3785,-3.7179,-3.9171,-4.1191,-4.241,-4.3167,-4.4276,-4.4865,-4.4831,-4.5147,-4.4734,-4.3699,-4.3379,-4.2592,-4.1656,-4.0805,-4.0435,-4.0137,-3.8732,-3.8152,-3.8031,-3.7184,-3.6322,-3.5382,-3.4653,-3.425,-3.4001,-3.3844,-3.354,-3.3219,-3.3443,-3.3816,-3.4546,-3.5087,-3.6325,-3.7706,-3.8749,-4.005,-4.1542,-4.3207,-4.4398,-4.5568,-4.7218,-4.8989,-5.1036,-5.2777,-5.4467,-5.5654,-5.6128,-5.7266,-5.7523,-5.6612,-5.7204,-5.7358,-5.6551,-5.6874,-5.6143,-5.3909,-5.3582,-5.2628,-5.0544,-4.9246,-4.7794,-4.6166,-4.4463,-4.3003,-4.2009,-4.0624,-3.9432,-3.8423,-3.7066,-3.6132,-3.5549,-3.5081,-3.4685,1.3791,1.3274,1.2683,1.1496,1.0618,0.9995,0.9705,0.888,0.7885,0.6611,0.599,0.0,0.0,0.0,0.0,0.0,0.0,0.0,0.1177,0.0097,-0.0954,0.0,-0.3141,0.0,-0.5408,-0.648,-0.7925,0.0,-1.1643,-1.3279,-1.4625,-1.7399,-2.012,-2.2465,-2.5509,-2.898,-3.2898,-3.6976,-3.9636,-4.1147,-4.2397,-4.3359,-4.4079,-4.4605,-4.4915,-4.4982,0.0,-4.4795,-4.3856,-4.3539,-4.284,-4.2249,-4.1518,-4.1045,-4.0563,-3.9769,-3.9178,-3.8563,-3.823,-3.7666,-3.6885,-3.595,-3.544,-3.5374,-3.4995,-3.4666,-3.4522,-3.4697,-3.5235,-3.5951,-3.6511,-3.7694,-3.9062,-4.0149,-4.1493,-4.2847,-4.4321,-4.5612,-4.7213,-4.9051,-5.0991,-5.2804,-5.4499,-5.6125,-5.7389,-5.8166,-5.9059,-5.9763,-5.968,-5.9267,-5.8936,-5.9073,-5.8952,-5.8152,-5.6194,-5.5792,-5.4813,-5.2854,-5.1495,-5.0026,-4.8403,-4.6729,-4.5207,-4.3961,-4.2426,-4.1124,-4.032,-3.8696,-3.7647,-3.6976,-3.634,-3.5526,1.7116,1.6281,1.5434,1.476,1.3842,1.2888,1.2299,1.1075,0.9835,0.8855,0.0,0.7253,0.681,0.0,0.6049,0.5368,0.0,0.354,0.2631,0.151,0.0278,-0.0942,-0.2073,-0.3387,-0.4699,-0.6016,-0.776,-1.0132,-1.2045,-1.3912,-1.5681,-1.8847,-2.2138,-2.5501,-2.8333,-3.2293,-3.7466,-3.9584,-4.1433,-4.3222,-4.3371,-4.3946,-4.4836,-4.446,-4.4486,-4.4795,-4.4858,0.0,-4.4086,-4.3812,-4.3261,-4.2812,-4.2461,-4.189,-4.1063,-4.1005,-4.0198,-3.9248,-3.9098,-3.8714,-3.815,-3.745,-3.7154,-3.6853,-3.6529,-3.6359,-3.6359,-3.6359,-3.6978,-3.7805,-3.8163,-3.9129,-4.0191,-4.1628,-4.2662,-4.3898,-4.5187,-4.7061,-4.9216,-5.1511,-5.3092,-5.4633,-5.5997,-5.7469,-5.9008,-6.0195,-6.0964,-6.1706,-6.3032,-6.1531,-6.0626,-6.1517,-6.0989,-6.001,-5.8478,-5.7725,-5.6696,-5.5114,-5.3675,-5.2214,-5.0641,-4.9073,-4.7487,-4.6006,-4.4138,-4.2906,-4.2414,-4.0586,-3.9268,-3.8668,-3.7851,-3.6872,2.0197,1.9109,1.8025,1.655,1.5369,1.4437,1.3899,1.2876,0.0,0.0,0.0,0.9581,0.9299,0.8262,0.0,0.6774,0.0,0.0,0.0,0.0,0.1534,0.0,0.0,0.0,0.0,0.0,0.0,0.0,0.0,-1.6731,-1.8184,-2.1328,-2.5702,-3.1485,-3.4461,-3.6925,-3.9042,-4.0666,-4.2226,-4.3686,-4.3937,-4.4537,-4.54,-4.5091,-4.4779,-4.4517,-4.4358,0.0,-4.3153,-4.3086,-4.2672,-4.2013,-4.2266,-4.2114,-4.1618,-4.1138,-4.0873,-4.059,-4.015,-3.9427,-3.8676,-3.799,-3.736,-3.7091,-3.736,-3.7085,-3.6915,-3.7254,-3.7893,-3.8723,-3.9266,-4.0427,-4.1611,-4.2609,-4.3987,-4.5168,-4.6351,-4.8699,-5.0965,-5.2632,-5.4208,-5.5662,-5.6977,-5.8881,-6.0133,-6.044,-6.1447,-6.2606,-6.3127,-6.2885,-6.2727,-6.3135,-6.2747,-6.1893,-6.0713,-5.9659,-5.8401,-5.6925,-5.546,-5.3912,-5.2449,-5.0437,-4.8733,-4.7581,-4.5667,-4.4246,-4.341,-4.155,-4.0365,-4.0036,-3.8885,-3.7773,2.2313,2.135,2.0477,1.9293,1.8195,1.7109,1.613,0.0,0.0,0.0,0.0,1.1281,1.0606,0.0,0.0,0.0,0.0,0.0,0.0,0.0,0.0,0.0,0.0,0.0,0.0,0.0,0.0,0.0,0.0,-1.9696,-2.0897,-2.582,-3.0477,-3.4667,-3.6789,-3.8587,-3.9943,-4.1108,-4.2389,-4.3822,-4.3808,-4.4298,-4.4914,-4.4581,-4.4255,-4.409,-4.4133,0.0,-4.3551,-4.3159,-4.2922,-4.2772,-4.2566,-4.2203,-4.202,-4.1744,-4.1361,-4.0928,-4.1007,-4.0292,-3.9165,-3.9362,-3.8791,-3.7889,-3.8067,-3.8046,-3.8007,-3.8375,-3.9057,-3.9925,-4.0108,-4.1315,-4.2768,-4.37,-4.5686,-4.7431,-4.8168,-4.9994,-5.1915,-5.3282,-5.4827,-5.6236,-5.7648,-5.9586,-6.1009,-6.1568,-6.2694,-6.3571,-6.4075,-6.4426,-6.4729,-6.415,-6.3861,-6.3249,-6.2144,-6.1291,-6.018,-5.8613,-5.719,-5.5624,-5.4219,-5.2292,-5.066,-4.9315,-4.7508,-4.6155,-4.5088,-4.3422,-4.2125,-4.131,-4.0077,-3.9058,2.3801,2.3116,2.2505,2.1841,2.0744,1.9545,1.8286,1.7022,0.0,0.0,0.0,1.2668,0.0,0.0,0.0,0.0,0.0,0.0,0.0,0.0,0.0,0.0,0.0,0.0,0.0,0.0,0.0,0.0,0.0,0.0,-2.4836,-3.0491,-3.4558,-3.6528,-3.7976,-3.9242,-4.0328,-4.1311,-4.24,-4.364,-4.3537,-4.3798,-4.44,-4.3872,-4.3703,-4.3859,-4.3794,0.0,0.0,-4.3192,-4.3112,-4.3392,-4.2697,-4.2427,-4.2326,-4.226,-4.1669,-4.1008,-4.1262,-4.0557,-3.9753,-4.0487,-3.9875,-3.8858,-3.8941,-3.9158,-3.9391,-3.9458,-4.0038,-4.0782,-4.105,-4.2203,-4.3669,-4.4875,-4.6941,-4.8934,-4.9584,-5.0965,-5.2444,-5.3793,-5.5354,-5.6924,-5.8161,-6.0021,-6.1545,-6.2626,-6.3397,-6.4163,-6.4796,-6.5722,-6.5857,-6.4926,-6.4723,-6.4262,-6.345,-6.2484,-6.1334,-6.0143,-5.8517,-5.696,-5.5614,-5.385,-5.2248,-5.0978,-4.9178,-4.788,-4.6927,-4.523,-4.3826,-4.2658,-4.1525,-4.0538,2.4596,2.4215,2.3875,2.3012,2.1902,2.0761,1.9638,0.0,0.0,0.0,1.4922,1.3803,0.0,0.0,0.0,0.0,0.0,0.0,0.0,0.0,0.0,0.0,0.0,0.0,0.0,0.0,0.0,0.0,0.0,0.0,-3.1447,-3.4229,-3.6277,-3.7557,-3.9338,-4.0259,-4.0259,-4.146,-4.2379,-4.3287,-4.3092,-4.3404,-4.4138,-4.3387,-4.3413,-4.394,-4.3492,0.0,0.0,-4.317,-4.2918,-4.2926,-4.2902,-4.2752,-4.2428,-4.2043,-4.1552,-4.0978,-4.0768,-4.0232,-3.9784,-4.0367,-3.9964,-3.9396,-4.0272,-4.0232,-3.9976,-4.0317,-4.0765,-4.1395,-4.2273,-4.2961,-4.3924,-4.6145,-4.7492,-4.8764,-4.9891,-5.1737,-5.345,-5.4485,-5.6582,-5.8366,-5.8859,-6.025,-6.1545,-6.2626,-6.3216,-6.3744,-6.4789,-6.5427,-6.5558,-6.5592,-6.5369,-6.5221,-6.5107,-6.2987,-6.1548,-6.126,-5.9022,-5.7242,-5.6423,-5.4429,-5.3116,-5.2558,-5.038,-4.9093,-4.8521,-4.6419,-4.4978,-4.4086,-4.321,-4.1875,2.4306,2.4214,2.4091,2.4015,2.3116,2.1987,2.0983,0.0,0.0,1.7107,1.5963,1.4794,1.354,0.0,0.0,0.0,0.0,0.0,0.0,0.0,0.0,0.0,0.0,0.0,0.0,0.0,0.0,0.0,0.0,0.0,-3.4807,-3.5734,-3.703,-3.8738,-3.9084,-3.9771,-4.0875,-4.0942,-4.1747,-4.2955,-4.2598,-4.2663,-4.3208,-4.3224,-4.3078,-4.2889,-4.3467,0.0,0.0,-4.35,-4.3106,-4.2814,-4.2276,-4.1999,-4.1519,-4.1504,-4.1202,-4.0811,-4.0759,-4.0253,-3.9447,-3.9941,-3.9874,-3.9748,-4.021,-4.021,-4.0065,-4.0576,-4.132,-4.1889,-4.2585,-4.4064,-4.5857,-4.7338,-4.8601,-4.9751,-5.1025,-5.2507,-5.3878,-5.4893,-5.683,-5.8433,-5.8926,-6.0296,-6.1545,-6.2626,-6.3296,-6.4125,-6.4885,-6.5827,-6.6337,-6.568,-6.5484,-6.5371,-6.4976,-6.3693,-6.2517,-6.1688,-6.0209,-5.894,-5.7479,-5.5782,-5.448,-5.3841,-5.1719,-5.0433,-4.9986,-4.7891,-4.6426,-4.5512,-4.4112,-4.302,2.3356,2.3604,2.3862,2.4438,2.3787,2.2734,0.0,0.0,0.0,1.7786,1.6629,1.5494,1.4037,1.3209,1.2211,0.0,0.0,0.8939,0.0,0.0,0.0,0.0,0.0,0.0,0.0,0.0,0.0,0.0,0.0,0.0,0.0,-3.6168,-3.7135,-3.9418,-3.9074,-3.9428,-4.0878,-4.0711,-4.1156,-4.2116,-4.2041,-4.2193,-4.2514,-4.2708,-4.2755,-4.2616,-4.318,0.0,0.0,-4.3368,-4.312,-4.2562,-4.1979,-4.1421,-4.1131,-4.1128,-4.0841,-4.0382,-4.0613,-4.0154,-3.954,-3.9813,-3.9704,-3.9717,-4.0108,-4.0203,-4.0368,-4.0649,-4.1566,-4.2705,-4.3542,-4.5375,-4.7315,-4.8105,-4.9148,-5.0499,-5.1388,-5.2848,-5.4156,-5.5064,-5.6902,-5.8388,-5.8907,-6.0181,-6.1364,-6.2626,-6.3485,-6.4229,-6.5125,-6.6286,-6.6736,-6.5985,-6.5631,-6.5404,-6.5046,-6.4133,-6.3251,-6.2178,-6.0966,-5.9835,-5.8469,-5.6937,-5.5462,-5.4458,-5.28,-5.1639,-5.101,-4.8929,-4.7335,-4.6497,-4.4762,-4.3699,2.1806,2.2495,2.3207,2.4106,2.3746,2.2973,0.0,0.0,0.0,1.8545,1.7099,1.563,1.4577,1.3453,1.2255,1.1011,1.0043,0.8981,0.7437,0.0,0.0,0.0,0.0,0.0,0.0,0.0,0.0,0.0,0.0,0.0,0.0,-3.5516,-3.6765,-3.9339,-3.9476,-3.9714,-4.0069,-4.0799,-4.0971,-4.0415,-4.1594,-4.2127,-4.1997,-4.1958,-4.2472,0.0,0.0,0.0,0.0,-4.2518,-4.2289,-4.2082,-4.212,-4.1709,-4.1122,-4.1111,-4.0661,-3.9874,-3.9945,-3.9906,-3.982,-3.9884,-3.9523,-3.9377,-3.9705,-4.0359,-4.088,-4.0735,-4.2116,-4.3715,-4.5215,-4.6511,-4.7656,-4.8105,-4.9051,-5.0033,-5.0943,-5.2465,-5.3847,-5.4431,-5.6659,-5.8458,-5.9,-5.9771,-6.1002,-6.2445,-6.3143,-6.4029,-6.5447,-6.6159,-6.6496,-6.6472,-6.6015,-6.5633,-6.5459,-6.4166,-6.3281,-6.3273,-6.0866,-5.9304,-5.8988,-5.7472,-5.6013,-5.4509,-5.3491,-5.2502,-5.1048,-4.9252,-4.7806,-4.6968,-4.5555,-4.4315,1.9832,2.0228,2.0565,2.1083,2.1388,2.1307,2.0706,0.0,0.0,0.0,0.0,1.5945,1.4286,1.3267,1.156,0.8394,0.7151,0.607,0.4578,0.0,0.0,0.0,0.0,0.0,0.0,0.0,0.0,0.0,0.0,0.0,0.0,-3.5859,-3.6687,-3.8342,-3.8246,-3.8638,-3.9741,-4.0294,-4.071,-4.0971,-4.1517,-4.1935,-4.2102,-4.2199,-4.222,0.0,0.0,0.0,0.0,-4.2549,-4.2141,-4.1379,-4.1151,-4.0574,-3.9795,-4.0097,-3.9629,-3.9105,-3.9357,-3.9273,-3.9067,-3.9022,-3.913,-3.9266,-3.977,-4.0253,-4.0855,-4.2321,-4.3098,-4.3995,-4.5178,-4.6072,-4.6993,-4.8136,-4.8811,-4.9648,-5.1286,-5.2503,-5.3665,-5.4461,-5.599,-5.7512,-5.839,-5.9114,-5.9952,-6.1364,-6.2058,-6.282,-6.3532,-6.4188,-6.4497,-6.4841,-6.4698,-6.4847,-6.5053,-6.4366,-6.3514,-6.2823,-6.1724,-6.0608,-5.9382,-5.8189,-5.6882,-5.553,-5.4378,-5.3214,-5.2557,-5.0573,-4.8768,-4.6989,-4.5575,-4.4638,0.0,1.8748,1.9118,1.9712,2.0136,0.0,0.0,0.0,0.0,0.0,0.0,0.0,0.0,1.2991,1.1282,0.8157,0.6693,0.5258,0.3217,0.0,0.0,0.0,0.0,0.0,0.0,0.0,0.0,0.0,0.0,0.0,0.0,-3.5374,-3.5937,-3.688,-3.7211,-3.8003,-3.9192,-3.9627,-4.0041,-4.0377,-4.1019,-4.1492,-4.1575,-4.1903,-4.1834,0.0,0.0,0.0,0.0,-4.1678,-4.1419,-4.0415,-4.0372,-3.9951,-3.9071,-3.9545,-3.9425,-3.8767,-3.8897,-3.8823,-3.8569,-3.826,-3.8393,-3.8823,-3.9634,-4.0303,-4.1138,-4.2725,-4.3422,-4.3914,-4.5049,-4.582,-4.667,-4.7789,-4.8675,-4.9548,-5.1182,-5.2195,-5.3152,-5.4164,-5.5242,-5.6328,-5.7447,-5.8233,-5.9246,-6.0447,-6.116,-6.1918,-6.2673,-6.3326,-6.3816,-6.4181,-6.4364,-6.445,-6.4644,-6.4308,-6.3779,-6.2937,-6.2122,-6.1097,-5.9923,-5.8692,-5.7401,-5.5835,-5.4704,-5.3704,-5.302,-5.0854,-4.8895,-4.6989,-4.5739,-4.5126,0.0,0.0,0.0,0.0,0.0,0.0,0.0,0.0,0.0,0.0,0.0,0.0,0.0,1.256,1.1162,0.9207,0.7586,0.5515,0.0,0.0,0.0,0.0,0.0,0.0,0.0,0.0,0.0,0.0,0.0,0.0,0.0,-3.4269,-3.4653,-3.5172,-3.6436,-3.7456,-3.8337,-3.8874,-3.9087,-3.8899,-4.0069,-4.0666,-4.0745,-4.1064,-4.1086,0.0,0.0,0.0,0.0,-4.0418,-4.004,-3.921,-3.9761,-3.9571,-3.8983,-3.9475,-3.9365,-3.8885,-3.8648,-3.8671,-3.8424,-3.7718,-3.7668,-3.8264,-3.9374,-4.0677,-4.1777,-4.2231,-4.2964,-4.3871,-4.4694,-4.5659,-4.6555,-4.7379,-4.827,-4.9245,-5.0589,-5.1337,-5.2118,-5.345,-5.4125,-5.5136,-5.6509,-5.7489,-5.8521,-5.9536,-6.0401,-6.1452,-6.2328,-6.3343,-6.3833,-6.4062,-6.4426,-6.4416,-6.4115,-6.4091,-6.3899,-6.337,-6.196,-6.091,-6.0393,-5.8982,-5.7398,-5.5386,-5.4826,-5.3802,-5.2424,-5.0241,-4.8519,-4.7236,-4.6168,-4.584,1.4785,0.0,1.5301,1.5129,1.578,0.0,0.0,0.0,0.0,0.0,0.0,0.0,0.0,0.0,0.9227,0.3958,0.1252,-0.1451,-0.4985,0.0,0.0,0.0,0.0,0.0,0.0,0.0,0.0,0.0,0.0,0.0,0.0,-3.406,-3.4445,-3.4506,-3.5353,-3.6164,-3.6844,-3.797,-3.8593,-3.8692,-3.9029,-3.9725,-4.0517,-3.9969,-3.979,0.0,0.0,0.0,-3.9123,-3.9769,-3.9418,-3.8616,-3.9188,-3.8615,-3.7637,-3.8386,-3.8306,-3.7759,-3.7689,-3.7594,-3.7651,-3.7533,-3.7945,-3.8573,-3.8457,-3.9496,-4.0963,-4.2212,-4.2809,-4.339,-4.4336,-4.4867,-4.5509,-4.6555,-4.7183,-4.7935,-4.9272,-4.9927,-5.0973,-5.2866,-5.3539,-5.4127,-5.5446,-5.6464,-5.7489,-5.8498,-5.906,-5.9692,-6.0378,-6.0517,-6.1109,-6.2227,-6.2454,-6.2766,-6.336,-6.3517,-6.3541,-6.337,-6.1605,-6.0557,-6.0393,-5.8982,-5.7558,-5.6445,-5.4856,-5.3454,-5.2425,-5.0558,-4.934,-4.9047,-4.7423,-4.6596,1.2532,1.3125,1.3828,1.3408,1.3826,1.4182,0.0,0.0,0.0,0.0,0.0,0.0,0.0,0.0,0.0,0.2034,-0.0876,0.0,0.0,0.0,0.0,0.0,0.0,0.0,0.0,0.0,0.0,0.0,0.0,0.0,0.0,-3.3849,-3.3997,-3.4341,-3.4867,-3.5395,-3.5857,-3.6988,-3.7709,-3.7979,-3.8109,-3.8566,-3.9265,-3.9091,-3.8925,0.0,0.0,0.0,-3.8281,-3.8707,-3.8415,-3.7824,-3.8037,-3.7529,-3.6841,-3.7325,-3.7233,-3.6897,-3.6867,-3.6732,-3.6644,-3.6809,-3.7292,-3.7837,-3.7785,-3.865,-3.9971,-4.0963,-4.1829,-4.2566,-4.3051,-4.3797,-4.4548,-4.5317,-4.6097,-4.709,-4.8062,-4.869,-4.9511,-5.138,-5.1939,-5.2563,-5.3755,-5.5107,-5.6188,-5.7083,-5.7923,-5.8572,-5.9284,-5.9731,-6.0179,-6.0814,-6.1393,-6.1922,-6.1922,-6.1983,-6.2125,-6.2633,-6.1251,-6.0206,-5.9692,-5.8692,-5.7398,-5.5753,-5.4283,-5.3042,-5.2103,-5.0456,-4.9741,-4.9719,-4.8067,-4.7339,1.065,1.1553,1.257,1.2512,1.2462,1.2401,0.0,0.0,0.0,0.0,0.0,0.0,0.0,0.0,0.0,0.0,0.0,0.0,0.0,0.0,0.0,0.0,0.0,0.0,0.0,0.0,0.0,0.0,0.0,0.0,0.0,-3.3517,-3.3456,-3.4158,-3.4609,-3.4944,-3.5146,-3.5952,-3.652,-3.6909,-3.6974,-3.7278,-3.7687,-3.8214,-3.8024,-3.7394,0.0,0.0,-3.7417,-3.7436,-3.7318,-3.683,-3.6665,-3.6383,-3.6139,-3.629,-3.6321,-3.6169,-3.608,-3.5818,-3.5649,-3.5889,-3.6274,-3.6641,-3.7026,-3.7755,-3.8545,-3.9291,-4.0424,-4.1541,-4.1702,-4.2656,-4.3696,-4.4072,-4.5166,-4.631,-4.6946,-4.7609,-4.8212,-4.9468,-5.0273,-5.1167,-5.2167,-5.3521,-5.4848,-5.57,-5.6528,-5.7584,-5.8526,-5.9319,-5.9715,-5.9529,-6.0798,-6.1168,-6.0544,-6.0299,-6.0615,-6.1414,-6.051,-5.9669,-5.8635,-5.8195,-5.6791,-5.4772,-5.3771,-5.2777,-5.1958,-5.0542,-4.9826,-4.9826,-4.8568,-4.8065,1.0318,0.9956,0.9608,1.0077,1.0098,0.9894,0.0,0.0,0.0,0.0,0.0,0.0,0.0,0.0,0.0,0.0,0.0,0.0,0.0,0.0,0.0,0.0,0.0,0.0,0.0,0.0,0.0,0.0,0.0,0.0,0.0,-3.3004,-3.2995,-3.3092,-3.4212,-3.4574,-3.4159,-3.476,-3.5251,-3.5614,-3.5454,-3.5846,-3.6603,-3.6456,-3.6584,-3.693,0.0,-3.6782,-3.6273,-3.6324,-3.6102,-3.5855,-3.5706,-3.5496,-3.5248,-3.5381,-3.5297,-3.5019,-3.5081,-3.5237,-3.551,-3.5226,-3.5392,-3.5791,-3.5926,-3.6479,-3.7054,-3.7214,-3.8862,-4.0781,-4.124,-4.2047,-4.2719,-4.326,-4.408,-4.5048,-4.6229,-4.664,-4.6989,-4.8191,-4.928,-5.0379,-5.1183,-5.2791,-5.4112,-5.4759,-5.5337,-5.6051,-5.6965,-5.7205,-5.7699,-5.8924,-5.9538,-6.0073,-6.0346,-6.034,-6.0104,-5.9482,-5.889,-5.8264,-5.778,-5.6804,-5.5938,-5.5303,-5.3918,-5.2923,-5.227,-5.1011,-5.0294,-5.0294,-4.9383,-4.8686,0.8645,0.822,0.7845,0.8107,0.8357,0.0,0.0,0.0,0.0,0.0,0.0,0.0,0.0,0.0,0.0,0.0,0.0,0.0,0.0,0.0,0.0,0.0,0.0,0.0,0.0,0.0,0.0,0.0,0.0,0.0,0.0,0.0,-3.2832,-3.3507,-3.3807,-3.3908,-3.3859,-3.3887,-3.4432,-3.5496,-3.5048,-3.5211,-3.5716,-3.577,-3.558,-3.5362,0.0,-3.5704,-3.5222,-3.5479,-3.5263,-3.4784,-3.4758,-3.445,-3.4087,-3.425,-3.425,-3.4107,-3.3973,-3.4115,-3.4251,-3.4098,-3.4513,-3.4894,-3.4722,-3.5431,-3.6128,-3.6235,-3.7963,-3.9845,-3.9845,-4.0971,-4.209,-4.209,-4.3081,-4.414,-4.4803,-4.5594,-4.6492,-4.7343,-4.7996,-4.8751,-5.0097,-5.1564,-5.2958,-5.3728,-5.4333,-5.5199,-5.6207,-5.6445,-5.6798,-5.726,-5.8009,-5.8272,-5.7995,-5.815,-5.8413,-5.846,-5.7711,-5.7286,-5.7056,-5.5937,-5.493,-5.4536,-5.3348,-5.2491,-5.2103,-5.0907,-5.04,-5.04,-4.9572,-4.8784,0.6975,0.6824,0.6645,0.0,0.0,0.0,0.0,0.0,0.0,0.0,0.0,0.0,0.0,0.0,0.0,0.0,0.0,0.0,0.0,0.0,0.0,0.0,0.0,0.0,0.0,0.0,0.0,0.0,0.0,0.0,0.0,0.0,-3.2642,-3.3701,-3.3512,-3.3426,-3.3406,-3.3178,-3.3725,-3.512,-3.4665,-3.4509,-3.4775,-3.5038,-3.4698,-3.405,-3.4735,-3.4665,-3.427,-3.4501,-3.4286,-3.3829,-3.3679,-3.3152,-3.2734,-3.3085,-3.3215,-3.3124,-3.2954,-3.2869,-3.2984,-3.29,-3.34,-3.3744,-3.3483,-3.4361,-3.5248,-3.5265,-3.6923,-3.8785,-3.8761,-3.9755,-4.0897,-4.119,-4.2053,-4.3042,-4.3379,-4.4657,-4.5865,-4.6237,-4.6783,-4.7631,-4.8747,-5.0218,-5.1454,-5.2399,-5.3176,-5.4025,-5.5237,-5.5449,-5.5662,-5.5557,-5.6249,-5.6651,-5.6099,-5.6267,-5.6781,-5.7398,-5.6735,-5.6336,-5.6336,-5.4962,-5.4008,-5.3694,-5.268,-5.2103,-5.1623,-5.0738,-5.04,-5.0231,-4.9401,-4.8716,0.6157,0.6083,0.5903,0.604,0.0,0.0,0.0,0.0,0.0,0.0,0.0,0.0,0.0,0.0,0.0,0.0,0.0,0.0,0.0,0.0,0.0,0.0,0.0,0.0,0.0,0.0,0.0,0.0,0.0,0.0,0.0,0.0,0.0,-3.2544,-3.3503,-3.3409,-3.2111,-3.2718,-3.3129,-3.328,-3.3482,-3.347,-3.3311,-3.364,-3.387,-3.4027,-3.3637,-3.3507,-3.3308,-3.2993,-3.288,-3.2845,-3.2058,-3.1353,-3.0953,-3.1757,-3.1819,-3.1672,-3.1647,-3.1896,-3.2088,-3.189,-3.2022,-3.2325,-3.2223,-3.3035,-3.4088,-3.3964,-3.5536,-3.7549,-3.8425,-3.8423,-3.8573,-4.0644,-4.1016,-4.1211,-4.2387,-4.3298,-4.4018,-4.4661,-4.6156,-4.7174,-4.7208,-4.8725,-5.0121,-5.0739,-5.1049,-5.1885,-5.3443,-5.3166,-5.3205,-5.4441,-5.5054,-5.5759,-5.6555,-5.6099,-5.5809,-5.5563,-5.5348,-5.5348,-5.5348,-5.4109,-5.3313,-5.3313,-5.2367,-5.1623,-5.1097,-5.0569,-5.0231,-4.9742,-4.8887,-4.8372,0.4964,0.5082,0.517,0.0,0.0,0.0,0.0,0.0,0.0,0.0,0.0,0.0,0.0,0.0,0.0,0.0,0.0,0.0,0.0,0.0,0.0,0.0,0.0,0.0,0.0,0.0,0.0,0.0,0.0,0.0,0.0,0.0,0.0,-3.2478,-3.2567,-3.2516,-3.2247,-3.2241,-3.2171,-3.2244,-3.2599,-3.2794,-3.2673,-3.2841,-3.2634,-3.2244,-3.2206,-3.2148,-3.2049,-3.1795,-3.1613,-3.1582,-3.0911,-3.055,-3.047,-3.0516,-3.0374,-3.0158,-2.9793,-2.9807,-3.0001,-2.9837,-3.0362,-3.099,-3.0787,-3.1545,-3.2534,-3.2489,-3.3229,-3.4587,-3.6683,-3.7803,-3.8595,-3.9471,-4.0046,-4.0605,-4.1381,-4.2261,-4.315,-4.4181,-4.5283,-4.6269,-4.6855,-4.7748,-4.8721,-4.9826,-5.0406,-5.1121,-5.2808,-5.2371,-5.2232,-5.2755,-5.3125,-5.3655,-5.4298,-5.3906,-5.3533,-5.3544,-5.4297,-5.4636,-5.449,-5.3303,-5.2535,-5.2367,-5.1688,-5.1097,-5.0738,-5.0231,-4.9742,-4.923,-4.8716,-4.8027,0.3988,0.42,0.4442,0.0,0.0,0.0,0.0,0.0,0.0,0.0,0.0,0.0,0.0,0.0,0.0,0.0,0.0,0.0,0.0,0.0,0.0,0.0,0.0,0.0,0.0,0.0,0.0,0.0,0.0,0.0,0.0,0.0,0.0,-3.1733,-3.1686,-3.1605,-3.149,-3.1304,-3.1266,-3.1297,-3.1525,-3.1757,-3.2196,-3.1927,-3.1607,-3.1034,-3.1085,-3.093,-3.0697,-3.062,-3.0339,-3.0121,-2.9573,-2.9422,-2.9223,-2.9084,-2.8852,-2.839,-2.826,-2.8186,-2.8254,-2.8269,-2.8912,-2.9492,-2.9361,-3.0087,-3.1138,-3.1129,-3.1405,-3.2414,-3.4739,-3.6072,-3.7145,-3.7934,-3.8782,-3.9615,-4.0367,-4.1138,-4.2088,-4.33,-4.4091,-4.4761,-4.5486,-4.6348,-4.7329,-4.8322,-4.9028,-4.9782,-5.1017,-5.0992,-5.0966,-5.1438,-5.1805,-5.2261,-5.2578,-5.2535,-5.2397,-5.2176,-5.3153,-5.3536,-5.3225,-5.2525,-5.1936,-5.1601,-5.1265,-5.076,-5.0231,-4.9912,-4.9401,-4.8887,-4.8372,-4.7681,0.3259,0.3515,0.0,0.0,0.0,0.0,0.0,0.0,0.0,0.0,0.0,0.0,0.0,0.0,0.0,0.0,0.0,0.0,0.0,0.0,0.0,0.0,0.0,0.0,0.0,0.0,0.0,0.0,0.0,0.0,0.0,0.0,-2.9802,-2.9986,-3.1009,-3.0846,-2.9409,-2.9889,-3.0258,-3.0458,-2.9992,-3.0428,-3.1605,-3.1084,-3.0785,-3.0703,-3.0323,-2.9863,-2.9253,-2.9486,-2.9145,-2.8308,-2.8063,-2.7624,-2.7141,-2.7503,-2.716,-2.6661,-2.7041,-2.7173,-2.7173,-2.7173,-2.7421,-2.7831,-2.7831,-2.8871,-2.9997,-2.9997,-3.0338,-3.116,-3.2869,-3.316,-3.3697,-3.6421,-3.7217,-3.7777,-3.9067,-3.9863,-4.0753,-4.1646,-4.22,-4.244,-4.2534,-4.4159,-4.5532,-4.5921,-4.6768,-4.7619,-4.7856,-4.8401,-4.9416,-5.0866,-5.1461,-5.1622,-5.1622,-5.2284,-5.2349,-5.1662,-5.1662,-5.1684,-5.1684,-5.1695,-5.1623,-5.1097,-5.1097,-5.0591,-4.9742,-4.9742,-4.923,-4.8372,-4.7874,-4.7354,0.2479,0.0,0.0,0.0,0.0,0.0,0.0,0.0,0.0,0.0,0.0,0.0,0.0,0.0,0.0,0.0,0.0,0.0,0.0,0.0,0.0,0.0,0.0,0.0,0.0,0.0,0.0,0.0,0.0,0.0,0.0,-2.8635,-2.8849,-3.0,-2.9869,-2.9706,-2.9488,-2.9572,-2.965,-2.9698,-2.9321,-2.9617,-3.0512,-3.0099,-2.9579,-2.8897,-2.8388,-2.8134,-2.7975,-2.779,-2.72,-2.654,-2.633,-2.5898,-2.5357,-2.5452,-2.5212,-2.4924,-2.5294,-2.5384,-2.5375,-2.5633,-2.6107,-2.6612,-2.6624,-2.7289,-2.8056,-2.8297,-2.8493,-2.8991,-3.0575,-3.099,-3.1962,-3.5272,-3.608,-3.6519,-3.7651,-3.8603,-3.9377,-4.0276,-4.1211,-4.201,-4.2393,-4.3088,-4.3976,-4.4634,-4.547,-4.6464,-4.7794,-4.7617,-4.7748,-4.8187,-4.905,-4.974,-4.9778,-5.0184,-5.0383,-5.0183,-5.0205,-5.0665,-5.1695,-5.1725,-5.1455,-5.0569,-5.0569,-5.0061,-4.8716,-4.8716,-4.8372,-4.7334,-4.7354,-4.7007,0.1524,0.0,0.0,0.0,0.0,0.0,0.0,0.0,0.0,0.0,0.0,0.0,0.0,0.0,0.0,0.0,0.0,0.0,0.0,0.0,0.0,0.0,0.0,0.0,0.0,0.0,0.0,0.0,0.0,0.0,0.0,-2.7558,-2.7657,-2.887,-2.8457,-2.8248,-2.836,-2.8287,-2.8476,-2.8728,-2.8371,-2.8508,-2.892,-2.892,-2.8549,-2.8015,-2.7201,-2.6788,-2.6442,-2.5975,-2.5439,-2.5059,-2.4729,-2.4379,-2.4172,-2.4055,-2.3937,-2.3732,-2.3935,-2.3992,-2.4134,-2.4306,-2.4674,-2.5101,-2.5349,-2.5951,-2.6651,-2.7035,-2.7437,-2.7942,-2.9181,-2.9995,-3.1103,-3.3817,-3.4985,-3.5633,-3.6475,-3.7468,-3.8288,-3.9122,-3.9835,-4.0657,-4.1276,-4.1876,-4.2583,-4.334,-4.427,-4.5382,-4.6702,-4.6768,-4.6703,-4.705,-4.7505,-4.7918,-4.8107,-4.8886,-4.9235,-4.935,-4.8941,-4.9394,-5.0681,-5.1065,-5.0903,-5.0061,-5.0061,-4.9721,-4.8716,-4.8544,-4.8027,-4.7354,-4.7007,-4.6832,0.0,0.0,0.0,0.0,0.0,0.0,0.0,0.0,0.0,0.0,0.0,0.0,0.0,0.0,0.0,0.0,0.0,0.0,0.0,0.0,0.0,0.0,0.0,0.0,0.0,0.0,0.0,0.0,0.0,0.0,0.0,-2.6657,-2.6511,-2.7058,-2.6937,-2.678,-2.6589,-2.6588,-2.7002,-2.7723,-2.7478,-2.7311,-2.7314,-2.7638,-2.7726,-2.7473,-2.6354,-2.5486,-2.4878,-2.4098,-2.3694,-2.3631,-2.3146,-2.2999,-2.3262,-2.3043,-2.294,-2.2971,-2.2971,-2.2971,-2.2971,-2.3001,-2.3253,-2.3551,-2.3894,-2.4722,-2.5546,-2.5886,-2.6711,-2.7563,-2.8349,-2.9369,-3.0449,-3.1971,-3.3613,-3.4921,-3.53,-3.6258,-3.7269,-3.7987,-3.8167,-3.8627,-3.9795,-4.0771,-4.1494,-4.1997,-4.3018,-4.4074,-4.519,-4.5555,-4.6073,-4.6416,-4.6379,-4.6342,-4.6826,-4.8006,-4.8908,-4.8909,-4.8026,-4.8011,-4.8831,-4.9796,-5.0079,-4.9679,-4.9721,-4.9401,-4.8887,-4.8544,-4.8027,-4.7528,-4.7181,-4.6658,0.0,0.0,0.0,0.0,0.0,0.0,0.0,0.0,0.0,0.0,0.0,0.0,0.0,0.0,0.0,0.0,0.0,0.0,0.0,0.0,0.0,0.0,0.0,0.0,0.0,0.0,0.0,0.0,0.0,0.0,-2.6609,-2.606,-2.5981,-2.6423,-2.6346,-2.6298,-2.63,-2.6721,-2.694,0.0,-2.6835,-2.6803,-2.6772,-2.7098,-2.6371,-2.5002,-2.4471,-2.3917,-2.3326,-2.2695,-2.2339,-2.2118,-2.149,-2.1033,-2.0633,-2.0647,-2.0681,-2.09,-2.1028,-2.1255,-2.1639,-2.1994,-2.22,-2.2506,-2.3076,-2.3654,-2.4158,-2.473,-2.5049,-2.5501,-2.6371,-2.7221,-2.7989,-2.898,-3.1217,-3.3285,-3.3647,-3.4391,-3.518,-3.5956,-3.6819,-3.7728,-3.8606,-3.9187,-4.0096,-4.1473,-4.1825,-4.2534,-4.3717,-4.4289,-4.4356,-4.376,-4.4732,-4.5602,-4.5869,-4.741,-4.8125,-4.7965,-4.7517,-4.7716,-4.848,-4.9298,-4.9616,-4.9217,-4.9213,-4.8887,-4.8047,-4.7528,-4.7007,-4.6658,-4.6483,-4.6483,0.0,0.0,0.0,0.0,0.0,0.0,0.0,0.0,0.0,0.0,0.0,0.0,0.0,0.0,0.0,0.0,0.0,0.0,0.0,0.0,0.0,0.0,0.0,0.0,0.0,0.0,0.0,0.0,0.0,0.0,-2.6268,-2.5687,-2.5352,-2.5253,-2.5171,-2.5229,-2.5099,-2.5431,-2.5585,-2.5759,-2.566,-2.5416,-2.5068,-2.5594,-2.518,-2.3796,-2.3302,-2.2601,-2.1758,-2.1325,-2.1,-2.055,-2.0237,-1.9909,-1.9676,-1.947,-1.9679,-1.9807,-1.971,-2.0043,-2.0405,-2.055,-2.0832,-2.113,-2.1684,-2.2245,-2.2767,-2.3403,-2.381,-2.4252,-2.4979,-2.5807,-2.6678,-2.7501,-2.9814,-3.193,-3.2245,-3.3256,-3.4202,-3.5045,-3.5701,-3.6594,-3.7662,-3.8401,-3.9487,-4.073,-4.0996,-4.1615,-4.2665,-4.2958,-4.3067,-4.3023,-4.3924,-4.4594,-4.4919,-4.6374,-4.7103,-4.656,-4.6504,-4.6471,-4.6475,-4.7278,-4.8024,-4.8686,-4.8592,-4.822,-4.7701,-4.7181,-4.6832,-4.6658,-4.6133,-4.6133,0.0,0.0,0.0,0.0,0.0,0.0,0.0,0.0,0.0,0.0,0.0,0.0,0.0,0.0,0.0,0.0,0.0,0.0,0.0,0.0,0.0,0.0,0.0,0.0,0.0,0.0,0.0,0.0,0.0,-2.7352,-2.61,-2.5488,-2.4888,-2.4288,-2.4177,-2.4108,-2.4068,-2.3988,-2.4254,-2.4718,-2.4403,-2.3819,-2.3043,-2.3719,-2.3594,-2.2836,-2.2247,-2.129,-2.0197,-2.0008,-1.9506,-1.8851,-1.9066,-1.8905,-1.8713,-1.8564,-1.8687,-1.8782,-1.8578,-1.8714,-1.8988,-1.9029,-1.9386,-1.9771,-2.0086,-2.0808,-2.1427,-2.187,-2.2635,-2.3333,-2.3693,-2.4537,-2.544,-2.6388,-2.836,-3.0283,-3.1066,-3.215,-3.334,-3.4154,-3.474,-3.5619,-3.6683,-3.7854,-3.882,-3.963,-4.0132,-4.0584,-4.1501,-4.144,-4.1814,-4.2981,-4.3221,-4.3565,-4.4102,-4.5346,-4.5886,-4.5185,-4.5169,-4.5048,-4.4618,-4.5263,-4.6233,-4.7935,-4.754,-4.7448,-4.7528,-4.7181,-4.6832,-4.6658,-4.5958,-4.5783,0.0,0.0,0.0,0.0,0.0,0.0,0.0,0.0,0.0,0.0,0.0,0.0,0.0,0.0,0.0,0.0,0.0,0.0,0.0,0.0,0.0,0.0,0.0,0.0,0.0,0.0,0.0,0.0,0.0,0.0,-2.5914,-2.5571,-2.5076,-2.4404,-2.4287,-2.4239,-2.4342,-2.4416,-2.4349,-2.4193,-2.3453,-2.251,-2.1465,-2.1277,-2.1031,-2.0924,-2.0585,-1.9881,-1.8793,-1.8654,-1.8114,-1.7288,-1.7687,-1.7186,-1.6164,-1.6509,-1.6586,-1.6482,-1.6586,-1.7068,-1.7543,-1.7793,-1.8198,-1.8808,-1.9318,-1.9775,-2.0192,-2.0735,-2.1204,-2.1609,-2.2281,-2.2929,-2.3636,-2.4338,-2.5608,-2.7315,-2.9475,-3.0536,-3.1447,-3.2094,-3.3681,-3.5146,-3.5884,-3.6463,-3.7092,-3.794,-3.8199,-3.8523,-3.9415,-3.9942,-4.0617,-4.1319,-4.1867,-4.2495,-4.3129,-4.4488,-4.4816,-4.4156,-4.396,-4.4341,-4.5005,-4.5137,-4.5469,-4.6046,-4.6424,-4.663,-4.7007,-4.6658,-4.6133,-4.5783,-4.5607,-4.5431,0.0,0.0,0.0,0.0,0.0,0.0,0.0,0.0,0.0,0.0,0.0,0.0,0.0,0.0,0.0,0.0,0.0,0.0,0.0,0.0,0.0,0.0,0.0,0.0,0.0,0.0,0.0,0.0,0.0,-2.745,-2.6537,-2.5933,-2.5173,-2.4316,-2.4403,-2.4299,-2.3842,-2.3913,-2.3662,-2.3112,-2.2352,-2.1386,-2.0411,-1.9681,-1.9564,-1.9923,-1.9213,-1.848,-1.7522,-1.7211,-1.6583,-1.5986,-1.6215,-1.6011,-1.5632,-1.5803,-1.5902,-1.6031,-1.6193,-1.6436,-1.6774,-1.6996,-1.7141,-1.7381,-1.7714,-1.8196,-1.8698,-1.9056,-1.9794,-2.0473,-2.0975,-2.1524,-2.2236,-2.3324,-2.4047,-2.4979,-2.7207,-2.8818,-3.0153,-3.1299,-3.2596,-3.3762,-3.4478,-3.5107,-3.5825,-3.6969,-3.7245,-3.7783,-3.893,-3.9435,-3.9881,-4.0579,-4.1251,-4.1776,-4.2249,-4.3326,-4.3852,-4.338,-4.3579,-4.3854,-4.435,-4.4072,-4.4168,-4.4849,-4.5621,-4.5934,-4.5957,-4.5842,-4.5607,-4.5255,-4.4902,-4.5015,0.0,0.0,0.0,0.0,0.0,0.0,0.0,0.0,0.0,0.0,0.0,0.0,0.0,0.0,0.0,0.0,0.0,0.0,0.0,0.0,0.0,0.0,0.0,0.0,0.0,0.0,0.0,0.0,0.0,-2.7517,-2.7182,-2.6428,-2.5462,-2.4464,-2.4554,-2.4221,-2.3479,-2.3157,-2.2484,-2.1651,-2.0823,-1.999,-1.8972,-1.8323,-1.8108,-1.8406,-1.7681,-1.6914,-1.6177,-1.5771,-1.5345,-1.4807,-1.504,-1.5016,-1.5032,-1.5095,-1.5143,-1.5234,-1.5676,-1.5798,-1.5822,-1.6156,-1.6205,-1.6099,-1.6311,-1.6742,-1.7252,-1.755,-1.8499,-1.9367,-1.9679,-2.0354,-2.1118,-2.226,-2.2617,-2.3518,-2.5806,-2.7712,-2.9418,-3.0644,-3.1598,-3.2395,-3.3157,-3.4042,-3.4848,-3.5857,-3.6324,-3.6935,-3.8166,-3.8567,-3.8986,-3.9699,-4.0276,-4.0773,-4.1059,-4.1987,-4.2584,-4.2249,-4.2939,-4.3209,-4.3031,-4.3048,-4.3361,-4.3994,-4.4875,-4.5203,-4.4971,-4.5278,-4.5255,-4.4725,-4.437,-4.4595,0.0,0.0,0.0,0.0,0.0,0.0,0.0,0.0,0.0,0.0,0.0,0.0,0.0,0.0,0.0,0.0,0.0,0.0,0.0,0.0,0.0,0.0,0.0,0.0,0.0,0.0,0.0,0.0,0.0,-2.7696,-2.7441,-2.6832,-2.6115,-2.5289,-2.4578,-2.4015,-2.3729,-2.1992,-2.0617,-1.957,-1.8844,-1.7952,-1.6868,-1.6586,-1.6251,-1.5719,-1.5657,-1.522,-1.4529,-1.4714,-1.4276,-1.3625,-1.4507,-1.4202,-1.3311,-1.3754,-1.3698,-1.3367,-1.415,-1.4424,-1.4504,-1.4987,-1.5244,-1.5565,-1.5565,-1.5862,-1.6344,-1.6709,-1.7453,-1.8199,-1.8468,-1.909,-1.9891,-2.0628,-2.1555,-2.3015,-2.6042,-2.7736,-2.8885,-2.9687,-3.0737,-3.1653,-3.245,-3.3256,-3.3937,-3.4374,-3.4793,-3.5368,-3.6105,-3.6649,-3.7228,-3.8097,-3.8778,-3.9261,-3.9375,-4.053,-4.0977,-4.0135,-4.1413,-4.1875,-4.119,-4.2345,-4.3008,-4.3046,-4.3841,-4.4466,-4.4864,-4.4883,-4.4725,-4.4193,-4.4193,-4.4238,0.0,0.0,0.0,0.0,0.0,0.0,0.0,0.0,0.0,0.0,0.0,0.0,0.0,0.0,0.0,0.0,0.0,0.0,0.0,0.0,0.0,0.0,0.0,0.0,0.0,0.0,0.0,0.0,0.0,0.0,-2.7477,-2.6986,-2.635,-2.5278,-2.5093,-2.425,-2.2927,-2.136,-2.025,-1.9693,-1.8131,-1.716,-1.6499,-1.536,-1.4589,-1.415,-1.3734,-1.3699,-1.4097,-1.3826,-1.3329,-1.2852,-1.328,-1.3311,-1.2969,-1.3467,-1.3457,-1.3366,-1.4104,-1.4107,-1.3954,-1.433,-1.4494,-1.4614,-1.4833,-1.5122,-1.5341,-1.5646,-1.6553,-1.7375,-1.772,-1.8406,-1.9382,-2.0699,-2.1686,-2.2792,-2.4417,-2.6312,-2.7855,-2.8391,-2.9258,-3.0248,-3.0651,-3.1797,-3.2747,-3.3155,-3.397,-3.477,-3.573,-3.6028,-3.6504,-3.7219,-3.8288,-3.8861,-3.886,-3.9853,-4.0368,-4.0281,-4.0743,-4.1162,-4.1512,-4.1635,-4.2087,-4.2873,-4.3019,-4.3392,-4.3977,-4.4239,-4.4193,-4.3678,-4.3678,-4.3829,0.0,0.0,0.0,0.0,0.0,0.0,0.0,0.0,0.0,0.0,0.0,0.0,0.0,0.0,0.0,0.0,0.0,0.0,0.0,0.0,0.0,0.0,0.0,0.0,0.0,0.0,0.0,0.0,0.0,0.0,-2.7375,-2.6975,-2.6149,-2.4721,-2.4381,-2.3473,-2.178,-2.055,-1.9556,-1.8782,-1.7235,-1.6187,-1.5623,-1.4422,-1.3568,-1.3062,-1.2587,-1.2789,-1.3355,-1.2907,-1.252,-1.213,-1.2363,-1.2459,-1.2468,-1.2845,-1.3047,-1.3088,-1.3413,-1.3541,-1.3439,-1.3692,-1.3847,-1.3992,-1.4075,-1.4417,-1.4779,-1.5003,-1.5688,-1.6542,-1.6796,-1.7591,-1.8593,-2.0026,-2.1122,-2.2029,-2.2794,-2.4918,-2.6841,-2.7259,-2.8353,-2.935,-2.9716,-3.1007,-3.1951,-3.2331,-3.3156,-3.4028,-3.4706,-3.5369,-3.5818,-3.6224,-3.7502,-3.8195,-3.8042,-3.8788,-3.9384,-3.9486,-3.9764,-4.0316,-4.0692,-4.0787,-4.128,-4.2234,-4.2051,-4.2324,-4.3078,-4.353,-4.3481,-4.2945,-4.309,-4.3379,0.0,0.0,0.0,0.0,0.0,0.0,0.0,0.0,0.0,0.0,0.0,0.0,0.0,0.0,0.0,0.0,0.0,0.0,0.0,0.0,0.0,0.0,0.0,0.0,0.0,0.0,0.0,0.0,0.0,-2.8267,-2.7123,-2.6807,-2.5639,-2.3505,-2.2585,-2.1474,-2.0267,-1.9374,-1.8183,-1.6723,-1.5817,-1.507,-1.4212,-1.3724,-1.3073,-1.2446,-1.2405,-1.2309,-1.2099,-1.2053,-1.1865,-1.1426,-1.1848,-1.1847,-1.1687,-1.191,-1.2142,-1.2274,-1.2177,-1.2496,-1.2966,-1.2736,-1.3102,-1.3598,-1.3487,-1.3966,-1.455,-1.455,-1.5105,-1.5691,-1.5701,-1.6621,-1.7863,-1.8896,-1.9851,-2.0742,-2.1502,-2.3738,-2.5712,-2.653,-2.772,-2.9006,-2.9778,-3.0711,-3.1637,-3.2028,-3.2435,-3.2824,-3.3103,-3.4212,-3.499,-3.499,-3.6457,-3.7276,-3.6796,-3.7535,-3.7845,-3.7365,-3.8581,-3.9012,-3.8518,-3.9618,-4.0433,-4.0859,-4.1231,-4.1622,-4.2029,-4.2586,-4.2586,-4.2065,-4.2473,-4.3058,-1.8136,0.0,0.0,0.0,0.0,0.0,0.0,0.0,0.0,0.0,0.0,0.0,0.0,0.0,0.0,0.0,0.0,0.0,0.0,0.0,0.0,0.0,0.0,0.0,0.0,0.0,0.0,0.0,-2.8328,-2.7364,-2.5909,-2.453,-2.3352,-2.2582,-2.1888,-2.1003,-1.992,-1.8918,-1.7733,-1.6511,-1.5207,-1.4287,-1.3701,-1.2996,-1.263,-1.2405,-1.2066,-1.1773,-1.1636,-1.1731,-1.1773,-1.161,-1.1754,-1.1752,-1.1602,-1.1885,-1.1958,-1.2097,-1.1977,-1.2165,-1.2393,-1.2427,-1.2714,-1.2985,-1.3075,-1.3432,-1.3766,-1.4014,-1.4452,-1.5228,-1.6602,-1.726,-1.7871,-1.903,-1.9739,-2.0386,-2.143,-2.2688,-2.4072,-2.5375,-2.6565,-2.7589,-2.861,-2.9645,-3.0559,-3.1213,-3.1873,-3.2364,-3.2806,-3.3679,-3.4162,-3.4162,-3.5557,-3.6487,-3.6332,-3.7062,-3.7525,-3.7365,-3.7988,-3.8398,-3.85,-3.9103,-3.9884,-4.0859,-4.0983,-4.1178,-4.1506,-4.2331,-4.2655,-4.2491,-4.2777,-4.3012,0.0,0.0,0.0,0.0,0.0,0.0,0.0,0.0,0.0,0.0,0.0,0.0,0.0,0.0,0.0,0.0,0.0,0.0,0.0,0.0,0.0,0.0,0.0,0.0,0.0,0.0,0.0,-2.805,-2.7526,-2.6293,-2.4433,-2.2658,-2.1491,-2.1262,-2.0687,-1.992,-1.8877,-1.8039,-1.706,-1.598,-1.4723,-1.3903,-1.3456,-1.2822,-1.2534,-1.2393,-1.2066,-1.1939,-1.1822,-1.1868,-1.1765,-1.162,-1.1762,-1.1656,-1.16,-1.1725,-1.1773,-1.1765,-1.1815,-1.2003,-1.2194,-1.2235,-1.2518,-1.2882,-1.296,-1.3152,-1.3427,-1.368,-1.4134,-1.495,-1.6491,-1.6949,-1.7347,-1.8634,-1.9197,-1.9751,-2.1032,-2.2024,-2.3046,-2.4609,-2.5735,-2.6835,-2.7995,-2.906,-2.9867,-3.0531,-3.1338,-3.2017,-3.2228,-3.3107,-3.3634,-3.381,-3.4918,-3.5709,-3.5867,-3.6131,-3.6459,-3.6789,-3.699,-3.737,-3.7917,-3.8472,-3.9149,-3.9982,-4.0138,-4.0428,-4.0658,-4.1779,-4.2241,-4.2203,-4.2073,-4.2158,0.0,0.0,-2.0508,0.0,0.0,0.0,-2.3924,-2.4237,0.0,0.0,0.0,0.0,0.0,0.0,0.0,0.0,0.0,0.0,0.0,0.0,0.0,0.0,0.0,0.0,0.0,-2.8339,-2.7865,-2.7025,-2.6319,-2.4961,-2.2844,-2.1126,-2.0019,-1.9654,-1.9056,-1.8343,-1.7495,-1.6938,-1.6235,-1.5399,-1.4401,-1.3755,-1.3427,-1.3095,-1.2758,-1.2531,-1.2574,-1.2574,-1.2468,-1.2321,-1.2026,-1.1599,-1.1889,-1.1805,-1.1671,-1.1769,-1.172,-1.1603,-1.1642,-1.1904,-1.2362,-1.2127,-1.249,-1.2906,-1.2868,-1.3046,-1.3431,-1.3561,-1.4077,-1.4925,-1.5817,-1.6231,-1.6635,-1.7792,-1.841,-1.8959,-2.0504,-2.1463,-2.2632,-2.4173,-2.5348,-2.6487,-2.7685,-2.8607,-2.9278,-3.0003,-3.0806,-3.1461,-3.1525,-3.2515,-3.3249,-3.3613,-3.4359,-3.5002,-3.5401,-3.5151,-3.5181,-3.5904,-3.5825,-3.619,-3.6861,-3.7787,-3.82,-3.8585,-3.8987,-3.9358,-3.9686,-4.0999,-4.1577,-4.1347,-4.0983,-4.0991,0.0,0.0,0.0,0.0,0.0,0.0,-2.3819,-2.4282,0.0,0.0,0.0,0.0,0.0,0.0,0.0,0.0,0.0,0.0,0.0,0.0,0.0,0.0,0.0,0.0,0.0,-2.6607,-2.5935,-2.5161,-2.352,-2.1944,-2.0217,-1.9525,-1.891,-1.8013,-1.7725,-1.7338,-1.6951,-1.6405,-1.5719,-1.4826,-1.4207,-1.3667,-1.3179,-1.3281,-1.3204,-1.3091,-1.3487,-1.3565,-1.3281,-1.3479,-1.3233,-1.2708,-1.2384,-1.2353,-1.2529,-1.2172,-1.21,-1.2212,-1.1623,-1.1872,-1.2332,-1.2306,-1.2287,-1.2481,-1.2791,-1.264,-1.2663,-1.3206,-1.4078,-1.5128,-1.5753,-1.6069,-1.6501,-1.7524,-1.8159,-1.8911,-1.9993,-2.1188,-2.2373,-2.3511,-2.4525,-2.5703,-2.7083,-2.7515,-2.8109,-2.9323,-2.966,-3.0253,-3.1474,-3.2083,-3.2414,-3.2498,-3.3751,-3.4384,-3.4149,-3.4501,-3.4903,-3.5029,-3.551,-3.5906,-3.614,-3.7119,-3.7849,-3.8213,-3.886,-3.9241,-3.9686,-4.0324,-4.0707,-4.0967,-4.1073,-4.1238,0.0,0.0,0.0,-2.3299,0.0,0.0,0.0,-2.4933,0.0,0.0,0.0,0.0,0.0,0.0,0.0,0.0,0.0,0.0,0.0,0.0,0.0,0.0,0.0,0.0,0.0,-2.447,-2.35,-2.2284,-2.1101,-1.9849,-1.8778,-1.8177,-1.7525,-1.6722,-1.6466,-1.6114,-1.5658,-1.5224,-1.4883,-1.4412,-1.3959,-1.3642,-1.3642,-1.3832,-1.3879,-1.3879,-1.4218,-1.441,-1.4434,-1.4234,-1.4166,-1.4116,-1.3217,-1.2856,-1.2852,-1.2434,-1.2346,-1.2323,-1.2051,-1.2161,-1.2358,-1.2342,-1.2292,-1.2323,-1.249,-1.2399,-1.2421,-1.3189,-1.3905,-1.451,-1.5271,-1.5791,-1.6284,-1.7317,-1.797,-1.8789,-2.0233,-2.1288,-2.2376,-2.3495,-2.4654,-2.5798,-2.6666,-2.7051,-2.7595,-2.8837,-2.922,-2.9738,-3.0909,-3.1504,-3.204,-3.2372,-3.2877,-3.353,-3.3975,-3.4017,-3.4128,-3.4687,-3.5059,-3.5515,-3.606,-3.6927,-3.7663,-3.8219,-3.8396,-3.8385,-3.8553,-3.8906,-3.9449,-4.0394,-4.0174,-4.0141,0.0,0.0,0.0,0.0,0.0,-2.5385,0.0,0.0,0.0,0.0,0.0,0.0,0.0,0.0,0.0,0.0,0.0,0.0,0.0,0.0,0.0,0.0,0.0,0.0,0.0,-2.1707,-2.0461,-1.9319,-1.8628,-1.802,-1.7579,-1.6747,-1.6053,-1.5459,-1.5252,-1.4815,-1.4385,-1.4169,-1.4083,-1.4126,-1.3677,-1.3698,-1.4256,-1.4426,-1.4567,-1.4755,-1.4965,-1.5144,-1.5429,-1.4866,-1.4872,-1.5105,-1.3927,-1.34,-1.3186,-1.2687,-1.243,-1.2371,-1.2297,-1.2365,-1.2376,-1.2261,-1.2197,-1.2226,-1.2117,-1.2124,-1.244,-1.3169,-1.3641,-1.3956,-1.4685,-1.5434,-1.6158,-1.6885,-1.7707,-1.871,-2.0545,-2.1407,-2.2242,-2.3488,-2.4795,-2.5772,-2.6326,-2.6831,-2.7477,-2.8451,-2.9034,-2.9616,-3.0484,-3.1165,-3.1712,-3.2375,-3.2307,-3.2698,-3.3785,-3.3444,-3.3597,-3.4451,-3.4486,-3.4997,-3.589,-3.666,-3.7382,-3.8023,-3.7734,-3.7351,-3.7241,-3.766,-3.8384,-3.9628,-3.901,-3.8776,0.0,0.0,0.0,0.0,-2.5894,0.0,0.0,0.0,-2.7166,-2.6672,0.0,0.0,0.0,0.0,0.0,0.0,0.0,0.0,0.0,0.0,0.0,0.0,0.0,0.0,0.0,0.0,-1.6908,-1.7129,-1.6022,-1.5331,-1.5376,-1.4768,-1.4307,-1.3986,-1.364,-1.3532,-1.3423,-1.3423,-1.3634,-1.4161,-1.3821,-1.394,-1.4503,-1.5021,-1.5233,-1.5277,-1.5941,-1.6172,-1.5817,-1.5696,-1.5268,-1.4375,-1.3996,-1.4014,-1.4134,-1.3059,-1.2716,-1.2759,-1.2005,-1.1949,-1.2268,-1.2013,-1.2165,-1.2166,-1.1569,-1.1901,-1.2372,-1.2676,-1.3458,-1.4343,-1.4514,-1.5404,-1.6415,-1.6434,-1.7258,-1.8386,-1.9472,-2.0585,-2.17,-2.2806,-2.413,-2.5381,-2.6011,-2.6666,-2.7541,-2.8542,-2.8721,-2.9478,-3.1192,-3.122,-3.1168,-3.1548,-3.2192,-3.2577,-3.2665,-3.3178,-3.3694,-3.4135,-3.4318,-3.4656,-3.5003,-3.5481,-3.5991,-3.6344,-3.665,-3.6834,-3.6865,-3.7318,-3.7847,-3.7893,-3.8231,-3.8203,0.0,0.0,0.0,0.0,0.0,0.0,-2.7461,0.0,-2.7268,0.0,0.0,0.0,0.0,0.0,0.0,0.0,-2.1014,0.0,0.0,0.0,0.0,0.0,0.0,0.0,0.0,0.0,0.0,0.0,0.0,-1.3357,-1.3416,-1.3207,-1.294,-1.2753,-1.298,-1.2989,-1.2772,-1.3327,-1.3658,-1.3871,-1.4158,-1.4582,-1.516,-1.5514,-1.558,-1.5611,-1.6064,-1.5897,-1.5492,-1.5373,-1.4913,-1.4196,-1.3587,-1.3457,-1.3396,-1.2523,-1.2489,-1.2589,-1.197,-1.1769,-1.1712,-1.1348,-1.1129,-1.1208,-1.1351,-1.1537,-1.1864,-1.2466,-1.317,-1.3964,-1.4019,-1.5049,-1.6075,-1.625,-1.725,-1.8571,-1.9667,-2.0886,-2.2052,-2.3252,-2.4232,-2.5149,-2.5772,-2.6583,-2.7421,-2.826,-2.867,-2.9147,-3.0075,-3.0663,-3.0941,-3.122,-3.1934,-3.2372,-3.2697,-3.3259,-3.364,-3.3651,-3.4034,-3.4576,-3.508,-3.553,-3.5837,-3.6158,-3.6509,-3.6579,-3.6586,-3.6669,-3.6803,-3.6603,-3.7341,-3.7795,-2.4944,0.0,0.0,0.0,0.0,0.0,0.0,0.0,0.0,0.0,0.0,0.0,0.0,0.0,0.0,-2.0671,0.0,0.0,0.0,0.0,0.0,0.0,0.0,0.0,0.0,0.0,0.0,-1.2002,-1.1475,-1.1236,-1.1371,-1.1265,-1.1283,-1.1485,-1.2027,-1.2299,-1.2311,-1.3015,-1.3628,-1.3808,-1.4245,-1.4785,-1.5324,-1.5483,-1.5546,-1.5543,-1.5772,-1.5455,-1.4852,-1.4857,-1.4352,-1.3772,-1.3149,-1.2712,-1.2396,-1.2119,-1.2204,-1.2306,-1.2016,-1.1688,-1.1523,-1.0945,-1.0825,-1.104,-1.1366,-1.1567,-1.1762,-1.2553,-1.3144,-1.367,-1.3854,-1.4982,-1.5955,-1.6268,-1.7495,-1.8738,-1.9914,-2.0908,-2.2137,-2.32,-2.4067,-2.4919,-2.5531,-2.6451,-2.7473,-2.8186,-2.8675,-2.9074,-2.9665,-3.034,-3.0759,-3.107,-3.167,-3.2235,-3.2713,-3.3241,-3.3502,-3.3442,-3.392,-3.4393,-3.4985,-3.5136,-3.5469,-3.5801,-3.5945,-3.6071,-3.6031,-3.5759,-3.5687,-3.5607,-3.64,-3.6809,0.0,0.0,0.0,-2.5339,0.0,0.0,0.0,0.0,-2.7402,0.0,0.0,0.0,0.0,-2.3094,-2.1753,-2.0473,-1.977,0.0,0.0,0.0,0.0,0.0,0.0,0.0,0.0,0.0,0.0,-0.9041,-0.8466,-0.833,-0.91,-0.8905,-0.9195,-1.0107,-1.0642,-1.125,-1.1854,-1.2534,-1.3298,-1.4143,-1.3784,-1.4013,-1.4683,-1.4842,-1.4789,-1.4638,-1.5252,-1.5156,-1.4426,-1.4414,-1.3917,-1.3108,-1.2467,-1.2073,-1.1931,-1.1938,-1.2045,-1.2187,-1.1756,-1.1701,-1.1677,-1.1384,-1.163,-1.2101,-1.1932,-1.2172,-1.2542,-1.2847,-1.3248,-1.372,-1.4039,-1.5154,-1.6273,-1.6748,-1.77,-1.8774,-1.9671,-2.0443,-2.1346,-2.2499,-2.3376,-2.4402,-2.5546,-2.6586,-2.7426,-2.8186,-2.883,-2.9737,-3.0854,-3.068,-3.0681,-3.1394,-3.1644,-3.2062,-3.238,-3.3063,-3.3597,-3.3769,-3.3907,-3.4098,-3.4441,-3.422,-3.4373,-3.4695,-3.4624,-3.4546,-3.486,-3.48,-3.4717,-3.5011,-3.5011,-3.5011,0.0,0.0,-2.7133,-2.6056,0.0,0.0,0.0,0.0,0.0,0.0,0.0,0.0,0.0,-2.2505,-2.1094,-1.9586,-1.8331,-1.6816,0.0,0.0,0.0,0.0,0.0,0.0,0.0,0.0,0.0,-0.6941,-0.6569,-0.6464,-0.6654,-0.7297,-0.7922,-0.8588,-0.9884,-1.072,-1.1301,-1.2472,-1.3122,-1.3204,-1.3853,-1.4113,-1.3879,-1.4155,-1.4166,-1.3998,-1.4173,-1.3813,-1.3325,-1.3311,-1.2917,-1.2186,-1.2239,-1.2088,-1.1952,-1.1671,-1.1775,-1.2208,-1.1873,-1.1857,-1.1851,-1.1345,-1.1252,-1.1498,-1.194,-1.2253,-1.2529,-1.3044,-1.3499,-1.4045,-1.4261,-1.5038,-1.5938,-1.6486,-1.7573,-1.8672,-1.9573,-2.0694,-2.18,-2.2934,-2.395,-2.4665,-2.5461,-2.6673,-2.7679,-2.8111,-2.8882,-2.9488,-2.9873,-3.0162,-3.0383,-3.034,-3.1399,-3.2126,-3.2094,-3.2834,-3.3168,-3.3284,-3.2999,-3.3032,-3.3532,-3.35,-3.3554,-3.4041,-3.4361,-3.4478,-3.4576,-3.4506,-3.4303,-3.4413,-3.4231,-3.4619,-2.5896,-2.6591,0.0,-2.6019,-2.6572,0.0,-2.5158,0.0,-2.5558,0.0,0.0,0.0,0.0,-2.1993,-2.0532,-1.8824,-1.7269,-1.5299,0.0,-0.942,0.0,0.0,0.0,0.0,0.0,0.0,-0.5325,-0.463,-0.4776,-0.486,0.0,0.0,-0.6386,-0.7327,-0.8709,-0.9913,-1.0721,-1.1879,-1.2544,-1.2559,-1.3248,-1.3491,-1.3043,-1.322,-1.3193,-1.3027,-1.3101,-1.3019,-1.2733,-1.272,-1.2497,-1.2219,-1.2417,-1.2544,-1.2543,-1.2059,-1.2137,-1.2453,-1.2213,-1.2387,-1.2553,-1.1991,-1.1927,-1.2181,-1.2635,-1.2794,-1.29,-1.337,-1.3645,-1.4041,-1.4607,-1.5231,-1.5975,-1.6647,-1.7743,-1.8837,-1.9838,-2.0955,-2.2054,-2.3057,-2.4088,-2.4957,-2.5328,-2.6565,-2.7565,-2.8037,-2.8775,-2.9345,-2.9472,-2.9965,-3.0213,-2.9906,-3.1183,-3.2044,-3.1972,-3.2525,-3.2789,-3.2773,-3.254,-3.2546,-3.2959,-3.3112,-3.3331,-3.3625,-3.3921,-3.4045,-3.4156,-3.3755,-3.3506,-3.3614,-3.3224,-3.3413]},{"header":{"parameterUnit":"m.s-1","parameterCategory":1,"la1":30.6,"la2":29.2853,"lo1":-89.7004,"lo2":-87.6739,"dy":0.0162,"dx":0.0183,"nx":112,"ny":82,"refTime":"2023-05-02T00:00:00:Z","depth":0,"parameterNumber":3,"parameterNumberName":"V-component_of_WINDS"},"data":[0.0,0.0,0.0,0.0,0.0,0.0,0.0,0.0,0.0,0.0,0.0,0.0,0.0,0.0,0.0,0.0,0.0,0.0,0.0,0.0,0.0,0.0,0.0,0.0,0.0,0.0,0.0,0.0,0.0,0.0,0.0,0.0,0.0,0.0,0.0,0.0,0.0,0.0,0.0,0.0,0.0,0.0,0.0,0.0,0.0,0.0,0.0,0.0,0.0,0.0,0.0,0.0,0.0,0.0,0.0,0.0,0.0,0.0,0.0,0.0,0.0,0.0,0.0,0.0,0.0,0.0,0.0,0.0,0.0,0.0,0.0,0.0,0.0,0.0,0.0,0.0,0.0,0.0,0.0,0.0,0.0,0.0,0.0,0.0,0.0,0.0,0.0,0.0,0.0,0.0,-1.9782,-2.2205,-2.6385,-2.9607,-3.1086,-3.1866,-3.1951,-3.108,0.0,0.0,0.0,0.0,0.0,0.0,0.0,0.0,0.0,0.0,0.0,0.0,0.0,0.0,0.0,0.0,0.0,0.0,0.0,0.0,0.0,0.0,0.0,0.0,0.0,0.0,0.0,0.0,0.0,0.0,0.0,0.0,0.0,0.0,0.0,0.0,0.0,0.0,0.0,0.0,0.0,0.0,0.0,0.0,0.0,0.0,0.0,0.0,0.0,0.0,0.0,0.0,0.0,0.0,0.0,0.0,0.0,0.0,0.0,0.0,0.0,0.0,0.0,0.0,0.0,0.0,0.0,0.0,0.0,0.0,0.0,0.0,0.0,0.0,0.0,0.0,0.0,0.0,0.0,0.0,0.0,0.0,0.0,0.0,0.0,0.0,0.0,0.0,0.0,0.0,0.0,0.0,0.0,0.0,0.0,0.0,0.0,0.0,0.0,0.0,0.0,0.0,0.0,0.0,-1.9653,-2.4981,-2.7569,-2.9658,-3.1605,-3.1811,-3.1544,-3.0867,0.0,0.0,0.0,0.0,0.0,0.0,0.0,0.0,0.0,0.0,0.0,0.0,0.0,0.0,0.0,0.0,0.0,0.0,0.0,0.0,0.0,0.0,0.0,0.0,0.0,0.0,0.0,0.0,0.0,0.0,0.0,0.0,0.0,0.0,0.0,0.0,0.0,0.0,0.0,0.0,0.0,0.0,0.0,0.0,0.0,0.0,0.0,0.0,0.0,0.0,0.0,0.0,0.0,0.0,0.0,0.0,0.0,0.0,0.0,0.0,0.0,0.0,0.0,0.0,0.0,0.0,0.0,0.0,0.0,0.0,0.0,0.0,0.0,0.0,0.0,0.0,0.0,0.0,0.0,0.0,0.0,0.0,0.0,0.0,0.0,0.0,0.0,0.0,0.0,0.0,0.0,0.0,0.0,0.0,0.0,0.0,0.0,0.0,0.0,0.0,0.0,0.0,0.0,-1.8208,-2.0893,-2.5134,-2.706,-2.894,-3.1137,-3.1219,-3.0916,-3.03,-2.9607,0.0,0.0,0.0,0.0,0.0,0.0,0.0,0.0,0.0,0.0,0.0,0.0,0.0,0.0,0.0,0.0,0.0,0.0,0.0,0.0,0.0,0.0,0.0,0.0,0.0,0.0,0.0,0.0,0.0,0.0,0.0,0.0,0.0,0.0,0.0,0.0,0.0,0.0,0.0,0.0,0.0,0.0,0.0,0.0,0.0,0.0,0.0,0.0,0.0,0.0,0.0,0.0,0.0,0.0,0.0,0.0,0.0,0.0,0.0,0.0,0.0,0.0,0.0,0.0,0.0,0.0,0.0,0.0,0.0,0.0,0.0,0.0,0.0,0.0,0.0,0.0,0.0,0.0,0.0,0.0,0.0,0.0,0.0,0.0,0.0,0.0,0.0,0.0,0.0,0.0,0.0,0.0,0.0,0.0,0.0,0.0,0.0,0.0,0.0,0.0,0.0,0.0,-1.9865,-2.2141,-2.4824,-2.6553,-2.8429,-3.0664,-3.0664,-3.0353,-2.987,-2.8443,0.0,0.0,0.0,0.0,0.0,0.0,0.0,0.0,0.0,0.0,0.0,0.0,0.0,0.0,0.0,0.0,0.0,0.0,0.0,0.0,0.0,0.0,0.0,0.0,0.0,0.0,0.0,0.0,0.0,0.0,0.0,0.0,0.0,0.0,0.0,0.0,0.0,0.0,0.0,0.0,0.0,0.0,0.0,0.0,0.0,0.0,0.0,0.0,0.0,0.0,0.0,0.0,0.0,0.0,0.0,0.0,0.0,0.0,0.0,0.0,0.0,0.0,0.0,0.0,0.0,0.0,0.0,0.0,0.0,0.0,0.0,0.0,0.0,0.0,0.0,0.0,0.0,0.0,0.0,0.0,0.0,0.0,0.0,0.0,0.0,0.0,0.0,0.0,0.0,0.0,0.0,0.0,0.0,0.0,0.0,0.0,0.0,0.0,0.0,0.0,0.0,0.0,-2.0425,-2.2618,-2.4972,-2.7006,-2.8926,-3.0715,-3.0526,-3.0171,-2.9993,-2.7683,0.0,0.0,0.0,0.0,0.0,0.0,0.0,0.0,0.0,0.0,0.0,0.0,0.0,0.0,0.0,0.0,0.0,0.0,0.0,0.0,0.0,0.0,0.0,0.0,0.0,0.0,0.0,0.0,0.0,0.0,0.0,0.0,0.0,0.0,0.0,0.0,0.0,0.0,0.0,0.0,0.0,0.0,0.0,0.0,0.0,0.0,0.0,0.0,0.0,0.0,0.0,0.0,0.0,0.0,0.0,0.0,0.0,0.0,0.0,0.0,0.0,0.0,0.0,0.0,0.0,0.0,0.0,0.0,0.0,0.0,0.0,0.0,0.0,0.0,0.0,0.0,0.0,0.0,0.0,0.0,0.0,0.0,0.0,0.0,0.0,0.0,0.0,0.0,0.0,0.0,0.0,0.0,0.0,0.0,0.0,0.0,0.0,0.0,0.0,0.0,0.0,0.0,-2.1146,-2.3168,0.0,-2.7176,-2.9165,-3.073,-3.0754,-3.0294,-2.9597,0.0,0.0,0.0,0.0,0.0,0.0,0.0,0.0,0.0,0.0,0.0,0.0,0.0,0.0,0.0,0.0,0.0,0.0,0.0,0.0,0.0,0.0,0.0,0.0,0.0,0.0,0.0,0.0,0.0,0.0,0.0,0.0,0.0,0.0,0.0,0.0,0.0,0.0,0.0,0.0,0.0,0.0,0.0,0.0,0.0,0.0,0.0,0.0,0.0,0.0,0.0,0.0,0.0,0.0,0.0,0.0,0.0,0.0,0.0,0.0,0.0,0.0,0.0,0.0,0.0,0.0,0.0,0.0,0.0,0.0,0.0,0.0,0.0,0.0,0.0,0.0,0.0,0.0,0.0,0.0,0.0,0.0,0.0,0.0,0.0,0.0,0.0,0.0,0.0,0.0,0.0,0.0,0.0,0.0,0.0,0.0,0.0,0.0,0.0,0.0,0.0,0.0,-2.0417,-2.2141,-2.395,0.0,-2.7823,-2.9706,-3.096,-3.0915,-3.0431,-2.9461,0.0,0.0,0.0,0.0,0.0,0.0,0.0,0.0,0.0,0.0,0.0,0.0,0.0,0.0,0.0,0.0,0.0,0.0,0.0,0.0,0.0,0.0,0.0,0.0,0.0,0.0,0.0,0.0,0.0,0.0,0.0,0.0,0.0,0.0,0.0,0.0,0.0,0.0,0.0,0.0,0.0,0.0,0.0,0.0,0.0,0.0,0.0,0.0,0.0,0.0,0.0,0.0,0.0,0.0,0.0,0.0,0.0,0.0,0.0,0.0,0.0,0.0,0.0,0.0,0.0,0.0,0.0,0.0,0.0,0.0,0.0,0.0,0.0,0.0,0.0,0.0,0.0,0.0,0.0,0.0,0.0,0.0,0.0,0.0,0.0,0.0,0.0,0.0,0.0,0.0,0.0,0.0,0.0,0.0,0.0,0.0,0.0,0.0,0.0,0.0,0.0,0.0,-2.2169,-2.3498,-2.4989,-2.6647,-2.8991,-3.0678,-3.1443,-3.1011,-3.042,0.0,0.0,0.0,0.0,0.0,0.0,0.0,0.0,0.0,0.0,0.0,0.0,0.0,0.0,0.0,0.0,0.0,0.0,0.0,0.0,0.0,0.0,0.0,0.0,0.0,0.0,0.0,0.0,0.0,0.0,0.0,0.0,0.0,0.0,0.0,0.0,0.0,0.0,0.0,0.0,0.0,0.0,0.0,0.0,0.0,0.0,0.0,0.0,0.0,0.0,0.0,0.0,0.0,0.0,0.0,0.0,0.0,0.0,0.0,0.0,0.0,0.0,0.0,0.0,0.0,0.0,0.0,0.0,0.0,0.0,0.0,0.0,0.0,0.0,0.0,0.0,0.0,0.0,0.0,0.0,0.0,0.0,0.0,0.0,0.0,0.0,0.0,0.0,0.0,0.0,0.0,0.0,0.0,0.0,0.0,0.0,0.0,0.0,0.0,0.0,0.0,0.0,0.0,-2.3858,-2.5191,-2.6486,-2.7638,-2.9497,-3.0797,-3.1091,-3.0773,-3.0044,-2.8857,0.0,0.0,0.0,0.0,0.0,0.0,0.0,0.0,0.0,0.0,0.0,0.0,0.0,0.0,0.0,0.0,0.0,0.0,0.0,0.0,0.0,0.0,0.0,0.0,0.0,0.0,0.0,0.0,0.0,0.0,0.0,0.0,0.0,0.0,0.0,0.0,0.0,0.0,0.0,0.0,0.0,0.0,0.0,0.0,0.0,0.0,0.0,0.0,0.0,0.0,0.0,0.0,0.0,0.0,0.0,0.0,0.0,0.0,0.0,0.0,0.0,0.0,0.0,0.0,0.0,0.0,0.0,0.0,0.0,0.0,0.0,0.0,0.0,0.0,0.0,0.0,0.0,0.0,0.0,0.0,0.0,0.0,0.0,0.0,0.0,0.0,0.0,0.0,0.0,0.0,0.0,0.0,0.0,0.0,0.0,0.0,0.0,0.0,0.0,0.0,0.0,0.0,-2.5112,-2.6346,-2.74,-2.8215,-3.005,-3.1248,-3.1435,-3.1331,-3.0629,-2.9267,0.0,0.0,0.0,0.0,0.0,0.0,0.0,0.0,0.0,0.0,0.0,0.0,0.0,0.0,0.0,0.0,0.0,0.0,0.0,0.0,0.0,0.0,0.0,0.0,0.0,0.0,0.0,0.0,0.0,0.0,0.0,0.0,0.0,0.0,0.0,0.0,0.0,0.0,0.0,0.0,0.0,0.0,0.0,0.0,0.0,0.0,0.0,0.0,0.0,0.0,0.0,0.0,0.0,0.0,0.0,0.0,0.0,0.0,0.0,0.0,0.0,0.0,0.0,0.0,0.0,0.0,0.0,0.0,0.0,0.0,0.0,0.0,0.0,0.0,0.0,0.0,0.0,0.0,0.0,0.0,0.0,0.0,0.0,0.0,0.0,0.0,0.0,0.0,0.0,0.0,0.0,0.0,0.0,0.0,0.0,0.0,0.0,0.0,0.0,0.0,0.0,0.0,-2.6278,-2.7156,-2.7903,-2.8597,-3.0543,-3.1808,-3.208,-3.2169,-3.1645,-3.0289,0.0,0.0,0.0,0.0,0.0,0.0,0.0,0.0,0.0,0.0,0.0,0.0,0.0,0.0,0.0,0.0,0.0,0.0,0.0,0.0,0.0,0.0,0.0,0.0,0.0,0.0,0.0,0.0,0.0,0.0,0.0,0.0,0.0,0.0,0.0,0.0,0.0,0.0,0.0,0.0,0.0,0.0,0.0,0.0,0.0,0.0,0.0,0.0,0.0,0.0,0.0,0.0,0.0,0.0,0.0,0.0,0.0,0.0,0.0,0.0,-4.5328,0.0,0.0,0.0,0.0,0.0,0.0,0.0,0.0,0.0,0.0,0.0,0.0,0.0,0.0,0.0,0.0,0.0,0.0,0.0,0.0,0.0,0.0,0.0,0.0,0.0,0.0,0.0,0.0,0.0,0.0,0.0,0.0,0.0,0.0,0.0,0.0,0.0,0.0,0.0,0.0,0.0,-2.8203,-2.8764,-2.95,-3.057,-3.142,-3.1736,-3.1364,-3.1229,-3.0639,-2.9406,-2.7387,0.0,0.0,0.0,0.0,0.0,0.0,0.0,0.0,0.0,0.0,0.0,0.0,0.0,0.0,0.0,0.0,0.0,0.0,0.0,0.0,0.0,0.0,0.0,0.0,0.0,0.0,0.0,0.0,0.0,0.0,0.0,0.0,0.0,0.0,0.0,0.0,0.0,0.0,0.0,0.0,0.0,0.0,0.0,0.0,0.0,0.0,0.0,0.0,0.0,0.0,0.0,0.0,0.0,0.0,0.0,0.0,0.0,0.0,0.0,0.0,-4.8212,0.0,0.0,0.0,0.0,0.0,0.0,0.0,0.0,0.0,0.0,0.0,0.0,0.0,0.0,0.0,0.0,0.0,0.0,0.0,0.0,0.0,0.0,0.0,0.0,0.0,0.0,0.0,0.0,0.0,0.0,0.0,0.0,0.0,0.0,0.0,0.0,0.0,0.0,0.0,0.0,-3.0024,-3.0412,-3.0823,-3.1359,-3.175,-3.1897,-3.1747,-3.1369,-3.0639,-2.9521,-2.7859,0.0,0.0,0.0,0.0,0.0,0.0,0.0,0.0,0.0,0.0,0.0,0.0,0.0,0.0,0.0,0.0,0.0,0.0,0.0,0.0,0.0,0.0,0.0,0.0,0.0,0.0,0.0,0.0,0.0,0.0,0.0,0.0,0.0,0.0,0.0,0.0,0.0,0.0,0.0,0.0,0.0,0.0,0.0,0.0,0.0,0.0,0.0,0.0,0.0,0.0,0.0,0.0,0.0,-2.7748,-3.3975,-3.9767,-3.7766,-4.3105,-5.3859,-5.3499,-5.1907,-4.9441,-4.7301,0.0,0.0,0.0,0.0,0.0,0.0,0.0,0.0,0.0,0.0,0.0,0.0,0.0,0.0,0.0,0.0,0.0,0.0,0.0,0.0,0.0,0.0,0.0,0.0,-4.8093,-4.7368,0.0,0.0,0.0,0.0,0.0,0.0,0.0,0.0,0.0,0.0,0.0,0.0,-3.1694,-3.1969,-3.2102,-3.1998,-3.2112,-3.2222,-3.2297,-3.1678,-3.0794,-2.9729,-2.8428,-2.7095,0.0,0.0,0.0,0.0,0.0,0.0,0.0,0.0,0.0,0.0,0.0,0.0,0.0,0.0,0.0,0.0,0.0,0.0,0.0,0.0,0.0,0.0,0.0,0.0,0.0,0.0,0.0,0.0,0.0,0.0,0.0,0.0,-2.023,-2.2091,0.0,0.0,0.0,0.0,0.0,0.0,0.0,0.0,0.0,0.0,0.0,0.0,0.0,-3.5799,-3.4255,-3.4208,-3.0949,-2.4722,-3.5707,-4.288,-4.654,-4.9314,-5.2813,-5.6672,-5.6622,0.0,-5.2108,-5.2906,0.0,0.0,0.0,0.0,0.0,0.0,0.0,0.0,0.0,0.0,0.0,0.0,0.0,0.0,0.0,0.0,0.0,0.0,0.0,0.0,0.0,0.0,-5.3676,-5.4049,-5.3661,-5.2854,0.0,-4.811,-4.4201,-4.1525,-4.1495,0.0,0.0,0.0,0.0,0.0,0.0,0.0,-3.3079,-3.3237,-3.3399,-3.3431,-3.309,-3.2627,-3.203,-3.0953,-3.0021,-2.9246,-2.7919,-2.7033,-2.6722,-2.5411,0.0,0.0,0.0,0.0,0.0,0.0,0.0,0.0,0.0,0.0,0.0,0.0,0.0,0.0,0.0,0.0,0.0,0.0,0.0,0.0,0.0,0.0,0.0,0.0,0.0,0.0,0.0,0.0,0.0,-1.9698,-2.185,-2.2848,-2.4821,-2.6476,0.0,0.0,0.0,0.0,0.0,0.0,0.0,0.0,0.0,-3.8226,-3.9432,-4.0198,-4.0477,-4.1203,-4.0308,-3.7911,-4.4962,-4.9767,-5.2664,-5.4567,-5.7061,-5.9905,-5.9905,-5.9108,-5.7768,-5.6545,-5.4543,-5.2123,0.0,0.0,0.0,0.0,-4.8894,-5.0548,-5.3749,-5.606,0.0,-5.8671,0.0,0.0,0.0,0.0,0.0,0.0,0.0,0.0,0.0,0.0,-5.7932,-5.8077,-5.7715,-5.7158,-5.6292,-5.4259,-5.1272,0.0,-4.628,-4.5544,-4.2056,0.0,0.0,0.0,0.0,-3.6868,-3.6388,-3.558,-3.4954,-3.4886,-3.3567,-3.2569,-3.2243,-3.0588,-2.9132,-2.8024,-2.7005,-2.6052,-2.5231,-2.4538,-2.3585,0.0,0.0,0.0,0.0,0.0,0.0,0.0,0.0,0.0,0.0,0.0,0.0,0.0,0.0,0.0,0.0,0.0,0.0,0.0,0.0,0.0,0.0,0.0,0.0,0.0,0.0,0.0,0.0,-2.1102,-2.3101,-2.3832,-2.6339,-2.838,0.0,0.0,0.0,0.0,0.0,0.0,-3.5981,-3.8058,-3.9983,-4.1756,-4.3309,-4.5003,-4.6791,-4.7886,-4.9313,-5.1023,-5.3544,-5.5718,-5.7632,-5.8661,-6.0536,-6.2954,-6.2954,-6.3856,-6.5009,-6.0341,-5.7629,-5.6392,-5.5735,-5.4972,-5.4399,-5.534,-5.6309,-5.76,-6.0944,-6.3006,-6.4241,-6.464,0.0,-6.6002,-6.3776,0.0,0.0,0.0,0.0,-6.1901,-6.2105,-6.2155,-6.2155,-6.1953,-6.1615,-6.1095,-5.9872,-5.9329,-5.7388,0.0,-5.0909,-4.989,-4.6175,0.0,0.0,0.0,0.0,-3.9902,-3.948,-3.8003,-3.6738,-3.6274,-3.4405,-3.3003,-3.2607,-3.0465,-2.8648,-2.7519,-2.6282,-2.5163,-2.4182,-2.3851,-2.3358,-2.2606,0.0,0.0,0.0,0.0,0.0,0.0,0.0,0.0,0.0,0.0,0.0,0.0,0.0,0.0,0.0,0.0,0.0,0.0,0.0,0.0,0.0,0.0,0.0,0.0,0.0,0.0,0.0,0.0,0.0,-2.6226,-2.8849,0.0,0.0,0.0,0.0,-3.4593,-3.6729,-3.8405,-3.9216,-4.2304,-4.4781,-4.6424,-4.8028,-4.9907,-5.1999,-5.2895,-5.5544,-5.9962,-6.044,-6.0701,-6.095,-6.3246,-6.4791,-6.5617,-6.5617,-6.9046,-7.3869,-6.5298,-6.1716,-6.148,-5.9926,-5.8392,-5.7397,-6.0677,-6.2158,-6.2752,-6.3686,-6.542,-6.7618,-6.9031,-7.0172,-7.0994,-7.0499,-6.9173,0.0,0.0,-6.6826,-6.6957,-6.6846,-6.6938,-6.6994,-6.664,-6.5924,-6.4932,-6.3847,-6.2797,-6.0535,0.0,-5.463,-5.3631,-5.0764,0.0,-4.8097,-4.5386,-4.4107,-4.2906,-4.1357,-4.022,-3.8974,-3.7568,-3.5919,-3.4405,-3.3006,-3.0675,-2.9039,-2.8357,-2.6122,-2.4835,-2.4839,-2.4045,-2.3358,-2.2798,-2.2573,0.0,0.0,0.0,0.0,0.0,0.0,0.0,0.0,0.0,0.0,0.0,0.0,0.0,0.0,0.0,0.0,0.0,0.0,0.0,0.0,0.0,0.0,0.0,0.0,0.0,0.0,0.0,0.0,-2.7338,-3.0435,0.0,-3.364,-3.544,-3.7138,-3.8547,-3.9999,-4.1572,-4.325,-4.5942,-4.8379,-5.0453,-5.2037,-5.4146,-5.6804,-5.7081,-5.8765,-6.1698,-6.301,-6.3518,-6.3493,-6.6426,-6.896,-7.1155,-7.1624,-7.4547,-7.8783,-7.5562,-7.041,-6.4423,-6.4311,-6.561,-6.7518,-6.6796,-6.7019,-6.7896,-6.8215,-6.9522,-7.1362,-7.3037,-7.3534,-7.3555,-7.3899,-7.3226,-7.2346,-7.2263,-7.1972,-7.1648,-7.1162,-7.1112,-7.0907,-7.006,-6.9213,-6.8233,-6.6881,-6.5903,-6.45,-6.1954,-5.8966,-5.6024,-5.3414,-5.2136,-5.0563,-4.7941,-4.6666,-4.5567,-4.4381,-4.2591,-4.0894,-3.9763,-3.7434,-3.5218,-3.3524,-3.0803,-2.8714,-2.7459,-2.5147,-2.3482,-2.2671,-2.1888,-2.1203,-2.0632,-2.1579,-2.1741,0.0,0.0,0.0,0.0,0.0,0.0,0.0,0.0,0.0,0.0,0.0,0.0,0.0,0.0,0.0,0.0,0.0,0.0,0.0,0.0,0.0,0.0,0.0,0.0,0.0,0.0,-2.7395,-2.8742,-3.1802,-3.4382,-3.5818,-3.7863,-3.9946,-4.1935,-4.3359,-4.5148,-4.7438,-4.9537,-5.1746,-5.4117,-5.5631,-5.7722,-6.0411,-6.0855,-6.2141,-6.4237,-6.592,-6.653,-6.6391,-6.9516,-7.3587,-7.8022,-7.8592,-7.99,-8.1599,-8.1273,-7.6869,-7.0279,-7.0076,-7.1802,-7.4172,-7.2227,-7.1826,-7.2259,-7.2463,-7.3206,-7.4302,-7.6016,-7.6312,-7.6187,-7.6653,-7.6764,-7.6658,-7.6818,-7.6518,-7.6032,-7.5325,-7.4925,-7.4333,-7.3212,-7.2351,-7.1326,-6.9872,-6.8884,-6.7966,-6.6707,-6.2662,-5.873,-5.6414,-5.4887,-5.3125,-5.0523,-4.9291,-4.8235,-4.7097,-4.4767,-4.2846,-4.1674,-3.9057,-3.6603,-3.4589,-3.179,-2.9433,-2.7702,-2.5357,-2.3442,-2.2215,-2.1175,-2.0358,-1.9815,-2.1491,-2.2605,-2.3167,0.0,0.0,0.0,0.0,0.0,0.0,0.0,0.0,0.0,0.0,0.0,0.0,0.0,0.0,0.0,0.0,0.0,0.0,0.0,0.0,0.0,0.0,0.0,-2.3041,-2.5868,-2.8621,-3.0543,-3.3081,-3.569,-3.8182,-4.0793,-4.2986,-4.4565,-4.6754,-4.9122,-5.1493,-5.3017,-5.4882,-5.7388,-5.8786,-6.0591,-6.2853,-6.4255,-6.5975,-6.8034,-6.9493,-6.999,-6.973,-7.2823,-7.8455,-8.5837,-8.5873,-8.4678,-8.2686,-8.1635,-8.0406,-7.8963,-7.7076,-7.6311,-7.6393,-7.6787,-7.6338,-7.5651,-7.5984,-7.6085,-7.6365,-7.7787,-7.8574,-7.8963,-7.9084,-7.9933,-8.084,-8.0433,-8.0353,-8.0172,-7.9335,-7.8368,-7.7366,-7.6192,-7.5294,-7.4364,-7.2869,-7.1871,-7.0802,-6.9586,-6.5689,-6.1943,-5.987,-5.8043,-5.595,-5.3331,-5.2021,0.0,-4.9289,-4.6858,-4.4767,-4.3237,-4.0845,-3.8493,-3.6224,-3.3597,-3.1258,-2.9279,-2.6775,-2.489,-2.3681,-2.2151,-2.111,-2.0656,-2.2378,-2.4837,-2.8083,0.0,0.0,0.0,0.0,0.0,0.0,0.0,0.0,0.0,0.0,0.0,0.0,0.0,0.0,0.0,0.0,0.0,0.0,0.0,0.0,0.0,0.0,-2.5985,-2.643,-2.7926,-2.9883,-3.2365,-3.5023,-3.7363,-3.9287,-4.1769,-4.4085,-4.6175,-4.8002,-5.0003,-5.2199,-5.4324,-5.6563,-5.8906,-6.0901,-6.3351,-6.6307,-6.7043,-6.8755,-7.1444,-7.2335,-7.3437,-7.4823,-7.7169,-8.0304,-8.3831,-8.5554,-8.5446,-8.4101,-8.3988,-8.2574,-8.0297,-7.7434,-7.6863,-7.7559,-7.7027,-7.6338,-7.5616,-7.6158,-7.6435,-7.6798,-7.821,-7.9504,-8.0456,-8.0856,-8.1886,-8.2975,-8.2829,-8.2934,-8.2822,-8.1881,-8.1448,-8.0692,-7.8783,-7.8135,-7.7451,-7.5316,-7.4093,-7.3088,-7.1855,-6.8844,-6.5792,-6.3643,-6.1427,-5.9046,-5.613,-5.4567,0.0,-5.1229,-4.905,-4.692,-4.5175,-4.2991,-4.0348,-3.722,-3.485,-3.253,-3.0261,-2.7402,-2.5289,-2.4072,-2.2524,-2.1859,-2.211,-2.341,-2.5978,0.0,0.0,0.0,0.0,0.0,0.0,0.0,0.0,0.0,0.0,0.0,0.0,0.0,0.0,0.0,0.0,0.0,0.0,0.0,0.0,0.0,0.0,-2.6308,-2.8102,-2.944,-3.0449,-3.1773,-3.3647,-3.6188,-3.8574,-4.0577,-4.3059,-4.5444,-4.7743,-4.9715,-5.1828,-5.4054,-5.6031,-5.8,-6.0013,-6.2888,-6.5718,-6.8486,-7.0152,-7.2215,-7.4618,-7.5906,-7.7158,-7.8341,-8.0063,-8.2342,0.0,-8.5918,-8.6174,-8.5883,-8.5262,-8.3953,0.0,0.0,0.0,0.0,0.0,-7.6992,-7.664,-7.6972,-7.7527,-7.8217,-7.9422,-8.0705,-8.186,-8.2313,-8.3628,-8.497,-8.4606,-8.5114,-8.544,-8.4131,-8.3698,-8.3193,-8.1454,-8.044,-7.9389,-7.7738,-7.6285,-7.487,-7.3622,-7.1561,0.0,-6.7444,-6.4419,-6.1211,-5.845,-5.6841,-5.5113,-5.2794,-5.0689,-4.863,-4.6552,-4.4352,-4.1782,-3.8746,-3.6184,0.0,0.0,0.0,-2.6293,-2.4131,-2.2702,0.0,0.0,0.0,-2.7671,-3.1816,0.0,0.0,0.0,-4.9137,-5.5183,0.0,0.0,0.0,0.0,0.0,0.0,0.0,0.0,0.0,0.0,0.0,0.0,0.0,0.0,0.0,0.0,-2.7731,-2.9631,-3.2037,-3.3176,-3.4051,-3.4909,-3.7112,-3.954,-4.2012,-4.4565,-4.7015,-4.9305,-5.1595,-5.3964,-5.6368,0.0,0.0,0.0,0.0,-6.7739,-6.9787,-7.2983,-7.5402,-7.7235,-7.9719,-8.0904,-8.0897,-8.2241,-8.4488,-8.7398,-8.6754,-8.6976,-8.7523,-8.5919,-8.4682,-8.3592,-8.1636,-7.8601,-7.5347,-7.7237,-7.7893,-7.7893,-7.8116,0.0,0.0,-8.0883,-8.2004,-8.3146,-8.3591,-8.5227,-8.6749,-8.6086,-8.7039,-8.7811,-8.6346,-8.5625,-8.5046,-8.4027,-8.2211,-8.0573,-7.9886,-7.8133,-7.6348,-7.5031,-7.3545,-7.221,-7.0837,-6.6844,-6.2965,-6.0673,-5.9064,-5.7044,-5.4188,-5.2244,-5.0112,-4.7684,0.0,0.0,-4.0665,-3.7738,-3.4863,-3.2051,-3.0147,-2.7619,-2.4335,-2.3328,-2.3554,-2.511,-2.685,-2.9721,-3.3838,-3.8494,-4.3249,-4.7943,-5.0895,-5.6652,0.0,0.0,0.0,0.0,0.0,0.0,0.0,0.0,0.0,0.0,0.0,0.0,0.0,0.0,0.0,-2.805,-2.9234,-3.0648,-3.3058,-3.5162,-3.6739,-3.7507,-3.9246,-4.1318,-4.3725,-4.6245,-4.8616,-5.0817,-5.259,-5.4578,-5.6926,-5.9108,0.0,-6.1728,-6.6055,-6.9264,-7.1103,-7.3137,-7.5548,-7.8387,0.0,0.0,-8.4511,-8.5685,-8.6637,-8.7481,-8.8253,-8.8217,-8.7559,-8.7268,-8.5701,-8.3301,-8.0744,-7.7787,-7.5219,-7.7094,-7.7841,-7.798,-7.8406,-7.9316,-8.0445,-8.1276,-8.2896,-8.4573,-8.5182,-8.6664,0.0,-8.8146,-8.8704,-8.9228,-8.8757,-8.7851,-8.6793,-8.5435,-8.3759,-8.2081,-8.0536,-7.8705,-7.7052,-7.6447,-7.4016,-7.1951,-7.1484,-6.8506,-6.5631,-6.4036,-6.1318,-5.8852,-5.6942,-5.4546,-5.2075,-4.9783,-4.7773,-4.5368,-4.2386,-3.9945,-3.7555,-3.518,-3.2154,-2.9259,-2.6747,-2.7248,-2.7632,-2.7698,-2.9394,-3.21,-3.5833,-3.9024,-4.3439,-4.9046,-5.3227,-5.8856,0.0,0.0,0.0,0.0,0.0,0.0,0.0,0.0,0.0,0.0,0.0,-2.6377,0.0,0.0,-2.8461,-3.0079,-3.1347,-3.2661,-3.4228,-3.6515,-3.8261,-3.8879,-4.0808,-4.2995,-4.5366,-4.7889,-5.0112,-5.1863,-5.4309,-5.6515,-5.8275,-6.0701,-6.2747,-6.4332,-6.8186,-7.1368,-7.3885,-7.5895,-7.7918,-7.9937,-8.2718,-8.529,-8.743,-8.7983,-8.8132,-8.7953,-8.8216,-8.7632,-8.6423,-8.5221,-8.4223,-8.3307,-8.0764,-7.8202,-7.6258,-7.8222,-7.8555,-7.8186,-7.9198,-8.0328,-8.1453,-8.2346,-8.3991,-8.5737,-8.6269,-8.7752,-8.9172,-8.8901,-8.9799,-9.0692,-8.9812,-8.9166,-8.8397,-8.6897,-8.5247,-8.366,-8.2201,-8.0129,-7.8266,-7.7406,-7.522,-7.3288,-7.2519,-7.0052,-6.7525,-6.5426,-6.3252,-6.0962,-5.8427,-5.6481,-5.4309,-5.1513,-4.9636,-4.7363,-4.4323,-4.056,-3.7437,-3.512,-3.2832,-3.0711,-2.8786,-2.9117,-2.9422,-2.9751,-3.1227,-3.3695,-3.7286,-4.0408,-4.4384,-4.9208,-5.3497,-5.8982,0.0,0.0,0.0,0.0,0.0,0.0,0.0,0.0,-2.9112,-2.8283,-2.8676,-2.9251,-2.9603,-3.0346,-3.1182,-3.2098,-3.3337,-3.4513,-3.5483,-3.772,-3.9549,-4.0409,-4.2475,-4.4748,-4.7124,-4.9655,-5.17,-5.3044,-5.6077,-5.8469,-5.9865,-6.2223,-6.4654,-6.7099,-7.0035,-7.328,-7.6818,-7.8908,-8.062,-8.2178,-8.3919,-8.628,-8.9305,-8.9378,-8.9156,-8.8531,-8.7517,-8.6271,-8.4829,-8.2679,-8.2547,-8.3348,-8.1434,-7.9758,-7.8549,-7.9842,-7.9723,-7.9037,-8.0282,-8.1479,-8.2671,-8.3515,-8.501,-8.6644,-8.6995,-8.8477,-8.9928,-8.9329,-9.0637,-9.1938,-9.0578,-9.0153,-8.9676,-8.8179,-8.6489,-8.4888,-8.362,-8.1603,-7.9562,-7.8275,-7.6553,-7.4907,-7.3737,-7.1732,-6.9301,-6.656,-6.4885,-6.286,-5.9837,-5.8494,-5.655,-5.3375,-5.1575,-4.9142,-4.5747,-4.1048,-3.7422,-3.5124,-3.3966,-3.271,-3.1104,-3.0896,-3.1176,-3.2069,-3.3048,-3.5286,-3.8851,-4.2088,-4.5603,-4.9505,-5.3549,-5.8651,-3.3679,-3.3285,0.0,-3.4822,-3.5405,-3.5474,0.0,0.0,-3.1609,-3.1145,-3.1622,-3.1872,-3.1033,-3.1468,-3.2439,-3.3949,-3.4278,-3.503,-3.6965,-3.908,-4.1278,-4.3586,-4.5036,-4.6799,-4.9156,-5.1547,-5.3561,-5.4993,-5.7397,-5.9469,-6.0923,-6.3292,-6.5786,-6.8386,-7.0761,-7.4176,-7.8829,-7.9512,-8.1915,-8.5809,-8.6065,-8.7122,-8.8909,-8.9232,-8.9262,-8.877,-8.6276,-8.4389,-8.2951,-8.2359,-8.2552,-8.3173,-8.2963,-8.2699,-8.2365,-8.1051,-8.0894,-8.1329,-8.1612,-8.26,-8.3929,-8.4755,-8.5876,-8.6995,-8.7534,-8.8914,-9.0276,-9.0258,-9.1416,-9.2579,-9.2188,-9.1355,-9.0191,-8.8723,-8.6887,-8.5009,-8.3458,-8.186,-8.0543,-7.9678,-7.7778,-7.6046,-7.5248,-7.3332,-7.135,-6.9247,-6.6609,-6.4312,-6.2599,-6.0959,-5.8873,-5.5967,-5.3928,-5.0677,-4.5769,-4.2924,-4.0485,-3.8348,-3.7637,-3.6429,-3.4486,-3.4546,-3.4904,-3.5608,-3.59,-3.7783,-4.139,-4.3654,-4.7046,-5.1287,-5.5202,-5.9327,-3.5164,0.0,0.0,0.0,-3.5898,-3.584,-3.5803,-3.4981,-3.4135,-3.3942,-3.3499,-3.3163,-3.3349,-3.3582,-3.394,0.0,-3.5463,-3.6578,-3.7988,-4.0184,-4.2421,-4.4499,-4.643,-4.8428,-5.0563,-5.2938,-5.4707,-5.5595,-5.8391,-6.043,-6.1409,-6.3649,-6.6135,-6.8714,-7.0522,-7.33,-7.7176,-7.8829,-8.0922,-8.3551,-8.4826,-8.5628,-8.6209,-8.613,-8.5892,-8.5374,-8.2773,-8.1515,-8.1086,-8.0053,-8.0386,-8.1457,-8.1716,-8.1874,-8.1874,-8.238,-8.224,-8.2058,-8.2674,-8.3559,-8.4492,-8.5046,-8.6127,-8.72,-8.7534,-8.8877,-9.0304,-9.0434,-9.1387,-9.2409,-9.2409,-9.1323,-8.9933,-8.8756,-8.7167,-8.549,-8.4053,-8.2517,-8.112,-8.0398,-7.8323,-7.6448,-7.5867,-7.3874,-7.1985,-7.0959,-6.8533,-6.603,-6.3806,-6.2362,-6.0105,-5.6526,-5.42,-5.1436,-4.7737,-4.5364,-4.3283,-4.1565,-4.0601,-3.9274,-3.7609,-3.7521,-3.7701,-3.812,-3.8622,-4.0416,-4.3522,-4.5722,-4.858,-5.2089,-5.5781,-5.9652,-3.5946,0.0,0.0,-3.7145,-3.7379,-3.7347,-3.7345,-3.7234,-3.7027,-3.6632,-3.574,-3.5185,-3.572,-3.5751,-3.574,-3.5969,-3.7014,-3.8118,-3.9014,-4.1111,-4.3212,-4.4972,-4.7076,-4.911,-5.0948,-5.3447,-5.5287,-5.6095,-5.8725,-6.0744,-6.1713,-6.3566,-6.5904,-6.886,-7.0127,-7.238,-7.5605,-7.7678,-7.9486,-8.0859,-8.2429,-8.3302,-8.3549,-8.2864,-8.2227,-8.1683,-7.9861,-7.9093,-7.9158,-7.8272,-7.8508,-7.9453,-7.988,-8.0174,-8.04,-8.2404,-8.2643,-8.2205,-8.3316,-8.4191,-8.4826,-8.5409,-8.6379,-8.7372,-8.7431,-8.8561,-8.9802,-8.9971,-9.092,-9.1794,-9.1712,-9.0921,-8.9786,-8.8465,-8.7197,-8.5749,-8.4384,-8.2979,-8.1708,-8.0973,-7.9057,-7.7303,-7.6676,-7.4698,-7.3023,-7.2079,-7.0371,-6.8113,-6.532,-6.3546,-6.109,-5.7422,-5.5097,-5.2826,-5.0425,-4.8136,-4.6281,-4.4825,-4.3379,-4.2106,-4.0965,-4.0527,-4.0585,-4.1086,-4.161,-4.3099,-4.5696,-4.7902,-5.046,-5.3382,-5.6748,-6.029,0.0,0.0,-3.6816,-4.0194,-4.1009,-4.0941,-4.0928,-4.0852,-4.0422,-3.9226,-3.8914,-3.8633,-3.8015,-3.7791,-3.8001,-3.8831,-3.9061,-3.9384,-4.0159,-4.1838,-4.3635,-4.5368,-4.6954,-4.8537,0.0,-5.2902,-5.5244,-5.6662,-5.8315,-6.0108,-6.219,-6.3111,-6.5308,-6.9178,-6.9979,-7.1857,-7.5095,-7.6448,-7.7907,-7.9281,-7.9281,-8.0224,-8.1789,-8.0169,-7.9074,-7.8707,-7.8439,-7.7754,-7.6931,-7.7799,-7.7846,-7.7327,-7.7824,-7.8221,-7.8868,-8.047,-8.1426,-8.2117,-8.3282,-8.4241,-8.5082,-8.6244,-8.6958,-8.7372,-8.7431,-8.8125,-8.8827,-8.8893,-8.9972,-9.0974,-9.0025,-9.0147,-9.0008,-8.7849,-8.6842,-8.5912,-8.43,-8.3314,-8.2509,-8.1482,-8.0253,-7.9022,-7.7944,-7.6617,-7.4923,-7.2456,-7.1766,-7.0639,-6.7894,-6.4751,-6.1858,-5.9563,-5.7618,-5.5611,-5.3622,-5.1323,-4.9523,-4.8207,-4.6262,-4.5049,-4.4868,-4.3793,-4.3771,-4.4974,-4.497,-4.5923,-4.7934,-5.0142,-5.2733,-5.5651,-5.8492,-6.1774,-3.5875,0.0,-3.9669,-4.0897,-4.289,-4.4569,-4.4531,-4.4513,-4.4142,-4.287,-4.1965,-4.1237,-4.078,-4.0206,-3.9913,-4.0173,-4.0738,-4.1225,-4.1524,-4.2988,-4.4279,-4.495,-4.6368,0.0,0.0,0.0,0.0,-5.5378,-5.7925,-5.9665,-6.026,-6.2444,-6.4502,-6.6388,-6.8023,-7.0106,-7.2723,-7.3933,-7.5297,-7.6867,-7.7615,-7.8089,-7.8389,-7.784,-7.7331,-7.6953,-7.6488,-7.6374,-7.6646,-7.7042,-7.7457,-7.7846,-7.7962,-7.8237,-7.8728,-7.9539,-8.0163,-8.0769,-8.2553,-8.391,-8.4863,-8.5446,-8.6313,-8.7064,-8.7132,-8.782,-8.8729,-8.9418,-8.9767,-9.0037,-9.0257,-8.9349,-8.8178,-8.7141,-8.5894,-8.4694,-8.3819,-8.2961,-8.2176,-8.1421,-8.0437,-7.9229,-7.8007,-7.7007,-7.5549,-7.3148,-7.087,-6.8846,-6.7245,-6.5699,-6.3947,-6.16,-6.0062,-5.8384,-5.6395,-5.45,-5.2965,-5.1618,-4.9854,-4.8618,-4.8041,-4.7323,-4.7114,-4.776,-4.832,-4.932,-5.0778,-5.254,-5.4667,-5.7209,-5.9443,-6.2182,-3.7284,-4.0121,-4.2889,-4.2939,-4.4633,-4.658,-4.7774,-4.806,-4.75,-4.5426,-4.4396,-4.3587,-4.2805,-4.2169,-4.1773,-4.1805,-4.2039,-4.2312,-4.2649,-4.3575,-4.4385,-4.4704,-4.5841,0.0,0.0,0.0,0.0,-5.4382,-5.6633,-5.8216,-5.8911,-6.0973,-6.2556,-6.3498,-6.5447,-6.741,-6.9226,-7.0785,-7.2391,-7.4177,-7.4927,-7.5308,-7.5188,-7.5356,-7.5408,-7.5303,-7.4955,-7.5359,-7.6227,-7.6258,-7.6929,-7.772,-7.7787,-7.8066,-7.8406,-7.8823,-7.9231,-7.9843,-8.1711,-8.3142,-8.4205,-8.4754,-8.5737,-8.6715,-8.6786,-8.7222,-8.7876,-8.8529,-8.8977,-8.9239,-8.935,-8.8506,-8.7435,-8.6679,-8.5488,-8.4379,-8.3772,-8.3171,-8.263,-8.1953,-8.1156,-8.02,-7.8857,-7.7588,-7.6152,-7.4447,-7.195,-6.9651,-6.8044,-6.7319,-6.6063,-6.3741,-6.2686,-6.1177,-5.8954,-5.7678,-5.6256,-5.467,-5.3254,-5.1964,-5.1151,-5.0774,-5.0584,-5.059,-5.1164,-5.2108,-5.3337,-5.4645,-5.6437,-5.8767,-6.0666,-6.3039,-4.0027,-4.322,-4.5997,-4.6138,-4.6162,-4.7034,-5.0281,-5.1045,-5.0158,-4.6878,-4.6198,-4.5662,0.0,0.0,-4.3669,-4.3706,-4.3079,-4.2839,-4.3587,-4.3651,-4.3929,0.0,0.0,0.0,0.0,0.0,0.0,-5.3454,0.0,-5.5996,-5.7993,-5.88,-5.9696,-6.0715,-6.2548,-6.3985,-6.5068,-6.7354,-6.9367,-7.1105,-7.1611,-7.1906,-7.2201,-7.2793,-7.3318,-7.383,-7.3733,-7.4489,-7.5574,-7.5574,-7.5952,-7.669,-7.6996,-7.7386,-7.7858,-7.8406,-7.8741,-7.9093,-8.0791,-8.2086,-8.3185,-8.4277,-8.5298,-8.6027,-8.632,-8.6392,-8.6429,-8.6465,-8.7559,-8.8506,-8.7554,-8.7765,-8.7818,-8.6307,-8.55,-8.4811,-8.4131,-8.398,-8.3724,-8.2922,-8.2304,-8.1565,-8.0365,-7.8452,-7.6751,-7.6003,-7.4832,-7.3101,-7.0367,-6.9488,-6.8243,-6.5919,-6.5353,-6.4156,-6.1553,-6.0715,-5.9458,-5.7423,-5.6444,-5.5318,-5.4188,-5.4268,-5.4044,-5.3565,-5.3819,-5.4484,-5.5539,-5.6389,-5.7974,-6.0359,-6.2165,-6.4277,-4.1207,-4.345,-4.5245,-4.5522,-4.5673,-4.6182,-4.7828,-4.8329,-4.8283,-4.7894,-4.7392,-4.6839,0.0,0.0,0.0,-4.545,-4.5345,0.0,-4.4686,-4.4591,0.0,0.0,0.0,-4.4428,-4.5131,-4.6044,0.0,0.0,-5.2946,-5.5265,-5.5599,-5.7115,-5.8145,-5.8584,-6.0062,-6.153,-6.3066,-6.5951,-6.742,-6.7505,-6.9581,-7.0582,-7.0443,-7.1549,-7.2149,-7.2446,-7.225,-7.2643,-7.3452,-7.3642,-7.4145,-7.4764,-7.5942,-7.6449,-7.6694,-7.8112,-7.8657,-7.8846,-8.0197,-8.1105,-8.186,-8.3146,-8.4241,-8.5225,-8.5918,-8.6247,-8.6538,-8.7122,-8.7522,-8.7699,-8.7946,-8.7696,-8.7239,-8.6524,-8.5887,-8.5175,-8.4343,-8.3942,-8.3491,-8.2614,-8.1531,-8.0497,-8.0116,-7.8881,-7.7665,-7.6549,-7.5995,-7.4966,-7.246,-7.1594,-7.0516,-6.8602,-6.8081,-6.6909,-6.4246,-6.3857,-6.272,-6.0236,-5.974,-5.8758,-5.7011,-5.7166,-5.6809,-5.5748,-5.643,-5.6841,-5.6964,-5.7902,-5.9543,-6.1883,-6.2642,-6.4553,-4.1519,-4.3079,-4.4599,-4.5685,-4.5536,-4.5557,-4.7176,-4.7338,-4.7118,-4.7038,-4.7081,0.0,0.0,0.0,0.0,0.0,0.0,0.0,-4.4945,-4.4297,-4.3739,0.0,-4.3559,0.0,-4.4044,-4.4689,-4.5526,0.0,-5.0431,-5.2769,-5.2736,-5.4353,-5.528,-5.5256,-5.6629,-5.8444,-6.059,-6.3087,-6.4681,-6.5213,-6.7196,-6.839,-6.8858,-6.968,-7.0502,-7.1292,0.0,-7.1686,-7.263,-7.282,-7.346,-7.4296,-7.5287,-7.5991,-7.6691,-7.7633,-7.8151,-7.8631,-7.9704,-8.0317,-8.0937,-8.2679,-8.4001,-8.4876,-8.554,-8.5801,-8.5985,-8.642,-8.6666,-8.6794,-8.7069,-8.6691,-8.6212,-8.6099,-8.5546,-8.5007,-8.4689,-8.4445,-8.3875,-8.2858,-8.2001,-8.1312,-8.0799,-8.0155,-7.9352,-7.8249,-7.8019,-7.7185,-7.5365,-7.3845,-7.2456,-7.1028,-7.0569,-6.9303,-6.6969,-6.649,-6.5323,-6.2989,-6.2747,-6.1777,-5.9773,-6.0352,-5.9991,-5.8338,-5.8934,-5.928,-5.9217,-5.9872,-6.1135,-6.3087,-6.3905,-6.5431,-4.1322,-4.2412,-4.3889,-4.5765,-4.5275,-4.4946,-4.7133,-4.7034,-4.6271,-4.5554,0.0,-4.5796,-4.3612,0.0,-4.5183,-4.4521,0.0,-4.3763,-4.461,-4.3255,-4.2499,-4.3193,-4.3153,-4.3031,-4.2907,-4.3492,-4.4008,-4.4325,-4.6997,-4.892,-4.9735,-5.1087,-5.1838,-5.171,-5.3287,-5.5373,-5.797,-5.9805,-6.1718,-6.3479,-6.4604,-6.577,-6.7102,-6.7492,-6.8502,-6.9976,-7.0075,0.0,-7.1941,-7.22,-7.3077,-7.4153,-7.467,-7.5572,-7.6823,-7.712,-7.7632,-7.8291,-7.9282,-7.9817,-8.0434,-8.2654,-8.3942,-8.4756,-8.5024,-8.5139,-8.5139,-8.5139,-8.5554,-8.5918,-8.5716,-8.5366,-8.5216,-8.535,-8.51,-8.4778,-8.4984,-8.4899,-8.4392,-8.3241,-8.2938,-8.2541,-8.1859,-8.1694,-8.1218,-8.0244,-7.9809,-7.9336,-7.8186,-7.5984,-7.4202,-7.3313,-7.2684,-7.1517,-6.9692,-6.8794,-6.7567,-6.5682,-6.5404,-6.4479,-6.2536,-6.3379,-6.3017,-6.1052,-6.1312,-6.1562,-6.1713,-6.1905,-6.2842,-6.4354,-6.5561,-6.6519,-4.0955,-4.1689,-4.2465,-4.3397,-4.3704,-4.4103,-4.5462,-4.5275,0.0,0.0,0.0,-4.4128,-4.3749,-4.3519,0.0,-4.338,0.0,0.0,0.0,0.0,-4.1339,0.0,0.0,0.0,0.0,0.0,0.0,0.0,0.0,-4.3871,-4.7372,-4.8186,-4.9111,-5.0386,-5.2562,-5.4487,-5.6018,-5.8076,-5.9749,-6.0963,-6.2748,-6.3901,-6.4537,-6.5608,-6.6388,-6.6939,-6.798,0.0,-6.9396,-7.0309,-7.1017,-7.1681,-7.3206,-7.4058,-7.4696,-7.6562,-7.7278,-7.756,-7.8798,-7.9511,-8.0183,-8.2407,-8.3422,-8.3799,-8.4406,-8.4783,-8.49,-8.4666,-8.5109,-8.5464,-8.5174,-8.5234,-8.5315,-8.4996,-8.4951,-8.4949,-8.4487,-8.3925,-8.3577,-8.3416,-8.2681,-8.2135,-8.2132,-8.1791,-8.1265,-8.0207,-8.0079,-7.9773,-7.9361,-7.8004,-7.6774,-7.5575,-7.4779,-7.3762,-7.2355,-7.1098,-6.9909,-6.8749,-6.788,-6.6873,-6.5643,-6.5435,-6.4671,-6.3142,-6.3436,-6.3485,-6.3161,-6.3375,-6.4597,-6.6631,-6.6677,-6.7448,-3.9438,-4.0366,-4.1296,-4.2334,-4.2606,-4.2885,-4.3721,0.0,0.0,0.0,0.0,-4.2473,-4.176,0.0,0.0,0.0,0.0,0.0,0.0,0.0,0.0,0.0,0.0,0.0,0.0,0.0,0.0,0.0,0.0,-3.9721,-4.3568,-4.4948,-4.6486,-4.8155,-4.9945,-5.1674,-5.349,-5.5301,-5.7025,-5.8685,-6.0297,-6.1534,-6.2678,-6.3966,-6.4997,-6.5674,-6.6678,0.0,-6.8361,-6.9069,-7.0043,-7.1185,-7.2262,-7.3467,-7.465,-7.5698,-7.6575,-7.7382,-7.8356,-7.9077,-7.9858,-8.1153,-8.2249,-8.314,-8.3531,-8.397,-8.4373,-8.4207,-8.4237,-8.4176,-8.4088,-8.4242,-8.4391,-8.4396,-8.4583,-8.4693,-8.4276,-8.3616,-8.3082,-8.3235,-8.2835,-8.2594,-8.2713,-8.2391,-8.2074,-8.1704,-8.1337,-8.1002,-8.0553,-8.0273,-7.9224,-7.7475,-7.6445,-7.5377,-7.4061,-7.3043,-7.2038,-7.1104,-6.9998,-6.9306,-6.8776,-6.8148,-6.7229,-6.6041,-6.6298,-6.5916,-6.4993,-6.5603,-6.6443,-6.7412,-6.7699,-6.8337,-3.736,-3.8472,-3.9778,-4.1078,-4.138,-4.1442,-4.2056,-4.1867,0.0,0.0,0.0,-4.0486,0.0,0.0,0.0,0.0,0.0,0.0,0.0,0.0,0.0,0.0,0.0,0.0,0.0,0.0,0.0,0.0,0.0,0.0,-3.9939,-4.1968,-4.3837,-4.5513,-4.7106,-4.8895,-5.0927,-5.2639,-5.4515,-5.6617,-5.7776,-5.919,-6.0832,-6.2077,-6.3292,-6.4416,-6.5543,0.0,0.0,-6.8126,-6.9329,-7.0809,-7.1412,-7.2751,-7.4432,-7.4694,-7.5561,-7.672,-7.7603,-7.8326,-7.8868,-7.9459,-8.0859,-8.239,-8.2567,-8.3026,-8.3521,-8.3662,-8.3472,-8.3155,-8.3241,-8.3276,-8.3443,-8.3955,-8.4251,-8.4331,-8.4177,-8.3577,-8.3119,-8.3231,-8.3235,-8.3213,-8.345,-8.2992,-8.2795,-8.3108,-8.262,-8.2125,-8.1826,-8.1888,-8.1327,-7.9466,-7.8167,-7.6924,-7.5617,-7.4796,-7.4075,-7.3285,-7.194,-7.1289,-7.1504,-7.0497,-6.9651,-6.8893,-6.8945,-6.838,-6.733,-6.8013,-6.8463,-6.8599,-6.9109,-6.9512,-3.4803,-3.5732,-3.694,-3.8489,-3.931,-3.9881,-4.0489,0.0,0.0,0.0,-3.8372,-3.7668,0.0,0.0,0.0,0.0,0.0,0.0,0.0,0.0,0.0,0.0,0.0,0.0,0.0,0.0,0.0,0.0,0.0,0.0,-3.7811,-3.955,-4.1184,-4.245,-4.5253,-4.7346,-4.8621,-5.097,-5.3039,-5.4663,-5.5906,-5.7338,-5.884,-5.9444,-6.0582,-6.2173,-6.3578,0.0,0.0,-6.6795,-6.8021,-6.9031,-7.001,-7.1151,-7.2389,-7.3559,-7.4196,-7.4693,-7.5873,-7.6468,-7.6834,-7.7544,-7.9287,-8.1223,-8.1664,-8.2033,-8.2418,-8.3121,-8.312,-8.3026,-8.3415,-8.3415,-8.3486,-8.4111,-8.3942,-8.3616,-8.3859,-8.3607,-8.3498,-8.39,-8.3493,-8.3355,-8.4059,-8.3309,-8.2795,-8.3108,-8.2758,-8.2698,-8.2926,-8.2622,-8.2418,-8.2092,-8.0365,-7.8768,-7.7592,-7.6409,-7.5668,-7.565,-7.354,-7.2611,-7.32,-7.1578,-7.0808,-7.1028,-7.0631,-7.0439,-7.0598,-7.0131,-7.0601,-7.1941,-7.156,-7.1445,-3.2698,-3.3636,-3.4727,-3.5772,-3.6637,-3.7326,-3.7855,0.0,0.0,-3.7321,-3.6932,-3.6616,-3.5974,0.0,0.0,0.0,0.0,0.0,0.0,0.0,0.0,0.0,0.0,0.0,0.0,0.0,0.0,0.0,0.0,0.0,-3.4355,-3.6682,-3.8851,-4.1,-4.2653,-4.4559,-4.6815,-4.8149,-4.9974,-5.2574,-5.3314,-5.4607,-5.6309,-5.7621,-5.8751,-5.9852,-6.179,0.0,0.0,-6.5411,-6.6696,-6.7856,-6.8652,-6.9553,-7.0838,-7.1887,-7.2824,-7.3625,-7.4679,-7.5308,-7.5777,-7.5915,-7.7007,-7.8433,-7.9775,-8.0649,-8.1244,-8.1383,-8.1534,-8.177,-8.1806,-8.2439,-8.3155,-8.367,-8.3756,-8.3624,-8.3265,-8.3218,-8.3362,-8.3726,-8.3466,-8.3451,-8.4155,-8.3372,-8.2795,-8.3108,-8.3238,-8.3193,-8.3049,-8.3501,-8.3396,-8.2571,-8.1227,-8.001,-7.9173,-7.8304,-7.7547,-7.6861,-7.5693,-7.5102,-7.5589,-7.369,-7.2958,-7.343,-7.2843,-7.2362,-7.2054,-7.2014,-7.2178,-7.2482,-7.2338,-7.2311,-3.0576,-3.1467,-3.2395,-3.3329,-3.413,-3.484,0.0,0.0,0.0,-3.5479,-3.526,-3.5005,-3.431,-3.3967,-3.355,0.0,0.0,-3.2788,0.0,0.0,0.0,0.0,0.0,0.0,0.0,0.0,0.0,0.0,0.0,0.0,0.0,-3.3727,-3.6333,-3.9247,-4.0463,-4.2281,-4.4611,-4.5814,-4.7554,-4.997,-5.0999,-5.2337,-5.3929,-5.5659,-5.6996,-5.8121,-5.998,0.0,0.0,-6.3994,-6.5147,-6.6489,-6.7181,-6.8259,-6.948,-7.0524,-7.1457,-7.2478,-7.3645,-7.4341,-7.4757,-7.4878,-7.5466,-7.6297,-7.7458,-7.8903,-8.0089,-8.021,-8.0706,-8.117,-8.1035,-8.1859,-8.2784,-8.3321,-8.3436,-8.322,-8.3042,-8.2955,-8.2995,-8.3193,-8.3181,-8.3387,-8.3739,-8.3214,-8.2929,-8.3108,-8.3487,-8.3705,-8.3357,-8.4084,-8.4276,-8.3327,-8.251,-8.1492,-8.0325,-7.9908,-7.9162,-7.8169,-7.7335,-7.6931,-7.724,-7.5558,-7.4953,-7.5301,-7.471,-7.4092,-7.3531,-7.3575,-7.3591,-7.3338,-7.3405,-7.3452,-2.8418,-2.8922,-2.9704,-3.1133,-3.1945,-3.2506,0.0,0.0,0.0,-3.3979,-3.3023,-3.2404,-3.2934,-3.1887,-3.1111,-3.1531,-3.1853,-3.1844,-3.1276,0.0,0.0,0.0,0.0,0.0,0.0,0.0,0.0,0.0,0.0,0.0,0.0,-3.101,-3.3249,-3.6684,-3.9133,-4.0768,-4.1674,-4.4525,-4.6106,-4.6697,-4.9133,-5.0878,-5.2094,-5.3224,-5.5101,0.0,0.0,0.0,0.0,-6.2446,-6.3589,-6.48,-6.5798,-6.7074,-6.8439,-6.9446,-7.0073,-7.0837,-7.2809,-7.3498,-7.3722,-7.4619,-7.512,-7.5241,-7.5068,-7.671,-7.895,-7.9947,-8.0905,-8.1784,-8.1992,-8.2208,-8.2543,-8.3321,-8.2858,-8.2452,-8.3132,-8.3152,-8.2917,-8.2628,-8.2826,-8.31,-8.2715,-8.3028,-8.3196,-8.3244,-8.3794,-8.4202,-8.4146,-8.468,-8.5111,-8.508,-8.4495,-8.3256,-8.1197,-8.103,-8.0633,-7.9545,-7.8257,-7.7636,-7.7925,-7.6964,-7.6392,-7.6419,-7.6039,-7.5681,-7.5682,-7.4766,-7.4681,-7.5165,-7.5072,-7.4858,-2.7549,-2.7841,-2.8176,-2.9152,-2.9847,-3.043,-3.0843,0.0,0.0,0.0,0.0,-3.063,-2.9453,-2.9112,-2.8612,-2.7456,-2.7403,-2.7382,-2.6997,0.0,0.0,0.0,0.0,0.0,0.0,0.0,0.0,0.0,0.0,0.0,0.0,-3.0491,-3.2458,-3.5288,-3.7096,-3.8977,-4.0796,-4.3022,-4.4818,-4.6106,-4.755,-4.91,-5.0847,-5.188,-5.3316,0.0,0.0,0.0,0.0,-6.1049,-6.2183,-6.3113,-6.4285,-6.5249,-6.6229,-6.7732,-6.8639,-6.9118,-7.0277,-7.1217,-7.1953,-7.2244,-7.3206,-7.4239,-7.4015,-7.5308,-7.7244,-7.8764,-7.8965,-7.8961,-8.0672,-8.1019,-8.0986,-8.1312,-8.1638,-8.1818,-8.1678,-8.2017,-8.2243,-8.2281,-8.262,-8.2903,-8.3004,-8.2874,-8.2897,-8.2929,-8.3485,-8.3744,-8.3549,-8.4031,-8.4435,-8.4121,-8.3936,-8.3375,-8.2519,-8.2016,-8.1294,-8.0049,-7.9717,-7.9344,-7.8803,-7.828,-7.7933,-7.785,-7.6943,-7.6708,-7.6829,-7.6047,-7.5456,-7.5198,-7.5105,-7.503,0.0,-2.7024,-2.7051,-2.7635,-2.81,0.0,0.0,0.0,0.0,0.0,0.0,0.0,0.0,-2.7084,-2.6741,-2.5484,-2.5423,-2.5279,-2.4438,0.0,0.0,0.0,0.0,0.0,0.0,0.0,0.0,0.0,0.0,0.0,0.0,-2.9551,-3.124,-3.3646,-3.5467,-3.7345,-3.9363,-4.1395,-4.2938,-4.4064,-4.5958,-4.7521,-4.8893,-5.0607,-5.2124,0.0,0.0,0.0,0.0,-5.9799,-6.0832,-6.1643,-6.3067,-6.3935,-6.4705,-6.647,-6.7266,-6.7828,-6.9101,-7.0038,-7.0667,-7.0835,-7.1828,-7.3015,-7.3378,-7.4616,-7.6162,-7.7477,-7.7536,-7.7618,-7.922,-7.9363,-7.9229,-7.9928,-8.0215,-8.046,-8.0728,-8.1147,-8.1458,-8.1446,-8.19,-8.2342,-8.2425,-8.2398,-8.2298,-8.244,-8.3031,-8.3296,-8.317,-8.3656,-8.3922,-8.3643,-8.3503,-8.3238,-8.2741,-8.231,-8.1633,-8.0555,-8.0594,-8.0346,-7.952,-7.9318,-7.9005,-7.8639,-7.7764,-7.7414,-7.7506,-7.647,-7.5653,-7.5198,-7.5006,-7.5102,0.0,0.0,0.0,0.0,0.0,0.0,0.0,0.0,0.0,0.0,0.0,0.0,0.0,-2.547,-2.5218,-2.4791,-2.5007,-2.4624,0.0,0.0,0.0,0.0,0.0,0.0,0.0,0.0,0.0,0.0,0.0,0.0,0.0,-2.8375,-2.9859,-3.1808,-3.4126,-3.6171,-3.7674,-3.9732,-4.083,-4.1171,-4.4501,-4.6167,-4.6461,-4.9374,-5.1422,0.0,0.0,0.0,0.0,-5.8534,-5.9642,-6.0378,-6.2113,-6.302,-6.3615,-6.5373,-6.6167,-6.6677,-6.8659,-6.9407,-6.9678,-7.0196,-7.0843,-7.1587,-7.2897,-7.4145,-7.5367,-7.6187,-7.6718,-7.7148,-7.7803,-7.7513,-7.748,-7.8853,-7.8769,-7.8809,-8.0179,-8.0583,-8.0639,-8.0373,-8.1003,-8.1359,-8.1079,-8.1345,-8.1665,-8.1944,-8.2377,-8.2669,-8.3088,-8.33,-8.3565,-8.3488,-8.3208,-8.282,-8.2064,-8.2033,-8.1787,-8.111,-8.1113,-8.083,-8.0144,-8.0075,-7.9731,-7.9099,-7.8299,-7.7917,-7.7722,-7.6267,-7.5431,-7.5227,-7.4972,-7.5172,-2.4975,0.0,-2.4846,-2.5179,-2.5376,0.0,0.0,0.0,0.0,0.0,0.0,0.0,0.0,0.0,-2.2139,-2.0361,-1.9765,-1.8968,-1.7385,0.0,0.0,0.0,0.0,0.0,0.0,0.0,0.0,0.0,0.0,0.0,0.0,-2.8077,-2.968,-3.1206,-3.3111,-3.4923,-3.6684,-3.8977,-4.0491,-4.1311,-4.2967,-4.4704,-4.6609,-4.7845,-4.9357,0.0,0.0,0.0,-5.5102,-5.6797,-5.7893,-5.8619,-6.0345,-6.1499,-6.233,-6.3886,-6.4707,-6.5073,-6.5609,-6.6787,-6.8275,-6.9852,-7.0251,-7.0309,-7.1572,-7.2743,-7.3898,-7.499,-7.5281,-7.5534,-7.6792,-7.6935,-7.6875,-7.748,-7.7373,-7.7462,-7.8469,-7.8749,-7.8868,-7.9495,-8.0126,-8.0625,-8.0674,-8.1014,-8.1345,-8.1634,-8.1663,-8.1783,-8.2345,-8.2534,-8.2584,-8.2577,-8.2504,-8.2168,-8.1463,-8.2034,-8.2065,-8.111,-8.1383,-8.1095,-8.0144,-8.0075,-7.9953,-7.9499,-7.8707,-7.7777,-7.6636,-7.6385,-7.6342,-7.6252,-7.6262,-7.6038,-2.2843,-2.3317,-2.3951,-2.4189,-2.4313,-2.4197,0.0,0.0,0.0,0.0,0.0,0.0,0.0,0.0,0.0,-1.8207,-1.7439,0.0,0.0,0.0,0.0,0.0,0.0,0.0,0.0,0.0,0.0,0.0,0.0,0.0,0.0,-2.7903,-2.9423,-3.0921,-3.2372,-3.4032,-3.6014,-3.797,-3.9391,-4.0373,-4.1955,-4.3591,-4.5368,-4.7001,-4.8499,0.0,0.0,0.0,-5.4166,-5.5537,-5.6686,-5.7691,-5.9135,-6.0059,-6.0712,-6.2427,-6.3208,-6.3586,-6.4504,-6.5926,-6.749,-6.8865,-6.9404,-6.9687,-7.0691,-7.1557,-7.2482,-7.3898,-7.4309,-7.4475,-7.5323,-7.5479,-7.5628,-7.6171,-7.6341,-7.6468,-7.729,-7.7543,-7.7717,-7.7996,-7.8844,-7.9414,-7.9321,-7.9436,-7.9873,-8.0771,-8.046,-8.0617,-8.1597,-8.1463,-8.1328,-8.144,-8.1102,-8.0699,-8.0699,-8.1144,-8.133,-8.0891,-8.0915,-8.0626,-7.9937,-8.0046,-7.9731,-7.8889,-7.8249,-7.7539,-7.6524,-7.6593,-7.6594,-7.6561,-7.6551,-7.6498,-2.079,-2.1729,-2.2911,-2.3165,-2.3192,-2.2959,0.0,0.0,0.0,0.0,0.0,0.0,0.0,0.0,0.0,0.0,0.0,0.0,0.0,0.0,0.0,0.0,0.0,0.0,0.0,0.0,0.0,0.0,0.0,0.0,0.0,-2.7875,-2.9211,-3.0891,-3.2133,-3.3598,-3.5454,-3.6906,-3.815,-3.9235,-4.1244,-4.2695,-4.3737,-4.6358,-4.8018,-4.8953,0.0,0.0,-5.3437,-5.4469,-5.5588,-5.6985,-5.8111,-5.8794,-5.9264,-6.0998,-6.166,-6.2021,-6.4097,-6.5627,-6.6695,-6.7497,-6.8221,-6.8911,-6.9635,-7.0265,-7.0992,-7.2365,-7.3303,-7.3799,-7.3708,-7.3883,-7.4181,-7.482,-7.5169,-7.5572,-7.6236,-7.6561,-7.6782,-7.6538,-7.7413,-7.8042,-7.7707,-7.7873,-7.8331,-7.9547,-7.9249,-7.9258,-8.0554,-8.0166,-7.9969,-8.0448,-7.9592,-7.9357,-7.9981,-8.0019,-8.0074,-8.0399,-8.03,-7.9906,-7.9603,-7.9732,-7.9252,-7.786,-7.7511,-7.7152,-7.667,-7.6724,-7.6725,-7.6725,-7.6604,-7.692,-2.0695,-2.0525,-2.0604,-2.1247,-2.141,-2.1462,0.0,0.0,0.0,0.0,0.0,0.0,0.0,0.0,0.0,0.0,0.0,0.0,0.0,0.0,0.0,0.0,0.0,0.0,0.0,0.0,0.0,0.0,0.0,0.0,0.0,-2.794,-2.932,-3.0724,-3.2895,-3.4424,-3.5218,-3.5995,-3.7309,-3.9208,-4.0606,-4.1971,-4.3429,-4.502,-4.6616,-4.8128,0.0,-5.0627,-5.2044,-5.31,-5.4287,-5.5476,-5.6591,-5.7642,-5.8662,-5.9766,-6.0223,-6.0655,-6.2642,-6.3897,-6.4727,-6.5903,-6.6213,-6.6264,-6.7212,-6.789,-6.8601,-6.9623,-7.1575,-7.3195,-7.2892,-7.3196,-7.362,-7.344,-7.3726,-7.4237,-7.4705,-7.5369,-7.5934,-7.601,-7.6984,-7.7577,-7.733,-7.7899,-7.8367,-7.8203,-7.7939,-7.786,-7.8405,-7.8375,-7.8691,-7.9632,-7.937,-7.9358,-8.0082,-7.9351,-7.904,-7.9656,-7.9949,-7.9827,-7.9164,-7.8906,-7.8422,-7.7532,-7.7361,-7.7004,-7.641,-7.7069,-7.7446,-7.7446,-7.7891,-7.7914,-1.9882,-1.9723,-1.9665,-2.0065,-2.0427,0.0,0.0,0.0,0.0,0.0,0.0,0.0,0.0,0.0,0.0,0.0,0.0,0.0,0.0,0.0,0.0,0.0,0.0,0.0,0.0,0.0,0.0,0.0,0.0,0.0,0.0,0.0,-3.0085,-3.1936,-3.3367,-3.4808,-3.6151,-3.6659,-3.7907,-3.9945,-4.0855,-4.2149,-4.391,-4.4969,-4.616,-4.7355,0.0,-5.0055,-5.1488,-5.2353,-5.353,-5.4863,-5.5895,-5.6771,-5.7581,-5.9025,-5.9926,-6.0591,-6.1605,-6.2507,-6.3411,-6.4467,-6.491,-6.5283,-6.6346,-6.6988,-6.7591,-6.8507,-7.0285,-7.1883,-7.1883,-7.2416,-7.2902,-7.2902,-7.3137,-7.3462,-7.3471,-7.404,-7.4403,-7.3957,-7.4977,-7.5792,-7.5331,-7.6088,-7.6696,-7.6731,-7.6879,-7.703,-7.7362,-7.7334,-7.7463,-7.8093,-7.7684,-7.7682,-7.8376,-7.7872,-7.787,-7.9004,-7.9069,-7.8847,-7.8531,-7.7702,-7.7365,-7.7166,-7.6901,-7.6733,-7.6524,-7.7278,-7.761,-7.761,-7.8188,-7.8452,-1.9036,-1.9007,-1.9029,0.0,0.0,0.0,0.0,0.0,0.0,0.0,0.0,0.0,0.0,0.0,0.0,0.0,0.0,0.0,0.0,0.0,0.0,0.0,0.0,0.0,0.0,0.0,0.0,0.0,0.0,0.0,0.0,0.0,-3.0976,-3.2973,-3.4102,-3.5378,-3.6939,-3.7666,-3.8797,-4.0224,-4.1129,-4.2425,-4.3914,-4.5048,-4.6046,-4.6866,-4.825,-4.9737,-5.1048,-5.188,-5.3049,-5.4402,-5.5229,-5.6001,-5.6697,-5.8477,-5.9614,-6.0378,-6.0693,-6.1493,-6.2361,-6.3199,-6.382,-6.4477,-6.536,-6.6006,-6.6643,-6.7384,-6.8716,-6.9969,-7.0652,-7.1352,-7.1919,-7.2067,-7.2472,-7.2707,-7.2552,-7.2874,-7.3044,-7.2578,-7.3434,-7.4051,-7.3649,-7.4451,-7.5217,-7.5182,-7.5592,-7.6091,-7.6377,-7.6319,-7.6261,-7.682,-7.6364,-7.6211,-7.6861,-7.6738,-7.7087,-7.8282,-7.8089,-7.7896,-7.7896,-7.7055,-7.6774,-7.7041,-7.665,-7.6524,-7.6896,-7.7389,-7.761,-7.7719,-7.8296,-7.8724,-1.8535,-1.8313,-1.8167,-1.7296,0.0,0.0,0.0,0.0,0.0,0.0,0.0,0.0,0.0,0.0,0.0,0.0,0.0,0.0,0.0,0.0,0.0,0.0,0.0,0.0,0.0,0.0,0.0,0.0,0.0,0.0,0.0,0.0,0.0,-3.2973,-3.5305,-3.662,-3.6939,-3.8478,-3.9307,-3.9486,-4.1346,-4.2456,-4.2828,-4.4642,-4.5982,-4.6834,-4.8263,-4.9442,-5.0562,-5.1789,-5.2876,-5.3861,-5.4424,-5.5417,-5.6712,-5.8187,-5.8909,-5.9254,-6.0151,-6.0947,-6.164,-6.1919,-6.2509,-6.31,-6.324,-6.4141,-6.5135,-6.5244,-6.6135,-6.7394,-6.932,-7.0035,-7.0309,-7.0398,-7.1041,-7.174,-7.1959,-7.2418,-7.2897,-7.3238,-7.3507,-7.3694,-7.3394,-7.4318,-7.4658,-7.3481,-7.3931,-7.4445,-7.4924,-7.4881,-7.5284,-7.6323,-7.6123,-7.6045,-7.6429,-7.6861,-7.7168,-7.7538,-7.7595,-7.7595,-7.7595,-7.7275,-7.721,-7.721,-7.6911,-7.6896,-7.7199,-7.7499,-7.7719,-7.8079,-7.8617,-7.8936,-1.8526,-1.817,-1.7738,0.0,0.0,0.0,0.0,0.0,0.0,0.0,0.0,0.0,0.0,0.0,0.0,0.0,0.0,0.0,0.0,0.0,0.0,0.0,0.0,0.0,0.0,0.0,0.0,0.0,0.0,0.0,0.0,0.0,0.0,-3.4982,-3.6328,-3.7571,-3.8772,-3.9637,-4.0445,-4.1085,-4.2293,-4.3519,-4.497,-4.5619,-4.639,-4.7136,-4.8199,-4.9267,-5.0307,-5.0883,-5.2096,-5.3616,-5.4635,-5.5686,-5.6707,-5.7391,-5.7731,-5.7933,-5.8472,-5.8816,-5.9199,-6.0504,-6.0897,-6.115,-6.2431,-6.2926,-6.3169,-6.3763,-6.4173,-6.5048,-6.7914,-6.8905,-6.927,-6.9764,-7.0066,-7.0331,-7.0603,-7.1035,-7.1459,-7.1745,-7.2118,-7.2279,-7.1807,-7.2483,-7.2916,-7.2497,-7.2999,-7.3691,-7.4033,-7.4104,-7.425,-7.4646,-7.4479,-7.4531,-7.5079,-7.488,-7.5051,-7.5762,-7.6474,-7.6951,-7.7102,-7.6837,-7.6797,-7.6911,-7.6993,-7.7199,-7.7389,-7.7719,-7.8079,-7.8403,-7.8724,-7.9146,-1.8761,-1.8193,-1.7492,0.0,0.0,0.0,0.0,0.0,0.0,0.0,0.0,0.0,0.0,0.0,0.0,0.0,0.0,0.0,0.0,0.0,0.0,0.0,0.0,0.0,0.0,0.0,0.0,0.0,0.0,0.0,0.0,0.0,0.0,-3.5868,-3.7099,-3.834,-3.9589,-4.043,-4.1492,-4.2879,-4.339,-4.4522,-4.5981,-4.6454,-4.686,-4.7335,-4.8327,-4.9258,-5.0092,-5.046,-5.1764,-5.3511,-5.475,-5.5628,-5.6437,-5.708,-5.7241,-5.7254,-5.7623,-5.779,-5.793,-5.9267,-5.9608,-5.9803,-6.1213,-6.1687,-6.1776,-6.2436,-6.2647,-6.3274,-6.6028,-6.7133,-6.7706,-6.8788,-6.8897,-6.8963,-6.9566,-6.9839,-7.0046,-7.0315,-7.056,-7.06,-7.0042,-7.0692,-7.1168,-7.097,-7.1671,-7.2433,-7.286,-7.3163,-7.3467,-7.3804,-7.3643,-7.3607,-7.4053,-7.3652,-7.3798,-7.4861,-7.556,-7.6103,-7.6368,-7.6425,-7.6637,-7.6863,-7.7088,-7.7422,-7.7719,-7.7971,-7.8296,-7.8617,-7.8936,-7.9355,-1.9218,-1.8298,0.0,0.0,0.0,0.0,0.0,0.0,0.0,0.0,0.0,0.0,0.0,0.0,0.0,0.0,0.0,0.0,0.0,0.0,0.0,0.0,0.0,0.0,0.0,0.0,0.0,0.0,0.0,0.0,0.0,0.0,-3.4133,-3.5109,-3.7617,-3.8953,-3.9027,-4.0763,-4.2616,-4.4524,-4.4886,-4.5111,-4.5346,-4.6741,-4.7404,-4.7504,-4.8763,-4.9456,-4.991,-5.0815,-5.2043,-5.3521,-5.4487,-5.5104,-5.5648,-5.7339,-5.7588,-5.7175,-5.7989,-5.8273,-5.8273,-5.8273,-5.8804,-5.9345,-5.9345,-6.0192,-6.1165,-6.1165,-6.152,-6.2158,-6.3479,-6.4384,-6.5426,-6.7078,-6.7488,-6.7803,-6.905,-6.9045,-6.8841,-6.931,-6.9203,-6.8918,-6.84,-6.9316,-6.9779,-6.8726,-6.9663,-7.0598,-7.1285,-7.2096,-7.2919,-7.401,-7.3836,-7.3724,-7.3724,-7.3639,-7.4072,-7.5169,-7.5169,-7.5201,-7.5201,-7.6282,-7.6896,-7.7199,-7.7199,-7.7532,-7.8079,-7.8079,-7.8403,-7.8936,-7.9284,-7.9596,-1.7639,0.0,0.0,0.0,0.0,0.0,0.0,0.0,0.0,0.0,0.0,0.0,0.0,0.0,0.0,0.0,0.0,0.0,0.0,0.0,0.0,0.0,0.0,0.0,0.0,0.0,0.0,0.0,0.0,0.0,0.0,-3.3232,-3.4841,-3.738,-3.8577,-3.9781,-4.115,-4.243,-4.3751,-4.5082,-4.6024,-4.6715,-4.7209,-4.7704,-4.7799,-4.7621,-4.8923,-4.9474,-4.9699,-5.1451,-5.225,-5.237,-5.3392,-5.3993,-5.4378,-5.4894,-5.5005,-5.5008,-5.5826,-5.5699,-5.536,-5.6573,-5.6958,-5.7069,-5.7752,-5.852,-5.9152,-5.8994,-5.9073,-5.944,-6.066,-6.115,-6.2057,-6.5302,-6.6107,-6.6223,-6.6889,-6.7201,-6.7521,-6.8035,-6.8249,-6.8219,-6.7844,-6.7961,-6.8041,-6.8079,-6.8698,-6.9538,-7.0526,-7.0928,-7.1123,-7.144,-7.1703,-7.2035,-7.2767,-7.2678,-7.2967,-7.4051,-7.4083,-7.4762,-7.6282,-7.6686,-7.7008,-7.7499,-7.7499,-7.7829,-7.8724,-7.8724,-7.8936,-7.9562,-7.9596,-7.9801,-1.8335,0.0,0.0,0.0,0.0,0.0,0.0,0.0,0.0,0.0,0.0,0.0,0.0,0.0,0.0,0.0,0.0,0.0,0.0,0.0,0.0,0.0,0.0,0.0,0.0,0.0,0.0,0.0,0.0,0.0,0.0,-3.3879,-3.5399,-3.7965,-3.881,-3.9971,-4.1652,-4.2737,-4.406,-4.5752,-4.6524,-4.7445,-4.861,-4.861,-4.8467,-4.8281,-4.9325,-4.9595,-4.947,-5.1255,-5.1871,-5.1665,-5.2731,-5.3496,-5.3975,-5.4028,-5.408,-5.4255,-5.4721,-5.4525,-5.4206,-5.524,-5.5419,-5.5399,-5.6273,-5.6944,-5.7481,-5.7647,-5.7846,-5.8255,-5.9172,-5.9509,-6.0391,-6.36,-6.4435,-6.4615,-6.513,-6.5556,-6.5985,-6.6085,-6.6296,-6.6346,-6.6377,-6.637,-6.6522,-6.7057,-6.7523,-6.8241,-6.9566,-6.9663,-6.9895,-7.0415,-7.1097,-7.1714,-7.2339,-7.2476,-7.2994,-7.3858,-7.3942,-7.4626,-7.621,-7.6424,-7.6906,-7.7829,-7.7829,-7.8046,-7.8724,-7.883,-7.9146,-7.9596,-7.9801,-7.9904,0.0,0.0,0.0,0.0,0.0,0.0,0.0,0.0,0.0,0.0,0.0,0.0,0.0,0.0,0.0,0.0,0.0,0.0,0.0,0.0,0.0,0.0,0.0,0.0,0.0,0.0,0.0,0.0,0.0,0.0,0.0,-3.474,-3.5828,-3.7413,-3.8649,-3.9891,-4.114,-4.2344,-4.4064,-4.6368,-4.6649,-4.7785,-4.953,-4.935,-4.9256,-4.9308,-4.9827,-4.975,-4.9358,-5.0524,-5.1102,-5.126,-5.2294,-5.3211,-5.3821,-5.3957,-5.4044,-5.4115,-5.4115,-5.4115,-5.4115,-5.4187,-5.4122,-5.4164,-5.4952,-5.5526,-5.6055,-5.6801,-5.7281,-5.7786,-5.8448,-5.8905,-5.976,-6.1745,-6.2557,-6.3,-6.3683,-6.4087,-6.4228,-6.3851,-6.3835,-6.3969,-6.4308,-6.4619,-6.5132,-6.5923,-6.6242,-6.6905,-6.8274,-6.8501,-6.8953,-7.046,-7.1418,-7.2047,-7.2106,-7.2874,-7.3542,-7.4244,-7.4307,-7.4642,-7.5554,-7.5952,-7.6747,-7.7981,-7.8046,-7.8296,-7.8617,-7.883,-7.9146,-7.9492,-7.9699,-8.0006,0.0,0.0,0.0,0.0,0.0,0.0,0.0,0.0,0.0,0.0,0.0,0.0,0.0,0.0,0.0,0.0,0.0,0.0,0.0,0.0,0.0,0.0,0.0,0.0,0.0,0.0,0.0,0.0,0.0,0.0,-3.4678,-3.5868,-3.6933,-3.7911,-3.9805,-4.128,-4.2294,-4.4691,-4.6195,0.0,-4.8411,-4.9365,-4.9825,-4.9649,-4.9597,-4.9602,-4.9081,-4.931,-5.0024,-4.9799,-5.0174,-5.0868,-5.0628,-5.0777,-5.1067,-5.1104,-5.1511,-5.2055,-5.2045,-5.1953,-5.1921,-5.245,-5.2618,-5.27,-5.339,-5.4076,-5.458,-5.4581,-5.465,-5.5001,-5.6233,-5.6434,-5.6755,-5.8444,-6.0288,-6.1624,-6.165,-6.2043,-6.2498,-6.291,-6.3134,-6.3415,-6.3935,-6.3948,-6.4167,-6.5099,-6.5337,-6.581,-6.6998,-6.7231,-6.7654,-6.869,-6.9878,-7.0897,-7.1654,-7.2658,-7.3404,-7.3508,-7.352,-7.4182,-7.5734,-7.6276,-7.6768,-7.7256,-7.7998,-7.8617,-7.9179,-7.9492,-7.9801,-8.0006,-8.0107,-8.0107,0.0,0.0,0.0,0.0,0.0,0.0,0.0,0.0,0.0,0.0,0.0,0.0,0.0,0.0,0.0,0.0,0.0,0.0,0.0,0.0,0.0,0.0,0.0,0.0,0.0,0.0,0.0,0.0,0.0,0.0,-3.6489,-3.7375,-3.8121,-3.8701,-4.0282,-4.1577,-4.261,-4.4495,-4.6157,-4.7442,-4.8515,-4.9347,-5.0006,-4.9695,-4.9687,-4.9889,-4.9129,-4.9025,-4.9448,-4.9636,-4.9775,-4.992,-5.009,-5.0221,-5.0271,-5.0393,-5.0605,-5.0933,-5.1012,-5.0882,-5.0822,-5.1185,-5.1239,-5.1329,-5.2029,-5.2726,-5.3311,-5.3504,-5.3794,-5.4153,-5.4811,-5.503,-5.5308,-5.6385,-5.8198,-5.9736,-6.0011,-6.0305,-6.0762,-6.1316,-6.1525,-6.1816,-6.268,-6.3283,-6.3809,-6.4553,-6.4662,-6.5008,-6.633,-6.6467,-6.6954,-6.8187,-6.928,-7.0336,-7.1193,-7.2444,-7.3229,-7.3437,-7.3704,-7.437,-7.5471,-7.603,-7.6854,-7.7914,-7.8525,-7.9074,-7.9388,-7.9699,-7.9904,-8.0006,-8.0309,-8.0309,0.0,0.0,0.0,0.0,0.0,0.0,0.0,0.0,0.0,0.0,0.0,0.0,0.0,0.0,0.0,0.0,0.0,0.0,0.0,0.0,0.0,0.0,0.0,0.0,0.0,0.0,0.0,0.0,0.0,-3.8882,-3.8513,-3.9061,-3.9445,-3.9634,-4.0841,-4.1967,-4.2977,-4.4181,-4.5856,-4.7993,-4.8154,-4.8837,-4.9983,-4.9449,-4.9466,-4.982,-4.9101,-4.8672,-4.846,-4.9213,-4.9204,-4.879,-4.9669,-4.9898,-4.972,-4.9984,-4.998,-4.9903,-5.0021,-5.0053,-5.0117,-5.0227,-5.0174,-5.0192,-5.0991,-5.1502,-5.2051,-5.2798,-5.3324,-5.3662,-5.3846,-5.4154,-5.4555,-5.5014,-5.6265,-5.7559,-5.8426,-5.8907,-5.923,-5.9756,-5.9869,-6.0169,-6.1354,-6.2382,-6.3348,-6.4042,-6.3914,-6.4321,-6.5775,-6.5998,-6.6593,-6.8121,-6.9169,-7.0059,-7.0921,-7.2217,-7.3077,-7.3375,-7.4072,-7.4603,-7.4996,-7.5704,-7.6944,-7.8607,-7.912,-7.9358,-7.9492,-7.9699,-7.9904,-8.0006,-8.041,-8.051,0.0,0.0,0.0,0.0,0.0,0.0,0.0,0.0,0.0,0.0,0.0,0.0,0.0,0.0,0.0,0.0,0.0,0.0,0.0,0.0,0.0,0.0,0.0,0.0,0.0,0.0,0.0,0.0,0.0,0.0,-3.9715,-4.0723,-4.1121,-4.0615,-4.2494,-4.3955,-4.4833,-4.6653,-4.7787,-4.826,-4.8624,-4.911,-4.9661,-4.8934,-4.8657,-4.8703,-4.7913,-4.7702,-4.8016,-4.7357,-4.7189,-4.7498,-4.8267,-4.7868,-4.6943,-4.7609,-4.7831,-4.7867,-4.7831,-4.82,-4.886,-4.9559,-4.9661,-4.9642,-5.0326,-5.0526,-5.0613,-5.1321,-5.1509,-5.1849,-5.3135,-5.3369,-5.3401,-5.4029,-5.4606,-5.5389,-5.6923,-5.7734,-5.8222,-5.8804,-5.9531,-6.0266,-6.092,-6.0985,-6.1428,-6.2832,-6.2949,-6.3484,-6.4953,-6.518,-6.5958,-6.8092,-6.8994,-7.0029,-7.1426,-7.2244,-7.2776,-7.2768,-7.3524,-7.4161,-7.4902,-7.5869,-7.6808,-7.7783,-7.8421,-7.9162,-7.9801,-8.0006,-8.0309,-8.051,-8.061,-8.0709,0.0,0.0,0.0,0.0,0.0,0.0,0.0,0.0,0.0,0.0,0.0,0.0,0.0,0.0,0.0,0.0,0.0,0.0,0.0,0.0,0.0,0.0,0.0,0.0,0.0,0.0,0.0,0.0,0.0,-4.2676,-4.2883,-4.316,-4.3382,-4.342,-4.4712,-4.5699,-4.6291,-4.7701,-4.8783,-4.9564,-4.9911,-5.0078,-4.9892,-4.8713,-4.8424,-4.8699,-4.7554,-4.7215,-4.7496,-4.6653,-4.6507,-4.6757,-4.7091,-4.6831,-4.6382,-4.7231,-4.7527,-4.7566,-4.8048,-4.8419,-4.8716,-4.9012,-4.9085,-4.9084,-4.9338,-4.9994,-5.0684,-5.0968,-5.1566,-5.2308,-5.2908,-5.294,-5.3026,-5.3964,-5.433,-5.4811,-5.6094,-5.6558,-5.7009,-5.7947,-5.9108,-5.9979,-6.002,-6.0198,-6.0819,-6.2139,-6.2293,-6.2881,-6.479,-6.4987,-6.5721,-6.7535,-6.8316,-6.9185,-7.0314,-7.1398,-7.2267,-7.2915,-7.3615,-7.445,-7.5291,-7.5952,-7.6888,-7.8074,-7.8621,-7.9161,-7.96,-8.0206,-8.061,-8.0808,-8.1005,-8.121,0.0,0.0,0.0,0.0,0.0,0.0,0.0,0.0,0.0,0.0,0.0,0.0,0.0,0.0,0.0,0.0,0.0,0.0,0.0,0.0,0.0,0.0,0.0,0.0,0.0,0.0,0.0,0.0,0.0,-4.4251,-4.5462,-4.5318,-4.5465,-4.601,-4.6669,-4.7282,-4.7873,-4.8549,-4.9337,-5.0091,-5.0272,-5.0105,-4.9747,-4.8364,-4.8111,-4.8583,-4.6978,-4.6471,-4.665,-4.6128,-4.586,-4.5913,-4.629,-4.6215,-4.5923,-4.6806,-4.6954,-4.6884,-4.789,-4.8261,-4.8336,-4.8637,-4.8785,-4.882,-4.875,-4.9676,-5.0823,-5.0969,-5.1879,-5.2852,-5.2987,-5.3024,-5.3271,-5.4074,-5.4603,-5.5071,-5.5978,-5.6195,-5.6512,-5.7633,-5.8806,-5.9663,-5.9511,-5.9865,-6.0664,-6.1795,-6.1975,-6.2704,-6.4472,-6.4825,-6.553,-6.706,-6.8035,-6.8875,-6.9704,-7.0925,-7.1934,-7.281,-7.3628,-7.4465,-7.5289,-7.6088,-7.7033,-7.8156,-7.8914,-7.9491,-7.9892,-8.0437,-8.0808,-8.1102,-8.1297,-8.1708,0.0,0.0,0.0,0.0,0.0,0.0,0.0,0.0,0.0,0.0,0.0,0.0,0.0,0.0,0.0,0.0,0.0,0.0,0.0,0.0,0.0,0.0,0.0,0.0,0.0,0.0,0.0,0.0,0.0,-4.5196,-4.6354,-4.6709,-4.7113,-4.7562,-4.7977,-4.8697,-4.9748,-4.9686,-4.9469,-4.9053,-4.8457,-4.8336,-4.8643,-4.7831,-4.7533,-4.767,-4.5796,-4.516,-4.5388,-4.5287,-4.4935,-4.4565,-4.6009,-4.5736,-4.4579,-4.5342,-4.5156,-4.4766,-4.6284,-4.6813,-4.7074,-4.8642,-4.9094,-4.8993,-4.8993,-4.9554,-5.0302,-5.1046,-5.1786,-5.2481,-5.3256,-5.3907,-5.4283,-5.4091,-5.5073,-5.6255,-5.6816,-5.7183,-5.7618,-5.8263,-5.8732,-5.9219,-5.9766,-6.0305,-6.091,-6.1695,-6.2446,-6.3154,-6.3815,-6.4449,-6.5467,-6.6995,-6.854,-6.9748,-7.0669,-7.1274,-7.1694,-7.2034,-7.3198,-7.4014,-7.4308,-7.6392,-7.7588,-7.7656,-7.9091,-8.0219,-8.0936,-8.097,-8.1102,-8.1393,-8.1393,-8.1902,0.0,0.0,0.0,0.0,0.0,0.0,0.0,0.0,0.0,0.0,0.0,0.0,0.0,0.0,0.0,0.0,0.0,0.0,0.0,0.0,0.0,0.0,0.0,0.0,0.0,0.0,0.0,0.0,0.0,0.0,-4.832,-4.8685,-4.9298,-5.0425,-5.0605,-5.0841,-5.1194,-5.0937,-5.0758,-5.0641,-4.9145,-4.8458,-4.8604,-4.6925,-4.627,-4.6284,-4.4573,-4.4461,-4.5401,-4.4871,-4.4288,-4.3737,-4.4832,-4.4579,-4.3784,-4.5103,-4.5798,-4.6232,-4.7236,-4.8009,-4.8664,-4.9165,-4.9727,-5.014,-5.0076,-5.105,-5.2207,-5.2401,-5.3309,-5.4279,-5.4537,-5.501,-5.5502,-5.5733,-5.6864,-5.786,-5.7872,-5.841,-5.8729,-5.8211,-5.9004,-5.9687,-5.9832,-6.0117,-6.0627,-6.1384,-6.1919,-6.2726,-6.3801,-6.4664,-6.5517,-6.646,-6.8368,-6.9748,-7.0106,-7.1163,-7.2083,-7.2668,-7.3126,-7.3877,-7.4889,-7.5891,-7.7114,-7.8554,-7.9231,-7.9917,-8.0577,-8.1057,-8.1393,-8.1715,-8.1715,-8.2431,0.0,0.0,0.0,0.0,0.0,0.0,0.0,0.0,0.0,0.0,0.0,0.0,0.0,0.0,0.0,0.0,0.0,0.0,0.0,0.0,0.0,0.0,0.0,0.0,0.0,0.0,0.0,0.0,0.0,0.0,-4.9898,-5.0204,-5.0771,-5.1828,-5.1989,-5.1805,-5.1311,-5.1185,-5.0946,-5.057,-4.9011,-4.8379,-4.8441,-4.6445,-4.5439,-4.5181,-4.3895,-4.3877,-4.4728,-4.3924,-4.3305,-4.301,-4.3837,-4.381,-4.3482,-4.4796,-4.5876,-4.6798,-4.7559,-4.8415,-4.9294,-4.9792,-5.0357,-5.0885,-5.1186,-5.2429,-5.3747,-5.3644,-5.4709,-5.5844,-5.5808,-5.6218,-5.68,-5.7346,-5.8033,-5.8531,-5.8237,-5.906,-5.9585,-5.8792,-5.9444,-6.0177,-6.0258,-6.0528,-6.1051,-6.1778,-6.2358,-6.2999,-6.392,-6.4804,-6.5627,-6.6028,-6.8357,-6.9982,-7.0065,-7.1438,-7.2537,-7.3103,-7.3619,-7.4253,-7.5337,-7.6307,-7.7637,-7.9431,-7.9925,-8.0444,-8.1017,-8.144,-8.1776,-8.2059,-8.2336,-8.333,0.0,0.0,0.0,0.0,0.0,0.0,0.0,0.0,0.0,0.0,0.0,0.0,0.0,0.0,0.0,0.0,0.0,0.0,0.0,0.0,0.0,0.0,0.0,0.0,0.0,0.0,0.0,0.0,0.0,-5.0475,-5.1011,-5.1222,-5.1424,-5.1576,-5.1943,-5.1524,-5.0162,-5.0472,-4.9958,-4.8569,-4.7967,-4.7798,-4.7978,-4.633,-4.5218,-4.4503,-4.3622,-4.3284,-4.3262,-4.2382,-4.207,-4.2272,-4.3088,-4.3453,-4.3617,-4.4448,-4.5315,-4.621,-4.7084,-4.7888,-4.8815,-5.061,-5.1121,-5.1194,-5.2151,-5.352,-5.478,-5.478,-5.5885,-5.7062,-5.7099,-5.7489,-5.7974,-5.8591,-5.848,-5.817,-5.7894,-5.9124,-6.0208,-5.9938,-6.0129,-6.0473,-6.1055,-6.1597,-6.2092,-6.2858,-6.3658,-6.4074,-6.393,-6.5026,-6.5807,-6.5807,-6.8566,-7.0476,-7.0684,-7.2104,-7.3088,-7.3334,-7.451,-7.5342,-7.5596,-7.7754,-7.9355,-8.019,-8.0921,-8.1687,-8.2488,-8.2245,-8.2245,-8.2557,-8.3358,-8.4506,-3.4288,0.0,0.0,0.0,0.0,0.0,0.0,0.0,0.0,0.0,0.0,0.0,0.0,0.0,0.0,0.0,0.0,0.0,0.0,0.0,0.0,0.0,0.0,0.0,0.0,0.0,0.0,0.0,-5.0844,-5.0926,-5.1682,-5.2307,-5.2758,-5.288,-5.3171,-5.2645,-5.1224,-5.0936,-5.0078,-4.8641,-4.7508,-4.6732,-4.6255,-4.5322,-4.4411,-4.3622,-4.2784,-4.2096,-4.1606,-4.1945,-4.2096,-4.2222,-4.3114,-4.3479,-4.3681,-4.5141,-4.6656,-4.8071,-4.8946,-5.0187,-5.1619,-5.2775,-5.347,-5.4088,-5.499,-5.5949,-5.6793,-5.6732,-5.7428,-5.8358,-5.9363,-5.9215,-5.8912,-5.945,-5.9424,-5.9206,-5.8877,-5.9492,-5.9957,-5.9418,-5.9666,-6.0189,-6.0662,-6.1119,-6.1628,-6.2263,-6.2892,-6.3519,-6.4039,-6.5391,-6.6329,-6.6329,-6.9038,-7.0843,-7.0923,-7.2348,-7.3252,-7.3334,-7.4156,-7.4956,-7.5561,-7.6745,-7.8276,-8.019,-8.0434,-8.1255,-8.2796,-8.3079,-8.3265,-8.3392,-8.4868,-8.5799,0.0,0.0,0.0,0.0,0.0,0.0,0.0,0.0,0.0,0.0,0.0,0.0,0.0,0.0,0.0,0.0,0.0,0.0,0.0,0.0,0.0,0.0,0.0,0.0,0.0,0.0,0.0,-5.1932,-5.177,-5.1882,-5.2396,-5.2422,-5.2532,-5.2625,-5.2518,-5.1894,-5.0826,-5.0591,-4.9899,-4.8818,-4.7415,-4.6562,-4.6165,-4.5087,-4.4073,-4.3219,-4.2784,-4.2333,-4.1919,-4.2434,-4.2422,-4.2259,-4.3516,-4.4272,-4.4852,-4.6594,-4.8112,-4.948,-5.0672,-5.1992,-5.3351,-5.4623,-5.532,-5.5798,-5.6702,-5.7539,-5.8158,-5.8098,-5.8874,-5.9961,-6.1014,-6.0604,-6.0003,-6.0476,-5.9971,-5.9461,-5.9808,-5.97,-5.9648,-5.9781,-5.9901,-6.0272,-6.1077,-6.127,-6.1576,-6.2252,-6.2855,-6.352,-6.4288,-6.5683,-6.6729,-6.7078,-6.9275,-7.0845,-7.1159,-7.2469,-7.3527,-7.4192,-7.5008,-7.5779,-7.6467,-7.7587,-7.8952,-8.0631,-8.0946,-8.198,-8.3824,-8.3795,-8.4262,-8.5111,-8.6263,-8.6917,0.0,0.0,-3.9396,0.0,0.0,0.0,-3.6489,-3.5764,0.0,0.0,0.0,0.0,0.0,0.0,0.0,0.0,0.0,0.0,0.0,0.0,0.0,0.0,0.0,0.0,0.0,-5.0345,-5.1055,-5.2473,-5.2787,-5.2925,-5.2852,-5.1963,-5.1479,-5.1536,-5.0968,-5.0398,-4.9748,-4.9899,-4.9598,-4.8841,-4.7473,-4.681,-4.6824,-4.5293,-4.413,-4.3342,-4.3492,-4.3492,-4.3482,-4.3686,-4.3363,-4.2913,-4.4372,-4.5647,-4.6809,-4.8555,-4.9772,-5.0761,-5.2514,-5.3696,-5.4634,-5.6446,-5.6927,-5.7035,-5.8044,-5.8845,-5.9359,-5.9329,-6.0373,-6.1576,-6.2281,-6.1649,-6.1015,-6.1542,-6.0217,-5.9227,-6.0404,-5.9779,-5.9346,-6.059,-6.0447,-6.0554,-6.1818,-6.1698,-6.1729,-6.2551,-6.3161,-6.3797,-6.4636,-6.5934,-6.7053,-6.7788,-6.9293,-7.0587,-7.1392,-7.2472,-7.3758,-7.5274,-7.6392,-7.717,-7.7717,-7.9223,-8.054,-8.1352,-8.2199,-8.345,-8.5108,-8.4527,-8.5245,-8.7176,-8.7391,-8.7905,0.0,0.0,0.0,0.0,0.0,0.0,-3.7209,-3.6861,0.0,0.0,0.0,0.0,0.0,0.0,0.0,0.0,0.0,0.0,0.0,0.0,0.0,0.0,0.0,0.0,0.0,-5.0841,-5.2018,-5.3349,-5.3453,-5.2979,-5.1988,-5.1877,-5.1605,-5.1222,-5.1115,-5.0712,-4.9936,-5.0118,-4.9477,-4.8119,-4.7205,-4.651,-4.596,-4.5565,-4.4936,-4.4195,-4.4811,-4.5073,-4.5198,-4.5873,-4.6148,-4.6214,-4.6625,-4.7764,-4.9332,-5.119,-5.241,-5.3427,-5.5275,-5.646,-5.7401,-5.9163,-5.9726,-6.0005,-6.1496,-6.2126,-6.224,-6.2128,-6.2216,-6.2411,-6.3183,-6.2135,-6.1051,-6.1619,-6.0334,-5.9078,-5.9752,-5.9421,-5.9445,-6.085,-6.0701,-6.0552,-6.1188,-6.1081,-6.1326,-6.2528,-6.2888,-6.3428,-6.453,-6.6145,-6.72,-6.7376,-6.92,-7.089,-7.1999,-7.274,-7.3587,-7.4694,-7.6151,-7.7001,-7.7064,-7.915,-8.0706,-8.1484,-8.2864,-8.4152,-8.5108,-8.5499,-8.6312,-8.7355,-8.8082,-8.8436,0.0,0.0,0.0,-4.2689,0.0,0.0,0.0,-3.821,0.0,0.0,0.0,0.0,0.0,0.0,0.0,0.0,0.0,0.0,0.0,0.0,0.0,0.0,0.0,0.0,0.0,-5.0171,-5.0977,-5.2497,-5.2226,-5.2047,-5.1944,-5.133,-5.0895,-5.0712,-5.0303,-4.9966,-4.966,-4.9795,-4.9449,-4.8652,-4.789,-4.7575,-4.7575,-4.7072,-4.6855,-4.6855,-4.7243,-4.7878,-4.8727,-4.9234,-5.0228,-5.1337,-5.0203,-5.0619,-5.203,-5.3857,-5.5119,-5.6164,-5.7939,-5.9113,-6.007,-6.1349,-6.1797,-6.195,-6.2793,-6.305,-6.3165,-6.3408,-6.3375,-6.348,-6.4225,-6.3334,-6.2402,-6.2975,-6.1653,-6.0509,-6.1359,-6.096,-6.0652,-6.1609,-6.1407,-6.1148,-6.1328,-6.1117,-6.1259,-6.2195,-6.2663,-6.3412,-6.4803,-6.6423,-6.7552,-6.787,-6.9317,-7.0693,-7.2038,-7.2537,-7.3606,-7.5241,-7.6488,-7.7483,-7.8221,-8.0101,-8.1697,-8.2903,-8.3768,-8.4717,-8.5584,-8.6368,-8.7066,-8.7621,-8.8667,-8.911,0.0,0.0,0.0,0.0,0.0,-4.2668,0.0,0.0,0.0,0.0,0.0,0.0,0.0,0.0,0.0,0.0,0.0,0.0,0.0,0.0,0.0,0.0,0.0,0.0,0.0,-4.9043,-4.9703,-5.1328,-5.0835,-5.0888,-5.1785,-5.0787,-5.0149,-5.0172,-4.95,-4.9225,-4.9352,-4.9415,-4.9521,-4.9671,-4.8905,-4.898,-4.9715,-4.9096,-4.9177,-4.9814,-5.0118,-5.1124,-5.2507,-5.2709,-5.4086,-5.5885,-5.3853,-5.3745,-5.4924,-5.6643,-5.7859,-5.883,-6.0441,-6.1464,-6.2218,-6.3077,-6.3487,-6.3641,-6.3821,-6.3859,-6.3997,-6.4728,-6.487,-6.4963,-6.5563,-6.4909,-6.4209,-6.4708,-6.3313,-6.2167,-6.323,-6.2613,-6.1948,-6.2406,-6.215,-6.1836,-6.1645,-6.1342,-6.1355,-6.2071,-6.262,-6.3512,-6.5004,-6.6454,-6.7621,-6.8258,-6.9283,-7.0523,-7.2041,-7.2545,-7.3721,-7.6036,-7.7005,-7.8146,-7.9672,-8.1382,-8.2984,-8.4409,-8.4753,-8.5391,-8.6163,-8.7131,-8.7753,-8.7971,-8.9185,-8.9713,0.0,0.0,0.0,0.0,-4.5535,0.0,0.0,0.0,-4.1043,-3.9729,0.0,0.0,0.0,0.0,0.0,0.0,0.0,0.0,0.0,0.0,0.0,0.0,0.0,0.0,0.0,0.0,-4.9455,-5.1195,-5.0815,-5.0538,-5.0688,-5.0665,-5.031,-4.9589,-4.9604,-4.9634,-4.9663,-4.9663,-5.0011,-5.0635,-4.9838,-4.9845,-5.0579,-5.112,-5.1424,-5.1574,-5.2966,-5.4161,-5.516,-5.5194,-5.6003,-5.7125,-5.6133,-5.6732,-5.8311,-5.9522,-6.0474,-6.1343,-6.249,-6.2938,-6.3115,-6.4039,-6.4845,-6.564,-6.6461,-6.6641,-6.6754,-6.7571,-6.7659,-6.7477,-6.756,-6.6721,-6.5836,-6.5912,-6.4407,-6.3078,-6.3691,-6.2888,-6.214,-6.2658,-6.2453,-6.204,-6.1651,-6.1328,-6.1497,-6.2631,-6.3022,-6.3577,-6.4667,-6.5823,-6.684,-6.7654,-6.9035,-7.0665,-7.2513,-7.3225,-7.4363,-7.6221,-7.708,-7.8298,-8.0023,-8.2583,-8.4277,-8.5103,-8.5822,-8.6253,-8.6325,-8.7915,-8.8624,-8.8732,-8.9522,-9.0001,0.0,0.0,0.0,0.0,0.0,0.0,-4.3734,0.0,-4.219,0.0,0.0,0.0,0.0,0.0,0.0,0.0,-3.8105,0.0,0.0,0.0,0.0,0.0,0.0,0.0,0.0,0.0,0.0,0.0,0.0,-4.8993,-5.007,-4.9721,-4.9589,-4.9759,-4.9741,-4.9778,-4.9835,-5.0174,-5.053,-5.0877,-5.1487,-5.214,-5.2869,-5.3662,-5.4334,-5.4894,-5.6023,-5.6842,-5.7318,-5.7876,-5.8722,-5.9703,-5.9443,-5.9473,-5.9807,-6.0873,-6.2076,-6.3291,-6.3809,-6.4283,-6.477,-6.5191,-6.5625,-6.6088,-6.6935,-6.7141,-6.7282,-6.8087,-6.8551,-6.8633,-6.8143,-6.7883,-6.7607,-6.7043,-6.6107,-6.5301,-6.5347,-6.4762,-6.4044,-6.3452,-6.3126,-6.264,-6.1836,-6.1875,-6.232,-6.3101,-6.3645,-6.433,-6.5237,-6.6514,-6.7504,-6.772,-6.967,-7.1446,-7.2585,-7.3831,-7.5116,-7.6478,-7.8272,-7.9996,-8.165,-8.3199,-8.4427,-8.5182,-8.6009,-8.6701,-8.7249,-8.8526,-8.9401,-9.0031,-9.015,-9.0131,-5.2889,0.0,0.0,0.0,0.0,0.0,0.0,0.0,0.0,0.0,0.0,0.0,0.0,0.0,0.0,-3.847,0.0,0.0,0.0,0.0,0.0,0.0,0.0,0.0,0.0,0.0,0.0,-4.7693,-4.734,-4.7718,-4.9251,-4.8795,-4.8871,-4.9746,-4.9618,-4.9792,-5.0312,-5.0781,-5.1307,-5.1986,-5.3164,-5.4231,-5.5258,-5.6308,-5.702,-5.7507,-5.8861,-5.9228,-5.9019,-6.0145,-6.095,-6.1484,-6.186,-6.1792,-6.1617,-6.2349,-6.3526,-6.4819,-6.4833,-6.5449,-6.6192,-6.629,-6.6468,-6.6868,-6.7923,-6.8206,-6.845,-6.9421,-7.0067,-7.0324,-6.9651,-6.9737,-6.9801,-6.9087,-6.8262,-6.7567,-6.723,-6.6313,-6.5212,-6.4177,-6.3523,-6.2858,-6.2021,-6.2314,-6.2809,-6.3306,-6.4028,-6.492,-6.5853,-6.6963,-6.7888,-6.8176,-7.0305,-7.1978,-7.262,-7.4224,-7.569,-7.6911,-7.9427,-8.1518,-8.2922,-8.379,-8.4583,-8.5375,-8.6247,-8.7083,-8.8071,-8.9066,-9.002,-9.0975,-9.0661,-9.0537,0.0,0.0,0.0,-4.8418,0.0,0.0,0.0,0.0,-4.5831,0.0,0.0,0.0,0.0,-4.2755,-4.1786,-4.1515,-4.1682,0.0,0.0,0.0,0.0,0.0,0.0,0.0,0.0,0.0,0.0,-4.6512,-4.6819,-4.724,-4.7933,-4.8049,-4.8432,-4.9127,-4.9014,-4.9719,-5.1345,-5.1223,-5.2361,-5.4685,-5.4776,-5.5686,-5.7289,-5.8981,-5.9317,-5.871,-6.1174,-6.1359,-6.0089,-6.1818,-6.2132,-6.1669,-6.2678,-6.359,-6.4372,-6.4411,-6.4987,-6.5755,-6.5833,-6.6359,-6.7077,-6.7127,-6.768,-6.8629,-7.0362,-7.0837,-7.1129,-7.286,-7.3265,-7.3138,-7.3077,-7.2855,-7.2653,-7.2545,-7.0991,-6.946,-6.9171,-6.6866,-6.4735,-6.4427,-6.3364,-6.2348,-6.2057,-6.2256,-6.2701,-6.3306,-6.4001,-6.4877,-6.6167,-6.655,-6.7323,-6.8887,-7.0659,-7.2013,-7.2727,-7.4261,-7.5905,-7.7663,-8.0366,-8.2319,-8.3149,-8.4169,-8.5076,-8.5873,-8.6785,-8.7699,-8.8498,-8.9487,-9.044,-9.1206,-9.1206,-9.1206,0.0,0.0,-5.3251,-5.0863,0.0,0.0,0.0,0.0,0.0,0.0,0.0,0.0,0.0,-4.4649,-4.3733,-4.2243,-4.1908,-4.1361,0.0,0.0,0.0,0.0,0.0,0.0,0.0,0.0,0.0,-4.5094,-4.5307,-4.5993,-4.7347,-4.741,-4.7983,-4.9336,-4.969,-5.0436,-5.1509,-5.2965,-5.4135,-5.5,-5.6611,-5.7673,-5.8372,-6.0114,-6.0753,-6.0632,-6.2635,-6.2955,-6.2022,-6.2624,-6.2787,-6.2694,-6.2962,-6.3667,-6.4488,-6.4539,-6.5116,-6.587,-6.6487,-6.7244,-6.8078,-6.8718,-6.909,-6.9643,-7.1351,-7.225,-7.2916,-7.3976,-7.4649,-7.4866,-7.4228,-7.3915,-7.3407,-7.2124,-7.1143,-7.0297,-6.9402,-6.8219,-6.7094,-6.6136,-6.5359,-6.4675,-6.3819,-6.4,-6.404,-6.351,-6.4492,-6.5462,-6.5931,-6.6957,-6.7843,-6.8546,-7.094,-7.2583,-7.2939,-7.5514,-7.7667,-7.8891,-8.1165,-8.2794,-8.352,-8.5046,-8.6283,-8.6974,-8.8359,-8.9235,-8.949,-9.0479,-9.1141,-9.1433,-9.2169,-9.1982,-5.5851,-5.5437,0.0,-5.2761,-5.1871,0.0,-4.8072,0.0,-4.9097,0.0,0.0,0.0,0.0,-4.6896,-4.5847,-4.4078,-4.3284,-4.232,0.0,-4.0401,0.0,0.0,0.0,0.0,0.0,0.0,-4.2598,-4.4054,-4.451,-4.5287,0.0,0.0,-4.7699,-4.9026,-5.0029,-5.0998,-5.2112,-5.4142,-5.5434,-5.6071,-5.7958,-5.9024,-5.9445,-6.0886,-6.1411,-6.1287,-6.2988,-6.3284,-6.2585,-6.3225,-6.3548,-6.3602,-6.3882,-6.4534,-6.529,-6.5064,-6.5486,-6.6381,-6.7537,-6.8498,-6.9421,-7.0709,-7.1274,-7.1826,-7.3532,-7.4456,-7.5071,-7.5822,-7.6408,-7.6694,-7.6031,-7.5709,-7.5157,-7.357,-7.2509,-7.1546,-7.0342,-6.9079,-6.7874,-6.6962,-6.6182,-6.5442,-6.4712,-6.4932,-6.4939,-6.4097,-6.501,-6.5911,-6.6196,-6.7302,-6.8261,-6.8779,-7.1291,-7.3259,-7.3972,-7.6625,-7.8675,-7.9612,-8.1561,-8.3154,-8.4209,-8.57,-8.683,-8.7596,-8.8946,-8.986,-9.0153,-9.0887,-9.1437,-9.173,-9.2537,-9.2427]}]]